<?xml version="1.0" encoding="UTF-8" standalone="no" ?>
<gpx xmlns="http://www.topografix.com/GPX/1/1" xmlns:xsi="http://www.w3.org/2001/XMLSchema-instance" xsi:schemaLocation="http://www.topografix.com/GPX/1/1 http://www.topografix.com/GPX/1/1/gpx.xsd" version="1.1" creator="VisuGPX - https://www.visugpx.com">
  <metadata>
    <name>PassPortes Gravel 2023  Jour 2</name>
  </metadata>
  <trk>
    <name><![CDATA[PassPortes Gravel 2023  Jour 2 - Trail Running Portes du Soleil]]></name>
    <extensions>
      <line xmlns="http://www.topografix.com/GPX/gpx_style/0/2">
        <color>0000FF</color>
        <width>4</width>
      </line>
    </extensions>
    <trkseg>
      <trkpt lat="46.23814" lon="6.85143">
        <ele>1347</ele>
        <time>2000-01-01T00:48:54.000Z</time>
      </trkpt>
      <trkpt lat="46.23789" lon="6.85157">
        <ele>1346</ele>
        <time>2000-01-01T00:49:04.000Z</time>
      </trkpt>
      <trkpt lat="46.23775" lon="6.85164">
        <ele>1346.1</ele>
        <time>2000-01-01T00:49:14.000Z</time>
      </trkpt>
      <trkpt lat="46.23758" lon="6.85169">
        <ele>1345</ele>
        <time>2000-01-01T00:49:24.000Z</time>
      </trkpt>
      <trkpt lat="46.23744" lon="6.85184">
        <ele>1343.7</ele>
        <time>2000-01-01T00:49:34.000Z</time>
      </trkpt>
      <trkpt lat="46.23735" lon="6.85195">
        <ele>1343</ele>
        <time>2000-01-01T00:49:44.000Z</time>
      </trkpt>
      <trkpt lat="46.23724" lon="6.85218">
        <ele>1342</ele>
        <time>2000-01-01T00:49:54.000Z</time>
      </trkpt>
      <trkpt lat="46.23715" lon="6.85234">
        <ele>1340.6</ele>
        <time>2000-01-01T00:50:04.000Z</time>
      </trkpt>
      <trkpt lat="46.23706" lon="6.85253">
        <ele>1339</ele>
        <time>2000-01-01T00:50:14.000Z</time>
      </trkpt>
      <trkpt lat="46.23695" lon="6.85266">
        <ele>1338.8</ele>
        <time>2000-01-01T00:50:24.000Z</time>
      </trkpt>
      <trkpt lat="46.23681" lon="6.85276">
        <ele>1337</ele>
        <time>2000-01-01T00:50:34.000Z</time>
      </trkpt>
      <trkpt lat="46.23666" lon="6.85287">
        <ele>1336.3</ele>
        <time>2000-01-01T00:50:44.000Z</time>
      </trkpt>
      <trkpt lat="46.23652" lon="6.85296">
        <ele>1335</ele>
        <time>2000-01-01T00:50:54.000Z</time>
      </trkpt>
      <trkpt lat="46.23638" lon="6.85303">
        <ele>1335.1</ele>
        <time>2000-01-01T00:51:04.000Z</time>
      </trkpt>
      <trkpt lat="46.23631" lon="6.85319">
        <ele>1331</ele>
        <time>2000-01-01T00:51:14.000Z</time>
      </trkpt>
      <trkpt lat="46.23629" lon="6.85331">
        <ele>1333.7</ele>
        <time>2000-01-01T00:51:24.000Z</time>
      </trkpt>
      <trkpt lat="46.2362" lon="6.85321">
        <ele>1331</ele>
        <time>2000-01-01T00:51:34.000Z</time>
      </trkpt>
      <trkpt lat="46.23612" lon="6.85301">
        <ele>1334.4</ele>
        <time>2000-01-01T00:51:44.000Z</time>
      </trkpt>
      <trkpt lat="46.23602" lon="6.85276">
        <ele>1335</ele>
        <time>2000-01-01T00:51:54.000Z</time>
      </trkpt>
      <trkpt lat="46.23597" lon="6.85247">
        <ele>1335</ele>
        <time>2000-01-01T00:52:04.000Z</time>
      </trkpt>
      <trkpt lat="46.23592" lon="6.8521">
        <ele>1336</ele>
        <time>2000-01-01T00:52:14.000Z</time>
      </trkpt>
      <trkpt lat="46.23586" lon="6.85164">
        <ele>1337</ele>
        <time>2000-01-01T00:52:24.000Z</time>
      </trkpt>
      <trkpt lat="46.23574" lon="6.85112">
        <ele>1339</ele>
        <time>2000-01-01T00:52:34.000Z</time>
      </trkpt>
      <trkpt lat="46.23565" lon="6.85063">
        <ele>1342</ele>
        <time>2000-01-01T00:52:44.000Z</time>
      </trkpt>
      <trkpt lat="46.23557" lon="6.85015">
        <ele>1344</ele>
        <time>2000-01-01T00:52:54.000Z</time>
      </trkpt>
      <trkpt lat="46.2355" lon="6.84977">
        <ele>1344</ele>
        <time>2000-01-01T00:53:04.000Z</time>
      </trkpt>
      <trkpt lat="46.23541" lon="6.84926">
        <ele>1349</ele>
        <time>2000-01-01T00:53:14.000Z</time>
      </trkpt>
      <trkpt lat="46.23532" lon="6.84906">
        <ele>1350.1</ele>
        <time>2000-01-01T00:53:24.000Z</time>
      </trkpt>
      <trkpt lat="46.2351" lon="6.84848">
        <ele>1351</ele>
        <time>2000-01-01T00:53:34.000Z</time>
      </trkpt>
      <trkpt lat="46.23494" lon="6.84798">
        <ele>1352</ele>
        <time>2000-01-01T00:53:44.000Z</time>
      </trkpt>
      <trkpt lat="46.23481" lon="6.84764">
        <ele>1352</ele>
        <time>2000-01-01T00:53:54.000Z</time>
      </trkpt>
      <trkpt lat="46.23463" lon="6.8472">
        <ele>1352</ele>
        <time>2000-01-01T00:54:04.000Z</time>
      </trkpt>
      <trkpt lat="46.23443" lon="6.84689">
        <ele>1351</ele>
        <time>2000-01-01T00:54:14.000Z</time>
      </trkpt>
      <trkpt lat="46.23426" lon="6.84663">
        <ele>1351</ele>
        <time>2000-01-01T00:54:24.000Z</time>
      </trkpt>
      <trkpt lat="46.23408" lon="6.84634">
        <ele>1351</ele>
        <time>2000-01-01T00:54:34.000Z</time>
      </trkpt>
      <trkpt lat="46.23382" lon="6.84583">
        <ele>1352</ele>
        <time>2000-01-01T00:54:44.000Z</time>
      </trkpt>
      <trkpt lat="46.2336" lon="6.84553">
        <ele>1353</ele>
        <time>2000-01-01T00:54:54.000Z</time>
      </trkpt>
      <trkpt lat="46.23341" lon="6.84526">
        <ele>1355</ele>
        <time>2000-01-01T00:55:04.000Z</time>
      </trkpt>
      <trkpt lat="46.23317" lon="6.84493">
        <ele>1357</ele>
        <time>2000-01-01T00:55:14.000Z</time>
      </trkpt>
      <trkpt lat="46.23293" lon="6.8447">
        <ele>1357</ele>
        <time>2000-01-01T00:55:24.000Z</time>
      </trkpt>
      <trkpt lat="46.23255" lon="6.84434">
        <ele>1362</ele>
        <time>2000-01-01T00:55:34.000Z</time>
      </trkpt>
      <trkpt lat="46.23229" lon="6.84395">
        <ele>1365</ele>
        <time>2000-01-01T00:55:44.000Z</time>
      </trkpt>
      <trkpt lat="46.2322" lon="6.84386">
        <ele>1362.3</ele>
        <time>2000-01-01T00:55:54.000Z</time>
      </trkpt>
      <trkpt lat="46.23206" lon="6.8438">
        <ele>1364</ele>
        <time>2000-01-01T00:56:04.000Z</time>
      </trkpt>
      <trkpt lat="46.23181" lon="6.84377">
        <ele>1364</ele>
        <time>2000-01-01T00:56:14.000Z</time>
      </trkpt>
      <trkpt lat="46.23159" lon="6.84369">
        <ele>1364</ele>
        <time>2000-01-01T00:56:24.000Z</time>
      </trkpt>
      <trkpt lat="46.23135" lon="6.84354">
        <ele>1364</ele>
        <time>2000-01-01T00:56:34.000Z</time>
      </trkpt>
      <trkpt lat="46.23103" lon="6.84333">
        <ele>1364</ele>
        <time>2000-01-01T00:56:44.000Z</time>
      </trkpt>
      <trkpt lat="46.2308" lon="6.84307">
        <ele>1367</ele>
        <time>2000-01-01T00:56:54.000Z</time>
      </trkpt>
      <trkpt lat="46.23046" lon="6.84267">
        <ele>1369</ele>
        <time>2000-01-01T00:57:04.000Z</time>
      </trkpt>
      <trkpt lat="46.23029" lon="6.84262">
        <ele>1371.6</ele>
        <time>2000-01-01T00:57:14.000Z</time>
      </trkpt>
      <trkpt lat="46.23011" lon="6.84245">
        <ele>1372</ele>
        <time>2000-01-01T00:57:24.000Z</time>
      </trkpt>
      <trkpt lat="46.23002" lon="6.84229">
        <ele>1370.3</ele>
        <time>2000-01-01T00:57:34.000Z</time>
      </trkpt>
      <trkpt lat="46.22976" lon="6.84191">
        <ele>1387</ele>
        <time>2000-01-01T00:57:44.000Z</time>
      </trkpt>
      <trkpt lat="46.22967" lon="6.84154">
        <ele>1389</ele>
        <time>2000-01-01T00:57:54.000Z</time>
      </trkpt>
      <trkpt lat="46.22962" lon="6.84142">
        <ele>1374.2</ele>
        <time>2000-01-01T00:58:04.000Z</time>
      </trkpt>
      <trkpt lat="46.22939" lon="6.84122">
        <ele>1390</ele>
        <time>2000-01-01T00:58:14.000Z</time>
      </trkpt>
      <trkpt lat="46.22932" lon="6.8411">
        <ele>1376.6</ele>
        <time>2000-01-01T00:58:24.000Z</time>
      </trkpt>
      <trkpt lat="46.22912" lon="6.841">
        <ele>1391</ele>
        <time>2000-01-01T00:58:34.000Z</time>
      </trkpt>
      <trkpt lat="46.22902" lon="6.84088">
        <ele>1381.7</ele>
        <time>2000-01-01T00:58:44.000Z</time>
      </trkpt>
      <trkpt lat="46.22862" lon="6.84073">
        <ele>1404</ele>
        <time>2000-01-01T00:58:54.000Z</time>
      </trkpt>
      <trkpt lat="46.22842" lon="6.84048">
        <ele>1408</ele>
        <time>2000-01-01T00:59:04.000Z</time>
      </trkpt>
      <trkpt lat="46.22828" lon="6.84038">
        <ele>1392.9</ele>
        <time>2000-01-01T00:59:14.000Z</time>
      </trkpt>
      <trkpt lat="46.22824" lon="6.84033">
        <ele>1407</ele>
        <time>2000-01-01T00:59:24.000Z</time>
      </trkpt>
      <trkpt lat="46.22814" lon="6.84018">
        <ele>1394.9</ele>
        <time>2000-01-01T00:59:34.000Z</time>
      </trkpt>
      <trkpt lat="46.22778" lon="6.83998">
        <ele>1407</ele>
        <time>2000-01-01T00:59:44.000Z</time>
      </trkpt>
      <trkpt lat="46.22765" lon="6.83978">
        <ele>1407</ele>
        <time>2000-01-01T00:59:54.000Z</time>
      </trkpt>
      <trkpt lat="46.22765" lon="6.83979">
        <ele>1399.7</ele>
        <time>2000-01-01T01:00:04.000Z</time>
      </trkpt>
      <trkpt lat="46.2276" lon="6.8397">
        <ele>1399.9</ele>
        <time>2000-01-01T01:00:14.000Z</time>
      </trkpt>
      <trkpt lat="46.22754" lon="6.83947">
        <ele>1407</ele>
        <time>2000-01-01T01:00:24.000Z</time>
      </trkpt>
      <trkpt lat="46.22746" lon="6.83933">
        <ele>1401.1</ele>
        <time>2000-01-01T01:00:34.000Z</time>
      </trkpt>
      <trkpt lat="46.22735" lon="6.83912">
        <ele>1407</ele>
        <time>2000-01-01T01:00:44.000Z</time>
      </trkpt>
      <trkpt lat="46.22723" lon="6.83903">
        <ele>1402.5</ele>
        <time>2000-01-01T01:00:54.000Z</time>
      </trkpt>
      <trkpt lat="46.22714" lon="6.83895">
        <ele>1407</ele>
        <time>2000-01-01T01:01:04.000Z</time>
      </trkpt>
      <trkpt lat="46.22703" lon="6.83882">
        <ele>1403.6</ele>
        <time>2000-01-01T01:01:14.000Z</time>
      </trkpt>
      <trkpt lat="46.22704" lon="6.83868">
        <ele>1408</ele>
        <time>2000-01-01T01:01:24.000Z</time>
      </trkpt>
      <trkpt lat="46.22689" lon="6.83859">
        <ele>1405.4</ele>
        <time>2000-01-01T01:01:34.000Z</time>
      </trkpt>
      <trkpt lat="46.22676" lon="6.83848">
        <ele>1408</ele>
        <time>2000-01-01T01:01:44.000Z</time>
      </trkpt>
      <trkpt lat="46.22676" lon="6.83849">
        <ele>1407</ele>
        <time>2000-01-01T01:01:54.000Z</time>
      </trkpt>
      <trkpt lat="46.22671" lon="6.83845">
        <ele>1407.6</ele>
        <time>2000-01-01T01:02:04.000Z</time>
      </trkpt>
      <trkpt lat="46.22638" lon="6.83841">
        <ele>1411</ele>
        <time>2000-01-01T01:02:14.000Z</time>
      </trkpt>
      <trkpt lat="46.22623" lon="6.83829">
        <ele>1409.8</ele>
        <time>2000-01-01T01:02:24.000Z</time>
      </trkpt>
      <trkpt lat="46.22596" lon="6.83794">
        <ele>1417</ele>
        <time>2000-01-01T01:02:34.000Z</time>
      </trkpt>
      <trkpt lat="46.22588" lon="6.83765">
        <ele>1419</ele>
        <time>2000-01-01T01:02:44.000Z</time>
      </trkpt>
      <trkpt lat="46.22583" lon="6.83758">
        <ele>1415.1</ele>
        <time>2000-01-01T01:02:54.000Z</time>
      </trkpt>
      <trkpt lat="46.22517" lon="6.83708">
        <ele>1422</ele>
        <time>2000-01-01T01:03:04.000Z</time>
      </trkpt>
      <trkpt lat="46.2249" lon="6.8368">
        <ele>1427</ele>
        <time>2000-01-01T01:03:14.000Z</time>
      </trkpt>
      <trkpt lat="46.22468" lon="6.83653">
        <ele>1429</ele>
        <time>2000-01-01T01:03:24.000Z</time>
      </trkpt>
      <trkpt lat="46.22444" lon="6.83643">
        <ele>1429</ele>
        <time>2000-01-01T01:03:34.000Z</time>
      </trkpt>
      <trkpt lat="46.22416" lon="6.83631">
        <ele>1431</ele>
        <time>2000-01-01T01:03:44.000Z</time>
      </trkpt>
      <trkpt lat="46.22385" lon="6.83631">
        <ele>1431</ele>
        <time>2000-01-01T01:03:54.000Z</time>
      </trkpt>
      <trkpt lat="46.22376" lon="6.83629">
        <ele>1428.1</ele>
        <time>2000-01-01T01:04:04.000Z</time>
      </trkpt>
      <trkpt lat="46.22337" lon="6.83595">
        <ele>1432</ele>
        <time>2000-01-01T01:04:14.000Z</time>
      </trkpt>
      <trkpt lat="46.223" lon="6.83572">
        <ele>1432</ele>
        <time>2000-01-01T01:04:24.000Z</time>
      </trkpt>
      <trkpt lat="46.22283" lon="6.83563">
        <ele>1426.5</ele>
        <time>2000-01-01T01:04:34.000Z</time>
      </trkpt>
      <trkpt lat="46.22203" lon="6.83538">
        <ele>1433</ele>
        <time>2000-01-01T01:04:44.000Z</time>
      </trkpt>
      <trkpt lat="46.22179" lon="6.83527">
        <ele>1434</ele>
        <time>2000-01-01T01:04:54.000Z</time>
      </trkpt>
      <trkpt lat="46.22149" lon="6.83512">
        <ele>1436</ele>
        <time>2000-01-01T01:05:04.000Z</time>
      </trkpt>
      <trkpt lat="46.22138" lon="6.83502">
        <ele>1430.9</ele>
        <time>2000-01-01T01:05:14.000Z</time>
      </trkpt>
      <trkpt lat="46.22121" lon="6.83475">
        <ele>1437</ele>
        <time>2000-01-01T01:05:24.000Z</time>
      </trkpt>
      <trkpt lat="46.2211" lon="6.83463">
        <ele>1434.4</ele>
        <time>2000-01-01T01:05:34.000Z</time>
      </trkpt>
      <trkpt lat="46.22095" lon="6.8346">
        <ele>1437</ele>
        <time>2000-01-01T01:05:44.000Z</time>
      </trkpt>
      <trkpt lat="46.2207" lon="6.83463">
        <ele>1437</ele>
        <time>2000-01-01T01:05:54.000Z</time>
      </trkpt>
      <trkpt lat="46.22061" lon="6.83461">
        <ele>1436.5</ele>
        <time>2000-01-01T01:06:04.000Z</time>
      </trkpt>
      <trkpt lat="46.22043" lon="6.83449">
        <ele>1441</ele>
        <time>2000-01-01T01:06:14.000Z</time>
      </trkpt>
      <trkpt lat="46.22027" lon="6.83434">
        <ele>1441</ele>
        <time>2000-01-01T01:06:24.000Z</time>
      </trkpt>
      <trkpt lat="46.22004" lon="6.83407">
        <ele>1442</ele>
        <time>2000-01-01T01:06:34.000Z</time>
      </trkpt>
      <trkpt lat="46.21985" lon="6.83384">
        <ele>1446</ele>
        <time>2000-01-01T01:06:44.000Z</time>
      </trkpt>
      <trkpt lat="46.21964" lon="6.83358">
        <ele>1446</ele>
        <time>2000-01-01T01:06:54.000Z</time>
      </trkpt>
      <trkpt lat="46.21943" lon="6.83331">
        <ele>1446</ele>
        <time>2000-01-01T01:07:04.000Z</time>
      </trkpt>
      <trkpt lat="46.21912" lon="6.83291">
        <ele>1447</ele>
        <time>2000-01-01T01:07:14.000Z</time>
      </trkpt>
      <trkpt lat="46.21892" lon="6.83274">
        <ele>1450</ele>
        <time>2000-01-01T01:07:24.000Z</time>
      </trkpt>
      <trkpt lat="46.21871" lon="6.83252">
        <ele>1451</ele>
        <time>2000-01-01T01:07:34.000Z</time>
      </trkpt>
      <trkpt lat="46.21853" lon="6.83228">
        <ele>1453</ele>
        <time>2000-01-01T01:07:44.000Z</time>
      </trkpt>
      <trkpt lat="46.21832" lon="6.83203">
        <ele>1454</ele>
        <time>2000-01-01T01:07:54.000Z</time>
      </trkpt>
      <trkpt lat="46.21814" lon="6.83176">
        <ele>1458</ele>
        <time>2000-01-01T01:08:04.000Z</time>
      </trkpt>
      <trkpt lat="46.21789" lon="6.83142">
        <ele>1462</ele>
        <time>2000-01-01T01:08:14.000Z</time>
      </trkpt>
      <trkpt lat="46.21763" lon="6.83113">
        <ele>1465</ele>
        <time>2000-01-01T01:08:24.000Z</time>
      </trkpt>
      <trkpt lat="46.21737" lon="6.83084">
        <ele>1467</ele>
        <time>2000-01-01T01:08:34.000Z</time>
      </trkpt>
      <trkpt lat="46.21718" lon="6.83063">
        <ele>1468</ele>
        <time>2000-01-01T01:08:44.000Z</time>
      </trkpt>
      <trkpt lat="46.21698" lon="6.83042">
        <ele>1468</ele>
        <time>2000-01-01T01:08:54.000Z</time>
      </trkpt>
      <trkpt lat="46.21664" lon="6.82996">
        <ele>1472</ele>
        <time>2000-01-01T01:09:04.000Z</time>
      </trkpt>
      <trkpt lat="46.21641" lon="6.82982">
        <ele>1472</ele>
        <time>2000-01-01T01:09:14.000Z</time>
      </trkpt>
      <trkpt lat="46.21611" lon="6.82964">
        <ele>1472</ele>
        <time>2000-01-01T01:09:24.000Z</time>
      </trkpt>
      <trkpt lat="46.21594" lon="6.8294">
        <ele>1473</ele>
        <time>2000-01-01T01:09:34.000Z</time>
      </trkpt>
      <trkpt lat="46.21574" lon="6.82913">
        <ele>1476</ele>
        <time>2000-01-01T01:09:44.000Z</time>
      </trkpt>
      <trkpt lat="46.2155" lon="6.82897">
        <ele>1479</ele>
        <time>2000-01-01T01:09:54.000Z</time>
      </trkpt>
      <trkpt lat="46.2152" lon="6.82878">
        <ele>1482</ele>
        <time>2000-01-01T01:10:04.000Z</time>
      </trkpt>
      <trkpt lat="46.21503" lon="6.82872">
        <ele>1470.8</ele>
        <time>2000-01-01T01:10:14.000Z</time>
      </trkpt>
      <trkpt lat="46.21497" lon="6.82865">
        <ele>1483</ele>
        <time>2000-01-01T01:10:24.000Z</time>
      </trkpt>
      <trkpt lat="46.21479" lon="6.82836">
        <ele>1489</ele>
        <time>2000-01-01T01:10:34.000Z</time>
      </trkpt>
      <trkpt lat="46.2146" lon="6.828">
        <ele>1489</ele>
        <time>2000-01-01T01:10:44.000Z</time>
      </trkpt>
      <trkpt lat="46.21441" lon="6.82764">
        <ele>1489</ele>
        <time>2000-01-01T01:10:54.000Z</time>
      </trkpt>
      <trkpt lat="46.2142" lon="6.82725">
        <ele>1491</ele>
        <time>2000-01-01T01:11:04.000Z</time>
      </trkpt>
      <trkpt lat="46.21411" lon="6.82705">
        <ele>1484.3</ele>
        <time>2000-01-01T01:11:14.000Z</time>
      </trkpt>
      <trkpt lat="46.21402" lon="6.82672">
        <ele>1500</ele>
        <time>2000-01-01T01:11:24.000Z</time>
      </trkpt>
      <trkpt lat="46.21382" lon="6.82648">
        <ele>1501</ele>
        <time>2000-01-01T01:11:34.000Z</time>
      </trkpt>
      <trkpt lat="46.21355" lon="6.82632">
        <ele>1503</ele>
        <time>2000-01-01T01:11:44.000Z</time>
      </trkpt>
      <trkpt lat="46.21331" lon="6.82603">
        <ele>1505</ele>
        <time>2000-01-01T01:11:54.000Z</time>
      </trkpt>
      <trkpt lat="46.21306" lon="6.82573">
        <ele>1505</ele>
        <time>2000-01-01T01:12:04.000Z</time>
      </trkpt>
      <trkpt lat="46.21277" lon="6.82538">
        <ele>1506</ele>
        <time>2000-01-01T01:12:14.000Z</time>
      </trkpt>
      <trkpt lat="46.21248" lon="6.825">
        <ele>1506</ele>
        <time>2000-01-01T01:12:24.000Z</time>
      </trkpt>
      <trkpt lat="46.21241" lon="6.8249">
        <ele>1502.4</ele>
        <time>2000-01-01T01:12:34.000Z</time>
      </trkpt>
      <trkpt lat="46.21212" lon="6.82421">
        <ele>1511</ele>
        <time>2000-01-01T01:12:44.000Z</time>
      </trkpt>
      <trkpt lat="46.21194" lon="6.82394">
        <ele>1512</ele>
        <time>2000-01-01T01:12:54.000Z</time>
      </trkpt>
      <trkpt lat="46.21173" lon="6.82362">
        <ele>1513</ele>
        <time>2000-01-01T01:13:04.000Z</time>
      </trkpt>
      <trkpt lat="46.21167" lon="6.82346">
        <ele>1512.2</ele>
        <time>2000-01-01T01:13:14.000Z</time>
      </trkpt>
      <trkpt lat="46.21165" lon="6.8232">
        <ele>1519</ele>
        <time>2000-01-01T01:13:24.000Z</time>
      </trkpt>
      <trkpt lat="46.2117" lon="6.82281">
        <ele>1523</ele>
        <time>2000-01-01T01:13:34.000Z</time>
      </trkpt>
      <trkpt lat="46.21172" lon="6.82247">
        <ele>1529</ele>
        <time>2000-01-01T01:13:44.000Z</time>
      </trkpt>
      <trkpt lat="46.21174" lon="6.82213">
        <ele>1533</ele>
        <time>2000-01-01T01:13:54.000Z</time>
      </trkpt>
      <trkpt lat="46.21169" lon="6.8218">
        <ele>1538</ele>
        <time>2000-01-01T01:14:04.000Z</time>
      </trkpt>
      <trkpt lat="46.21164" lon="6.82171">
        <ele>1524.8</ele>
        <time>2000-01-01T01:14:14.000Z</time>
      </trkpt>
      <trkpt lat="46.21138" lon="6.82149">
        <ele>1543</ele>
        <time>2000-01-01T01:14:24.000Z</time>
      </trkpt>
      <trkpt lat="46.21121" lon="6.82141">
        <ele>1530.3</ele>
        <time>2000-01-01T01:14:34.000Z</time>
      </trkpt>
      <trkpt lat="46.21055" lon="6.82126">
        <ele>1547</ele>
        <time>2000-01-01T01:14:44.000Z</time>
      </trkpt>
      <trkpt lat="46.21012" lon="6.82103">
        <ele>1548</ele>
        <time>2000-01-01T01:14:54.000Z</time>
      </trkpt>
      <trkpt lat="46.21017" lon="6.82117">
        <ele>1539.6</ele>
        <time>2000-01-01T01:15:04.000Z</time>
      </trkpt>
      <trkpt lat="46.21017" lon="6.82118">
        <ele>1539.5</ele>
        <time>2000-01-01T01:15:14.000Z</time>
      </trkpt>
      <trkpt lat="46.21012" lon="6.82103">
        <ele>1548</ele>
        <time>2000-01-01T01:15:24.000Z</time>
      </trkpt>
      <trkpt lat="46.21005" lon="6.82099">
        <ele>1542.8</ele>
        <time>2000-01-01T01:15:34.000Z</time>
      </trkpt>
      <trkpt lat="46.2098" lon="6.82079">
        <ele>1552</ele>
        <time>2000-01-01T01:15:44.000Z</time>
      </trkpt>
      <trkpt lat="46.20949" lon="6.82034">
        <ele>1560</ele>
        <time>2000-01-01T01:15:54.000Z</time>
      </trkpt>
      <trkpt lat="46.20935" lon="6.82008">
        <ele>1561</ele>
        <time>2000-01-01T01:16:04.000Z</time>
      </trkpt>
      <trkpt lat="46.2092" lon="6.81981">
        <ele>1563</ele>
        <time>2000-01-01T01:16:14.000Z</time>
      </trkpt>
      <trkpt lat="46.20917" lon="6.81974">
        <ele>1554.9</ele>
        <time>2000-01-01T01:16:24.000Z</time>
      </trkpt>
      <trkpt lat="46.2092" lon="6.81964">
        <ele>1556.5</ele>
        <time>2000-01-01T01:16:34.000Z</time>
      </trkpt>
      <trkpt lat="46.20927" lon="6.81963">
        <ele>1564</ele>
        <time>2000-01-01T01:16:44.000Z</time>
      </trkpt>
      <trkpt lat="46.20942" lon="6.81979">
        <ele>1564</ele>
        <time>2000-01-01T01:16:54.000Z</time>
      </trkpt>
      <trkpt lat="46.20966" lon="6.81991">
        <ele>1564</ele>
        <time>2000-01-01T01:17:04.000Z</time>
      </trkpt>
      <trkpt lat="46.20994" lon="6.82005">
        <ele>1564</ele>
        <time>2000-01-01T01:17:14.000Z</time>
      </trkpt>
      <trkpt lat="46.21033" lon="6.82011">
        <ele>1566</ele>
        <time>2000-01-01T01:17:24.000Z</time>
      </trkpt>
      <trkpt lat="46.21058" lon="6.82023">
        <ele>1566</ele>
        <time>2000-01-01T01:17:34.000Z</time>
      </trkpt>
      <trkpt lat="46.21066" lon="6.82021">
        <ele>1568.9</ele>
        <time>2000-01-01T01:17:44.000Z</time>
      </trkpt>
      <trkpt lat="46.21067" lon="6.82012">
        <ele>1571.3</ele>
        <time>2000-01-01T01:17:54.000Z</time>
      </trkpt>
      <trkpt lat="46.21037" lon="6.81994">
        <ele>1571</ele>
        <time>2000-01-01T01:18:04.000Z</time>
      </trkpt>
      <trkpt lat="46.21003" lon="6.81959">
        <ele>1577</ele>
        <time>2000-01-01T01:18:14.000Z</time>
      </trkpt>
      <trkpt lat="46.20992" lon="6.81942">
        <ele>1575.9</ele>
        <time>2000-01-01T01:18:24.000Z</time>
      </trkpt>
      <trkpt lat="46.20986" lon="6.81931">
        <ele>1578</ele>
        <time>2000-01-01T01:18:34.000Z</time>
      </trkpt>
      <trkpt lat="46.20982" lon="6.81917">
        <ele>1579.1</ele>
        <time>2000-01-01T01:18:44.000Z</time>
      </trkpt>
      <trkpt lat="46.2098" lon="6.81885">
        <ele>1590</ele>
        <time>2000-01-01T01:18:54.000Z</time>
      </trkpt>
      <trkpt lat="46.20976" lon="6.81863">
        <ele>1583</ele>
        <time>2000-01-01T01:19:04.000Z</time>
      </trkpt>
      <trkpt lat="46.20964" lon="6.81836">
        <ele>1599</ele>
        <time>2000-01-01T01:19:14.000Z</time>
      </trkpt>
      <trkpt lat="46.20948" lon="6.8182">
        <ele>1600</ele>
        <time>2000-01-01T01:19:24.000Z</time>
      </trkpt>
      <trkpt lat="46.20925" lon="6.8181">
        <ele>1602</ele>
        <time>2000-01-01T01:19:34.000Z</time>
      </trkpt>
      <trkpt lat="46.209" lon="6.81808">
        <ele>1604</ele>
        <time>2000-01-01T01:19:44.000Z</time>
      </trkpt>
      <trkpt lat="46.20871" lon="6.81806">
        <ele>1604</ele>
        <time>2000-01-01T01:19:54.000Z</time>
      </trkpt>
      <trkpt lat="46.20858" lon="6.81807">
        <ele>1595.1</ele>
        <time>2000-01-01T01:20:04.000Z</time>
      </trkpt>
      <trkpt lat="46.2084" lon="6.81814">
        <ele>1602</ele>
        <time>2000-01-01T01:20:14.000Z</time>
      </trkpt>
      <trkpt lat="46.20824" lon="6.81812">
        <ele>1598.3</ele>
        <time>2000-01-01T01:20:24.000Z</time>
      </trkpt>
      <trkpt lat="46.20808" lon="6.81806">
        <ele>1602</ele>
        <time>2000-01-01T01:20:34.000Z</time>
      </trkpt>
      <trkpt lat="46.20782" lon="6.81781">
        <ele>1605</ele>
        <time>2000-01-01T01:20:44.000Z</time>
      </trkpt>
      <trkpt lat="46.2077" lon="6.81751">
        <ele>1609</ele>
        <time>2000-01-01T01:20:54.000Z</time>
      </trkpt>
      <trkpt lat="46.20765" lon="6.81741">
        <ele>1607.6</ele>
        <time>2000-01-01T01:21:04.000Z</time>
      </trkpt>
      <trkpt lat="46.20759" lon="6.81737">
        <ele>1607.4</ele>
        <time>2000-01-01T01:21:14.000Z</time>
      </trkpt>
      <trkpt lat="46.20745" lon="6.81731">
        <ele>1617</ele>
        <time>2000-01-01T01:21:24.000Z</time>
      </trkpt>
      <trkpt lat="46.20734" lon="6.81731">
        <ele>1609.7</ele>
        <time>2000-01-01T01:21:34.000Z</time>
      </trkpt>
      <trkpt lat="46.20705" lon="6.8175">
        <ele>1620</ele>
        <time>2000-01-01T01:21:44.000Z</time>
      </trkpt>
      <trkpt lat="46.20677" lon="6.81758">
        <ele>1624</ele>
        <time>2000-01-01T01:21:54.000Z</time>
      </trkpt>
      <trkpt lat="46.20643" lon="6.8176">
        <ele>1633</ele>
        <time>2000-01-01T01:22:04.000Z</time>
      </trkpt>
      <trkpt lat="46.20617" lon="6.81767">
        <ele>1640</ele>
        <time>2000-01-01T01:22:14.000Z</time>
      </trkpt>
      <trkpt lat="46.20594" lon="6.81779">
        <ele>1643</ele>
        <time>2000-01-01T01:22:24.000Z</time>
      </trkpt>
      <trkpt lat="46.2057" lon="6.81791">
        <ele>1643</ele>
        <time>2000-01-01T01:22:34.000Z</time>
      </trkpt>
      <trkpt lat="46.20548" lon="6.81808">
        <ele>1646</ele>
        <time>2000-01-01T01:22:44.000Z</time>
      </trkpt>
      <trkpt lat="46.20522" lon="6.81826">
        <ele>1646</ele>
        <time>2000-01-01T01:22:54.000Z</time>
      </trkpt>
      <trkpt lat="46.20511" lon="6.81844">
        <ele>1633</ele>
        <time>2000-01-01T01:23:04.000Z</time>
      </trkpt>
      <trkpt lat="46.20488" lon="6.81901">
        <ele>1647</ele>
        <time>2000-01-01T01:23:14.000Z</time>
      </trkpt>
      <trkpt lat="46.20468" lon="6.81932">
        <ele>1652</ele>
        <time>2000-01-01T01:23:24.000Z</time>
      </trkpt>
      <trkpt lat="46.20452" lon="6.81958">
        <ele>1656</ele>
        <time>2000-01-01T01:23:34.000Z</time>
      </trkpt>
      <trkpt lat="46.20434" lon="6.81986">
        <ele>1664</ele>
        <time>2000-01-01T01:23:44.000Z</time>
      </trkpt>
      <trkpt lat="46.20431" lon="6.81997">
        <ele>1646.7</ele>
        <time>2000-01-01T01:23:54.000Z</time>
      </trkpt>
      <trkpt lat="46.2043" lon="6.82015">
        <ele>1670</ele>
        <time>2000-01-01T01:24:04.000Z</time>
      </trkpt>
      <trkpt lat="46.20424" lon="6.8202">
        <ele>1649</ele>
        <time>2000-01-01T01:24:14.000Z</time>
      </trkpt>
      <trkpt lat="46.2042" lon="6.82013">
        <ele>1651</ele>
        <time>2000-01-01T01:24:24.000Z</time>
      </trkpt>
      <trkpt lat="46.20424" lon="6.81987">
        <ele>1667</ele>
        <time>2000-01-01T01:24:34.000Z</time>
      </trkpt>
      <trkpt lat="46.20435" lon="6.81947">
        <ele>1666</ele>
        <time>2000-01-01T01:24:44.000Z</time>
      </trkpt>
      <trkpt lat="46.20444" lon="6.81914">
        <ele>1666</ele>
        <time>2000-01-01T01:24:54.000Z</time>
      </trkpt>
      <trkpt lat="46.20454" lon="6.81877">
        <ele>1667</ele>
        <time>2000-01-01T01:25:04.000Z</time>
      </trkpt>
      <trkpt lat="46.20463" lon="6.81854">
        <ele>1668</ele>
        <time>2000-01-01T01:25:14.000Z</time>
      </trkpt>
      <trkpt lat="46.20462" lon="6.81846">
        <ele>1657.2</ele>
        <time>2000-01-01T01:25:24.000Z</time>
      </trkpt>
      <trkpt lat="46.20456" lon="6.81848">
        <ele>1659.3</ele>
        <time>2000-01-01T01:25:34.000Z</time>
      </trkpt>
      <trkpt lat="46.20452" lon="6.8186">
        <ele>1672</ele>
        <time>2000-01-01T01:25:44.000Z</time>
      </trkpt>
      <trkpt lat="46.20434" lon="6.81893">
        <ele>1674</ele>
        <time>2000-01-01T01:25:54.000Z</time>
      </trkpt>
      <trkpt lat="46.20419" lon="6.8192">
        <ele>1681</ele>
        <time>2000-01-01T01:26:04.000Z</time>
      </trkpt>
      <trkpt lat="46.20404" lon="6.81949">
        <ele>1684</ele>
        <time>2000-01-01T01:26:14.000Z</time>
      </trkpt>
      <trkpt lat="46.20399" lon="6.81963">
        <ele>1668.2</ele>
        <time>2000-01-01T01:26:24.000Z</time>
      </trkpt>
      <trkpt lat="46.20386" lon="6.82028">
        <ele>1688</ele>
        <time>2000-01-01T01:26:34.000Z</time>
      </trkpt>
      <trkpt lat="46.20385" lon="6.82053">
        <ele>1674.4</ele>
        <time>2000-01-01T01:26:44.000Z</time>
      </trkpt>
      <trkpt lat="46.20383" lon="6.8209">
        <ele>1686</ele>
        <time>2000-01-01T01:26:54.000Z</time>
      </trkpt>
      <trkpt lat="46.2039" lon="6.82141">
        <ele>1685</ele>
        <time>2000-01-01T01:27:04.000Z</time>
      </trkpt>
      <trkpt lat="46.2039" lon="6.82151">
        <ele>1678.1</ele>
        <time>2000-01-01T01:27:14.000Z</time>
      </trkpt>
      <trkpt lat="46.20386" lon="6.82164">
        <ele>1679.5</ele>
        <time>2000-01-01T01:27:24.000Z</time>
      </trkpt>
      <trkpt lat="46.20382" lon="6.8217">
        <ele>1685</ele>
        <time>2000-01-01T01:27:34.000Z</time>
      </trkpt>
      <trkpt lat="46.20357" lon="6.82191">
        <ele>1689</ele>
        <time>2000-01-01T01:27:44.000Z</time>
      </trkpt>
      <trkpt lat="46.20346" lon="6.82196">
        <ele>1682.5</ele>
        <time>2000-01-01T01:27:54.000Z</time>
      </trkpt>
      <trkpt lat="46.2029" lon="6.82204">
        <ele>1704</ele>
        <time>2000-01-01T01:28:04.000Z</time>
      </trkpt>
      <trkpt lat="46.20284" lon="6.82208">
        <ele>1691.5</ele>
        <time>2000-01-01T01:28:14.000Z</time>
      </trkpt>
      <trkpt lat="46.20276" lon="6.82222">
        <ele>1701</ele>
        <time>2000-01-01T01:28:24.000Z</time>
      </trkpt>
      <trkpt lat="46.20275" lon="6.82272">
        <ele>1699</ele>
        <time>2000-01-01T01:28:34.000Z</time>
      </trkpt>
      <trkpt lat="46.20279" lon="6.82313">
        <ele>1699</ele>
        <time>2000-01-01T01:28:44.000Z</time>
      </trkpt>
      <trkpt lat="46.20278" lon="6.82351">
        <ele>1698</ele>
        <time>2000-01-01T01:28:54.000Z</time>
      </trkpt>
      <trkpt lat="46.20277" lon="6.82399">
        <ele>1698</ele>
        <time>2000-01-01T01:29:04.000Z</time>
      </trkpt>
      <trkpt lat="46.20278" lon="6.8241">
        <ele>1694</ele>
        <time>2000-01-01T01:29:14.000Z</time>
      </trkpt>
      <trkpt lat="46.20283" lon="6.82424">
        <ele>1694.5</ele>
        <time>2000-01-01T01:29:24.000Z</time>
      </trkpt>
      <trkpt lat="46.20297" lon="6.82436">
        <ele>1697</ele>
        <time>2000-01-01T01:29:34.000Z</time>
      </trkpt>
      <trkpt lat="46.20306" lon="6.82437">
        <ele>1695.1</ele>
        <time>2000-01-01T01:29:44.000Z</time>
      </trkpt>
      <trkpt lat="46.20333" lon="6.82433">
        <ele>1696</ele>
        <time>2000-01-01T01:29:54.000Z</time>
      </trkpt>
      <trkpt lat="46.20358" lon="6.82434">
        <ele>1696</ele>
        <time>2000-01-01T01:30:04.000Z</time>
      </trkpt>
      <trkpt lat="46.20365" lon="6.8243">
        <ele>1694.3</ele>
        <time>2000-01-01T01:30:14.000Z</time>
      </trkpt>
      <trkpt lat="46.20383" lon="6.82403">
        <ele>1693</ele>
        <time>2000-01-01T01:30:24.000Z</time>
      </trkpt>
      <trkpt lat="46.20392" lon="6.82394">
        <ele>1693.4</ele>
        <time>2000-01-01T01:30:34.000Z</time>
      </trkpt>
      <trkpt lat="46.2041" lon="6.82388">
        <ele>1693</ele>
        <time>2000-01-01T01:30:44.000Z</time>
      </trkpt>
      <trkpt lat="46.20417" lon="6.82383">
        <ele>1692.6</ele>
        <time>2000-01-01T01:30:54.000Z</time>
      </trkpt>
      <trkpt lat="46.2042" lon="6.82376">
        <ele>1691.9</ele>
        <time>2000-01-01T01:31:04.000Z</time>
      </trkpt>
      <trkpt lat="46.20422" lon="6.82356">
        <ele>1690</ele>
        <time>2000-01-01T01:31:14.000Z</time>
      </trkpt>
      <trkpt lat="46.20429" lon="6.82344">
        <ele>1688.7</ele>
        <time>2000-01-01T01:31:24.000Z</time>
      </trkpt>
      <trkpt lat="46.20441" lon="6.82337">
        <ele>1688</ele>
        <time>2000-01-01T01:31:34.000Z</time>
      </trkpt>
      <trkpt lat="46.20453" lon="6.82335">
        <ele>1688.1</ele>
        <time>2000-01-01T01:31:44.000Z</time>
      </trkpt>
      <trkpt lat="46.20486" lon="6.82333">
        <ele>1686</ele>
        <time>2000-01-01T01:31:54.000Z</time>
      </trkpt>
      <trkpt lat="46.20495" lon="6.82338">
        <ele>1685.4</ele>
        <time>2000-01-01T01:32:04.000Z</time>
      </trkpt>
      <trkpt lat="46.20507" lon="6.82339">
        <ele>1686</ele>
        <time>2000-01-01T01:32:14.000Z</time>
      </trkpt>
      <trkpt lat="46.2053" lon="6.8233">
        <ele>1682</ele>
        <time>2000-01-01T01:32:24.000Z</time>
      </trkpt>
      <trkpt lat="46.20552" lon="6.8232">
        <ele>1681</ele>
        <time>2000-01-01T01:32:34.000Z</time>
      </trkpt>
      <trkpt lat="46.20574" lon="6.82324">
        <ele>1679</ele>
        <time>2000-01-01T01:32:44.000Z</time>
      </trkpt>
      <trkpt lat="46.20593" lon="6.82322">
        <ele>1678</ele>
        <time>2000-01-01T01:32:54.000Z</time>
      </trkpt>
      <trkpt lat="46.20613" lon="6.82314">
        <ele>1673</ele>
        <time>2000-01-01T01:33:04.000Z</time>
      </trkpt>
      <trkpt lat="46.20635" lon="6.82327">
        <ele>1673</ele>
        <time>2000-01-01T01:33:14.000Z</time>
      </trkpt>
      <trkpt lat="46.20651" lon="6.82331">
        <ele>1670.3</ele>
        <time>2000-01-01T01:33:24.000Z</time>
      </trkpt>
      <trkpt lat="46.20684" lon="6.82352">
        <ele>1667</ele>
        <time>2000-01-01T01:33:34.000Z</time>
      </trkpt>
      <trkpt lat="46.20692" lon="6.82378">
        <ele>1664</ele>
        <time>2000-01-01T01:33:44.000Z</time>
      </trkpt>
      <trkpt lat="46.20678" lon="6.82412">
        <ele>1663</ele>
        <time>2000-01-01T01:33:54.000Z</time>
      </trkpt>
      <trkpt lat="46.20672" lon="6.82434">
        <ele>1658.7</ele>
        <time>2000-01-01T01:34:04.000Z</time>
      </trkpt>
      <trkpt lat="46.20674" lon="6.82475">
        <ele>1661</ele>
        <time>2000-01-01T01:34:14.000Z</time>
      </trkpt>
      <trkpt lat="46.2067" lon="6.82508">
        <ele>1661</ele>
        <time>2000-01-01T01:34:24.000Z</time>
      </trkpt>
      <trkpt lat="46.2066" lon="6.82547">
        <ele>1661</ele>
        <time>2000-01-01T01:34:34.000Z</time>
      </trkpt>
      <trkpt lat="46.20653" lon="6.82579">
        <ele>1664</ele>
        <time>2000-01-01T01:34:44.000Z</time>
      </trkpt>
      <trkpt lat="46.20645" lon="6.82612">
        <ele>1667</ele>
        <time>2000-01-01T01:34:54.000Z</time>
      </trkpt>
      <trkpt lat="46.20634" lon="6.82645">
        <ele>1669</ele>
        <time>2000-01-01T01:35:04.000Z</time>
      </trkpt>
      <trkpt lat="46.20622" lon="6.82685">
        <ele>1670</ele>
        <time>2000-01-01T01:35:14.000Z</time>
      </trkpt>
      <trkpt lat="46.20623" lon="6.82696">
        <ele>1643.9</ele>
        <time>2000-01-01T01:35:24.000Z</time>
      </trkpt>
      <trkpt lat="46.20629" lon="6.82706">
        <ele>1644.3</ele>
        <time>2000-01-01T01:35:34.000Z</time>
      </trkpt>
      <trkpt lat="46.20637" lon="6.82709">
        <ele>1664</ele>
        <time>2000-01-01T01:35:44.000Z</time>
      </trkpt>
      <trkpt lat="46.20663" lon="6.82695">
        <ele>1659</ele>
        <time>2000-01-01T01:35:54.000Z</time>
      </trkpt>
      <trkpt lat="46.20685" lon="6.8269">
        <ele>1653</ele>
        <time>2000-01-01T01:36:04.000Z</time>
      </trkpt>
      <trkpt lat="46.2072" lon="6.82699">
        <ele>1652</ele>
        <time>2000-01-01T01:36:14.000Z</time>
      </trkpt>
      <trkpt lat="46.20747" lon="6.82698">
        <ele>1651</ele>
        <time>2000-01-01T01:36:24.000Z</time>
      </trkpt>
      <trkpt lat="46.20771" lon="6.82706">
        <ele>1650</ele>
        <time>2000-01-01T01:36:34.000Z</time>
      </trkpt>
      <trkpt lat="46.20798" lon="6.82708">
        <ele>1647</ele>
        <time>2000-01-01T01:36:44.000Z</time>
      </trkpt>
      <trkpt lat="46.20821" lon="6.82716">
        <ele>1645</ele>
        <time>2000-01-01T01:36:54.000Z</time>
      </trkpt>
      <trkpt lat="46.20845" lon="6.82725">
        <ele>1645</ele>
        <time>2000-01-01T01:37:04.000Z</time>
      </trkpt>
      <trkpt lat="46.2088" lon="6.82755">
        <ele>1645</ele>
        <time>2000-01-01T01:37:14.000Z</time>
      </trkpt>
      <trkpt lat="46.20893" lon="6.82783">
        <ele>1647</ele>
        <time>2000-01-01T01:37:24.000Z</time>
      </trkpt>
      <trkpt lat="46.20896" lon="6.82819">
        <ele>1644</ele>
        <time>2000-01-01T01:37:34.000Z</time>
      </trkpt>
      <trkpt lat="46.20901" lon="6.82829">
        <ele>1637.3</ele>
        <time>2000-01-01T01:37:44.000Z</time>
      </trkpt>
      <trkpt lat="46.20911" lon="6.82842">
        <ele>1642</ele>
        <time>2000-01-01T01:37:54.000Z</time>
      </trkpt>
      <trkpt lat="46.20923" lon="6.82846">
        <ele>1630.1</ele>
        <time>2000-01-01T01:38:04.000Z</time>
      </trkpt>
      <trkpt lat="46.20927" lon="6.82852">
        <ele>1629.6</ele>
        <time>2000-01-01T01:38:14.000Z</time>
      </trkpt>
      <trkpt lat="46.20931" lon="6.82865">
        <ele>1643</ele>
        <time>2000-01-01T01:38:24.000Z</time>
      </trkpt>
      <trkpt lat="46.2093" lon="6.82908">
        <ele>1644</ele>
        <time>2000-01-01T01:38:34.000Z</time>
      </trkpt>
      <trkpt lat="46.20933" lon="6.82918">
        <ele>1629</ele>
        <time>2000-01-01T01:38:44.000Z</time>
      </trkpt>
      <trkpt lat="46.20941" lon="6.8293">
        <ele>1644</ele>
        <time>2000-01-01T01:38:54.000Z</time>
      </trkpt>
      <trkpt lat="46.20947" lon="6.82933">
        <ele>1624.6</ele>
        <time>2000-01-01T01:39:04.000Z</time>
      </trkpt>
      <trkpt lat="46.2096" lon="6.82929">
        <ele>1639</ele>
        <time>2000-01-01T01:39:14.000Z</time>
      </trkpt>
      <trkpt lat="46.20992" lon="6.82945">
        <ele>1629</ele>
        <time>2000-01-01T01:39:24.000Z</time>
      </trkpt>
      <trkpt lat="46.21025" lon="6.82948">
        <ele>1621</ele>
        <time>2000-01-01T01:39:34.000Z</time>
      </trkpt>
      <trkpt lat="46.21051" lon="6.82957">
        <ele>1616</ele>
        <time>2000-01-01T01:39:44.000Z</time>
      </trkpt>
      <trkpt lat="46.21073" lon="6.82977">
        <ele>1614</ele>
        <time>2000-01-01T01:39:54.000Z</time>
      </trkpt>
      <trkpt lat="46.21104" lon="6.83004">
        <ele>1618</ele>
        <time>2000-01-01T01:40:04.000Z</time>
      </trkpt>
      <trkpt lat="46.21086" lon="6.83058">
        <ele>1622</ele>
        <time>2000-01-01T01:40:14.000Z</time>
      </trkpt>
      <trkpt lat="46.21073" lon="6.83108">
        <ele>1631</ele>
        <time>2000-01-01T01:40:24.000Z</time>
      </trkpt>
      <trkpt lat="46.21065" lon="6.83167">
        <ele>1643</ele>
        <time>2000-01-01T01:40:34.000Z</time>
      </trkpt>
      <trkpt lat="46.21084" lon="6.83201">
        <ele>1637</ele>
        <time>2000-01-01T01:40:44.000Z</time>
      </trkpt>
      <trkpt lat="46.21123" lon="6.83203">
        <ele>1632</ele>
        <time>2000-01-01T01:40:54.000Z</time>
      </trkpt>
      <trkpt lat="46.21148" lon="6.83221">
        <ele>1633</ele>
        <time>2000-01-01T01:41:04.000Z</time>
      </trkpt>
      <trkpt lat="46.21157" lon="6.83266">
        <ele>1635</ele>
        <time>2000-01-01T01:41:14.000Z</time>
      </trkpt>
      <trkpt lat="46.21166" lon="6.83323">
        <ele>1638</ele>
        <time>2000-01-01T01:41:24.000Z</time>
      </trkpt>
      <trkpt lat="46.21166" lon="6.83375">
        <ele>1651</ele>
        <time>2000-01-01T01:41:34.000Z</time>
      </trkpt>
      <trkpt lat="46.21177" lon="6.83416">
        <ele>1652</ele>
        <time>2000-01-01T01:41:44.000Z</time>
      </trkpt>
      <trkpt lat="46.21202" lon="6.83444">
        <ele>1652</ele>
        <time>2000-01-01T01:41:54.000Z</time>
      </trkpt>
      <trkpt lat="46.21219" lon="6.83468">
        <ele>1652</ele>
        <time>2000-01-01T01:42:04.000Z</time>
      </trkpt>
      <trkpt lat="46.21236" lon="6.83509">
        <ele>1650</ele>
        <time>2000-01-01T01:42:14.000Z</time>
      </trkpt>
      <trkpt lat="46.21251" lon="6.83538">
        <ele>1650</ele>
        <time>2000-01-01T01:42:24.000Z</time>
      </trkpt>
      <trkpt lat="46.21259" lon="6.83568">
        <ele>1658</ele>
        <time>2000-01-01T01:42:34.000Z</time>
      </trkpt>
      <trkpt lat="46.21256" lon="6.83599">
        <ele>1666</ele>
        <time>2000-01-01T01:42:44.000Z</time>
      </trkpt>
      <trkpt lat="46.21253" lon="6.83624">
        <ele>1658.6</ele>
        <time>2000-01-01T01:42:54.000Z</time>
      </trkpt>
      <trkpt lat="46.21255" lon="6.83653">
        <ele>1669</ele>
        <time>2000-01-01T01:43:04.000Z</time>
      </trkpt>
      <trkpt lat="46.21269" lon="6.83659">
        <ele>1660.9</ele>
        <time>2000-01-01T01:43:14.000Z</time>
      </trkpt>
      <trkpt lat="46.21288" lon="6.8367">
        <ele>1669</ele>
        <time>2000-01-01T01:43:24.000Z</time>
      </trkpt>
      <trkpt lat="46.21302" lon="6.83693">
        <ele>1670</ele>
        <time>2000-01-01T01:43:34.000Z</time>
      </trkpt>
      <trkpt lat="46.21311" lon="6.83713">
        <ele>1664.4</ele>
        <time>2000-01-01T01:43:44.000Z</time>
      </trkpt>
      <trkpt lat="46.21324" lon="6.83737">
        <ele>1672</ele>
        <time>2000-01-01T01:43:54.000Z</time>
      </trkpt>
      <trkpt lat="46.21332" lon="6.83763">
        <ele>1674</ele>
        <time>2000-01-01T01:44:04.000Z</time>
      </trkpt>
      <trkpt lat="46.21345" lon="6.83796">
        <ele>1674</ele>
        <time>2000-01-01T01:44:14.000Z</time>
      </trkpt>
      <trkpt lat="46.21348" lon="6.8383">
        <ele>1676</ele>
        <time>2000-01-01T01:44:24.000Z</time>
      </trkpt>
      <trkpt lat="46.21344" lon="6.83872">
        <ele>1680</ele>
        <time>2000-01-01T01:44:34.000Z</time>
      </trkpt>
      <trkpt lat="46.21338" lon="6.83917">
        <ele>1684</ele>
        <time>2000-01-01T01:44:44.000Z</time>
      </trkpt>
      <trkpt lat="46.21338" lon="6.8396">
        <ele>1684</ele>
        <time>2000-01-01T01:44:54.000Z</time>
      </trkpt>
      <trkpt lat="46.21365" lon="6.8398">
        <ele>1684</ele>
        <time>2000-01-01T01:45:04.000Z</time>
      </trkpt>
      <trkpt lat="46.21399" lon="6.83974">
        <ele>1682</ele>
        <time>2000-01-01T01:45:14.000Z</time>
      </trkpt>
      <trkpt lat="46.21422" lon="6.83965">
        <ele>1678</ele>
        <time>2000-01-01T01:45:24.000Z</time>
      </trkpt>
      <trkpt lat="46.21448" lon="6.83955">
        <ele>1677</ele>
        <time>2000-01-01T01:45:34.000Z</time>
      </trkpt>
      <trkpt lat="46.21475" lon="6.83987">
        <ele>1677</ele>
        <time>2000-01-01T01:45:44.000Z</time>
      </trkpt>
      <trkpt lat="46.21503" lon="6.84019">
        <ele>1677</ele>
        <time>2000-01-01T01:45:54.000Z</time>
      </trkpt>
      <trkpt lat="46.21545" lon="6.84035">
        <ele>1675</ele>
        <time>2000-01-01T01:46:04.000Z</time>
      </trkpt>
      <trkpt lat="46.21568" lon="6.84069">
        <ele>1673</ele>
        <time>2000-01-01T01:46:14.000Z</time>
      </trkpt>
      <trkpt lat="46.21597" lon="6.84105">
        <ele>1673</ele>
        <time>2000-01-01T01:46:24.000Z</time>
      </trkpt>
      <trkpt lat="46.21633" lon="6.84141">
        <ele>1668</ele>
        <time>2000-01-01T01:46:34.000Z</time>
      </trkpt>
      <trkpt lat="46.21659" lon="6.84125">
        <ele>1664</ele>
        <time>2000-01-01T01:46:44.000Z</time>
      </trkpt>
      <trkpt lat="46.21699" lon="6.84152">
        <ele>1661</ele>
        <time>2000-01-01T01:46:54.000Z</time>
      </trkpt>
      <trkpt lat="46.21721" lon="6.84168">
        <ele>1659</ele>
        <time>2000-01-01T01:47:04.000Z</time>
      </trkpt>
      <trkpt lat="46.21749" lon="6.84188">
        <ele>1659</ele>
        <time>2000-01-01T01:47:14.000Z</time>
      </trkpt>
      <trkpt lat="46.21773" lon="6.84205">
        <ele>1659</ele>
        <time>2000-01-01T01:47:24.000Z</time>
      </trkpt>
      <trkpt lat="46.21808" lon="6.8423">
        <ele>1658</ele>
        <time>2000-01-01T01:47:34.000Z</time>
      </trkpt>
      <trkpt lat="46.21831" lon="6.84246">
        <ele>1659</ele>
        <time>2000-01-01T01:47:44.000Z</time>
      </trkpt>
      <trkpt lat="46.21852" lon="6.84288">
        <ele>1658</ele>
        <time>2000-01-01T01:47:54.000Z</time>
      </trkpt>
      <trkpt lat="46.21893" lon="6.84305">
        <ele>1658</ele>
        <time>2000-01-01T01:48:04.000Z</time>
      </trkpt>
      <trkpt lat="46.21917" lon="6.84315">
        <ele>1655</ele>
        <time>2000-01-01T01:48:14.000Z</time>
      </trkpt>
      <trkpt lat="46.21945" lon="6.84327">
        <ele>1651</ele>
        <time>2000-01-01T01:48:24.000Z</time>
      </trkpt>
      <trkpt lat="46.21968" lon="6.84333">
        <ele>1648</ele>
        <time>2000-01-01T01:48:34.000Z</time>
      </trkpt>
      <trkpt lat="46.21992" lon="6.84339">
        <ele>1651</ele>
        <time>2000-01-01T01:48:44.000Z</time>
      </trkpt>
      <trkpt lat="46.22019" lon="6.84391">
        <ele>1650</ele>
        <time>2000-01-01T01:48:54.000Z</time>
      </trkpt>
      <trkpt lat="46.22041" lon="6.84406">
        <ele>1650</ele>
        <time>2000-01-01T01:49:04.000Z</time>
      </trkpt>
      <trkpt lat="46.22066" lon="6.84423">
        <ele>1650</ele>
        <time>2000-01-01T01:49:14.000Z</time>
      </trkpt>
      <trkpt lat="46.22088" lon="6.84438">
        <ele>1649</ele>
        <time>2000-01-01T01:49:24.000Z</time>
      </trkpt>
      <trkpt lat="46.22113" lon="6.84454">
        <ele>1649</ele>
        <time>2000-01-01T01:49:34.000Z</time>
      </trkpt>
      <trkpt lat="46.22139" lon="6.84465">
        <ele>1646</ele>
        <time>2000-01-01T01:49:44.000Z</time>
      </trkpt>
      <trkpt lat="46.22175" lon="6.84479">
        <ele>1651</ele>
        <time>2000-01-01T01:49:54.000Z</time>
      </trkpt>
      <trkpt lat="46.22198" lon="6.84527">
        <ele>1652</ele>
        <time>2000-01-01T01:50:04.000Z</time>
      </trkpt>
      <trkpt lat="46.22228" lon="6.8455">
        <ele>1654</ele>
        <time>2000-01-01T01:50:14.000Z</time>
      </trkpt>
      <trkpt lat="46.22259" lon="6.84572">
        <ele>1650</ele>
        <time>2000-01-01T01:50:24.000Z</time>
      </trkpt>
      <trkpt lat="46.22314" lon="6.84613">
        <ele>1651</ele>
        <time>2000-01-01T01:50:34.000Z</time>
      </trkpt>
      <trkpt lat="46.2233" lon="6.84644">
        <ele>1652</ele>
        <time>2000-01-01T01:50:44.000Z</time>
      </trkpt>
      <trkpt lat="46.22352" lon="6.84687">
        <ele>1652</ele>
        <time>2000-01-01T01:50:54.000Z</time>
      </trkpt>
      <trkpt lat="46.22376" lon="6.84697">
        <ele>1651</ele>
        <time>2000-01-01T01:51:04.000Z</time>
      </trkpt>
      <trkpt lat="46.22405" lon="6.84708">
        <ele>1651</ele>
        <time>2000-01-01T01:51:14.000Z</time>
      </trkpt>
      <trkpt lat="46.22446" lon="6.84733">
        <ele>1652</ele>
        <time>2000-01-01T01:51:24.000Z</time>
      </trkpt>
      <trkpt lat="46.22454" lon="6.84772">
        <ele>1658</ele>
        <time>2000-01-01T01:51:34.000Z</time>
      </trkpt>
      <trkpt lat="46.22466" lon="6.84832">
        <ele>1665</ele>
        <time>2000-01-01T01:51:44.000Z</time>
      </trkpt>
      <trkpt lat="46.22485" lon="6.84857">
        <ele>1666</ele>
        <time>2000-01-01T01:51:54.000Z</time>
      </trkpt>
      <trkpt lat="46.22507" lon="6.84886">
        <ele>1667</ele>
        <time>2000-01-01T01:52:04.000Z</time>
      </trkpt>
      <trkpt lat="46.22528" lon="6.84914">
        <ele>1667</ele>
        <time>2000-01-01T01:52:14.000Z</time>
      </trkpt>
      <trkpt lat="46.22561" lon="6.84957">
        <ele>1668</ele>
        <time>2000-01-01T01:52:24.000Z</time>
      </trkpt>
      <trkpt lat="46.22578" lon="6.84981">
        <ele>1671</ele>
        <time>2000-01-01T01:52:34.000Z</time>
      </trkpt>
      <trkpt lat="46.22595" lon="6.85006">
        <ele>1671</ele>
        <time>2000-01-01T01:52:44.000Z</time>
      </trkpt>
      <trkpt lat="46.22627" lon="6.85052">
        <ele>1679</ele>
        <time>2000-01-01T01:52:54.000Z</time>
      </trkpt>
      <trkpt lat="46.22648" lon="6.85086">
        <ele>1680</ele>
        <time>2000-01-01T01:53:04.000Z</time>
      </trkpt>
      <trkpt lat="46.22668" lon="6.85121">
        <ele>1685</ele>
        <time>2000-01-01T01:53:14.000Z</time>
      </trkpt>
      <trkpt lat="46.2269" lon="6.85156">
        <ele>1685</ele>
        <time>2000-01-01T01:53:24.000Z</time>
      </trkpt>
      <trkpt lat="46.22726" lon="6.85194">
        <ele>1685</ele>
        <time>2000-01-01T01:53:34.000Z</time>
      </trkpt>
      <trkpt lat="46.22746" lon="6.85215">
        <ele>1685</ele>
        <time>2000-01-01T01:53:44.000Z</time>
      </trkpt>
      <trkpt lat="46.22768" lon="6.85238">
        <ele>1686</ele>
        <time>2000-01-01T01:53:54.000Z</time>
      </trkpt>
      <trkpt lat="46.2277" lon="6.85276">
        <ele>1688</ele>
        <time>2000-01-01T01:54:04.000Z</time>
      </trkpt>
      <trkpt lat="46.22772" lon="6.85328">
        <ele>1684</ele>
        <time>2000-01-01T01:54:14.000Z</time>
      </trkpt>
      <trkpt lat="46.22785" lon="6.8536">
        <ele>1685</ele>
        <time>2000-01-01T01:54:24.000Z</time>
      </trkpt>
      <trkpt lat="46.22803" lon="6.85401">
        <ele>1687</ele>
        <time>2000-01-01T01:54:34.000Z</time>
      </trkpt>
      <trkpt lat="46.22825" lon="6.85428">
        <ele>1681</ele>
        <time>2000-01-01T01:54:44.000Z</time>
      </trkpt>
      <trkpt lat="46.22862" lon="6.85473">
        <ele>1675</ele>
        <time>2000-01-01T01:54:54.000Z</time>
      </trkpt>
      <trkpt lat="46.22883" lon="6.85502">
        <ele>1681</ele>
        <time>2000-01-01T01:55:04.000Z</time>
      </trkpt>
      <trkpt lat="46.22915" lon="6.85546">
        <ele>1688</ele>
        <time>2000-01-01T01:55:14.000Z</time>
      </trkpt>
      <trkpt lat="46.22924" lon="6.85603">
        <ele>1689</ele>
        <time>2000-01-01T01:55:24.000Z</time>
      </trkpt>
      <trkpt lat="46.22898" lon="6.8564">
        <ele>1693</ele>
        <time>2000-01-01T01:55:34.000Z</time>
      </trkpt>
      <trkpt lat="46.22858" lon="6.85645">
        <ele>1703</ele>
        <time>2000-01-01T01:55:44.000Z</time>
      </trkpt>
      <trkpt lat="46.2283" lon="6.85648">
        <ele>1703</ele>
        <time>2000-01-01T01:55:54.000Z</time>
      </trkpt>
      <trkpt lat="46.22822" lon="6.85681">
        <ele>1703</ele>
        <time>2000-01-01T01:56:04.000Z</time>
      </trkpt>
      <trkpt lat="46.22814" lon="6.85721">
        <ele>1703</ele>
        <time>2000-01-01T01:56:14.000Z</time>
      </trkpt>
      <trkpt lat="46.2279" lon="6.85753">
        <ele>1706</ele>
        <time>2000-01-01T01:56:24.000Z</time>
      </trkpt>
      <trkpt lat="46.2277" lon="6.8578">
        <ele>1706</ele>
        <time>2000-01-01T01:56:34.000Z</time>
      </trkpt>
      <trkpt lat="46.22784" lon="6.85839">
        <ele>1708</ele>
        <time>2000-01-01T01:56:44.000Z</time>
      </trkpt>
      <trkpt lat="46.22798" lon="6.85902">
        <ele>1708</ele>
        <time>2000-01-01T01:56:54.000Z</time>
      </trkpt>
      <trkpt lat="46.22798" lon="6.8594">
        <ele>1708</ele>
        <time>2000-01-01T01:57:04.000Z</time>
      </trkpt>
      <trkpt lat="46.2278" lon="6.85995">
        <ele>1708</ele>
        <time>2000-01-01T01:57:14.000Z</time>
      </trkpt>
      <trkpt lat="46.22785" lon="6.86028">
        <ele>1708</ele>
        <time>2000-01-01T01:57:24.000Z</time>
      </trkpt>
      <trkpt lat="46.22811" lon="6.86069">
        <ele>1704</ele>
        <time>2000-01-01T01:57:34.000Z</time>
      </trkpt>
      <trkpt lat="46.22808" lon="6.86106">
        <ele>1701</ele>
        <time>2000-01-01T01:57:44.000Z</time>
      </trkpt>
      <trkpt lat="46.22804" lon="6.86151">
        <ele>1701</ele>
        <time>2000-01-01T01:57:54.000Z</time>
      </trkpt>
      <trkpt lat="46.22791" lon="6.86214">
        <ele>1703</ele>
        <time>2000-01-01T01:58:04.000Z</time>
      </trkpt>
      <trkpt lat="46.22798" lon="6.86251">
        <ele>1702</ele>
        <time>2000-01-01T01:58:14.000Z</time>
      </trkpt>
      <trkpt lat="46.22807" lon="6.863">
        <ele>1701</ele>
        <time>2000-01-01T01:58:24.000Z</time>
      </trkpt>
      <trkpt lat="46.22839" lon="6.86337">
        <ele>1693</ele>
        <time>2000-01-01T01:58:34.000Z</time>
      </trkpt>
      <trkpt lat="46.22882" lon="6.86345">
        <ele>1691</ele>
        <time>2000-01-01T01:58:44.000Z</time>
      </trkpt>
      <trkpt lat="46.22909" lon="6.86346">
        <ele>1691</ele>
        <time>2000-01-01T01:58:54.000Z</time>
      </trkpt>
      <trkpt lat="46.22944" lon="6.86348">
        <ele>1686</ele>
        <time>2000-01-01T01:59:04.000Z</time>
      </trkpt>
      <trkpt lat="46.2297" lon="6.86361">
        <ele>1685</ele>
        <time>2000-01-01T01:59:14.000Z</time>
      </trkpt>
      <trkpt lat="46.23007" lon="6.86379">
        <ele>1681</ele>
        <time>2000-01-01T01:59:24.000Z</time>
      </trkpt>
      <trkpt lat="46.23029" lon="6.86403">
        <ele>1681</ele>
        <time>2000-01-01T01:59:34.000Z</time>
      </trkpt>
      <trkpt lat="46.23062" lon="6.86436">
        <ele>1677</ele>
        <time>2000-01-01T01:59:44.000Z</time>
      </trkpt>
      <trkpt lat="46.23073" lon="6.86474">
        <ele>1674</ele>
        <time>2000-01-01T01:59:54.000Z</time>
      </trkpt>
      <trkpt lat="46.23092" lon="6.86533">
        <ele>1676</ele>
        <time>2000-01-01T02:00:04.000Z</time>
      </trkpt>
      <trkpt lat="46.23081" lon="6.86564">
        <ele>1679</ele>
        <time>2000-01-01T02:00:14.000Z</time>
      </trkpt>
      <trkpt lat="46.23071" lon="6.86595">
        <ele>1681</ele>
        <time>2000-01-01T02:00:24.000Z</time>
      </trkpt>
      <trkpt lat="46.23062" lon="6.86649">
        <ele>1683</ele>
        <time>2000-01-01T02:00:34.000Z</time>
      </trkpt>
      <trkpt lat="46.23049" lon="6.86696">
        <ele>1676</ele>
        <time>2000-01-01T02:00:44.000Z</time>
      </trkpt>
      <trkpt lat="46.23053" lon="6.86744">
        <ele>1669</ele>
        <time>2000-01-01T02:00:54.000Z</time>
      </trkpt>
      <trkpt lat="46.23049" lon="6.86789">
        <ele>1667</ele>
        <time>2000-01-01T02:01:04.000Z</time>
      </trkpt>
      <trkpt lat="46.23038" lon="6.86832">
        <ele>1666</ele>
        <time>2000-01-01T02:01:14.000Z</time>
      </trkpt>
      <trkpt lat="46.2302" lon="6.86866">
        <ele>1668</ele>
        <time>2000-01-01T02:01:24.000Z</time>
      </trkpt>
      <trkpt lat="46.22999" lon="6.86891">
        <ele>1667</ele>
        <time>2000-01-01T02:01:34.000Z</time>
      </trkpt>
      <trkpt lat="46.23009" lon="6.86934">
        <ele>1667</ele>
        <time>2000-01-01T02:01:44.000Z</time>
      </trkpt>
      <trkpt lat="46.23042" lon="6.86975">
        <ele>1666</ele>
        <time>2000-01-01T02:01:54.000Z</time>
      </trkpt>
      <trkpt lat="46.23073" lon="6.87009">
        <ele>1663</ele>
        <time>2000-01-01T02:02:04.000Z</time>
      </trkpt>
      <trkpt lat="46.23103" lon="6.87039">
        <ele>1662</ele>
        <time>2000-01-01T02:02:14.000Z</time>
      </trkpt>
      <trkpt lat="46.23118" lon="6.8708">
        <ele>1661</ele>
        <time>2000-01-01T02:02:24.000Z</time>
      </trkpt>
      <trkpt lat="46.2312" lon="6.87121">
        <ele>1658</ele>
        <time>2000-01-01T02:02:34.000Z</time>
      </trkpt>
      <trkpt lat="46.23103" lon="6.87173">
        <ele>1658</ele>
        <time>2000-01-01T02:02:44.000Z</time>
      </trkpt>
      <trkpt lat="46.23098" lon="6.87218">
        <ele>1655</ele>
        <time>2000-01-01T02:02:54.000Z</time>
      </trkpt>
      <trkpt lat="46.23086" lon="6.87268">
        <ele>1654</ele>
        <time>2000-01-01T02:03:04.000Z</time>
      </trkpt>
      <trkpt lat="46.2307" lon="6.87318">
        <ele>1649</ele>
        <time>2000-01-01T02:03:14.000Z</time>
      </trkpt>
      <trkpt lat="46.23053" lon="6.87354">
        <ele>1650</ele>
        <time>2000-01-01T02:03:24.000Z</time>
      </trkpt>
      <trkpt lat="46.23024" lon="6.87388">
        <ele>1650</ele>
        <time>2000-01-01T02:03:34.000Z</time>
      </trkpt>
      <trkpt lat="46.22993" lon="6.87424">
        <ele>1651</ele>
        <time>2000-01-01T02:03:44.000Z</time>
      </trkpt>
      <trkpt lat="46.22966" lon="6.87461">
        <ele>1649</ele>
        <time>2000-01-01T02:03:54.000Z</time>
      </trkpt>
      <trkpt lat="46.22934" lon="6.87492">
        <ele>1647</ele>
        <time>2000-01-01T02:04:04.000Z</time>
      </trkpt>
      <trkpt lat="46.22898" lon="6.87522">
        <ele>1646</ele>
        <time>2000-01-01T02:04:14.000Z</time>
      </trkpt>
      <trkpt lat="46.22872" lon="6.87525">
        <ele>1643</ele>
        <time>2000-01-01T02:04:24.000Z</time>
      </trkpt>
      <trkpt lat="46.22842" lon="6.87517">
        <ele>1641</ele>
        <time>2000-01-01T02:04:34.000Z</time>
      </trkpt>
      <trkpt lat="46.22809" lon="6.87511">
        <ele>1637</ele>
        <time>2000-01-01T02:04:44.000Z</time>
      </trkpt>
      <trkpt lat="46.22781" lon="6.87508">
        <ele>1635</ele>
        <time>2000-01-01T02:04:54.000Z</time>
      </trkpt>
      <trkpt lat="46.2275" lon="6.87522">
        <ele>1630</ele>
        <time>2000-01-01T02:05:04.000Z</time>
      </trkpt>
      <trkpt lat="46.22736" lon="6.87542">
        <ele>1626</ele>
        <time>2000-01-01T02:05:14.000Z</time>
      </trkpt>
      <trkpt lat="46.2272" lon="6.87544">
        <ele>1622.8</ele>
        <time>2000-01-01T02:05:24.000Z</time>
      </trkpt>
      <trkpt lat="46.22706" lon="6.87546">
        <ele>1619</ele>
        <time>2000-01-01T02:05:34.000Z</time>
      </trkpt>
      <trkpt lat="46.22692" lon="6.87548">
        <ele>1617.8</ele>
        <time>2000-01-01T02:05:44.000Z</time>
      </trkpt>
      <trkpt lat="46.22678" lon="6.8755">
        <ele>1617</ele>
        <time>2000-01-01T02:05:54.000Z</time>
      </trkpt>
      <trkpt lat="46.22661" lon="6.87529">
        <ele>1615</ele>
        <time>2000-01-01T02:06:04.000Z</time>
      </trkpt>
      <trkpt lat="46.22647" lon="6.87511">
        <ele>1614</ele>
        <time>2000-01-01T02:06:14.000Z</time>
      </trkpt>
      <trkpt lat="46.2263" lon="6.8751">
        <ele>1606.6</ele>
        <time>2000-01-01T02:06:24.000Z</time>
      </trkpt>
      <trkpt lat="46.22609" lon="6.87494">
        <ele>1610</ele>
        <time>2000-01-01T02:06:34.000Z</time>
      </trkpt>
      <trkpt lat="46.22579" lon="6.87491">
        <ele>1607</ele>
        <time>2000-01-01T02:06:44.000Z</time>
      </trkpt>
      <trkpt lat="46.2256" lon="6.87501">
        <ele>1607</ele>
        <time>2000-01-01T02:06:54.000Z</time>
      </trkpt>
      <trkpt lat="46.22541" lon="6.87485">
        <ele>1608</ele>
        <time>2000-01-01T02:07:04.000Z</time>
      </trkpt>
      <trkpt lat="46.22517" lon="6.87471">
        <ele>1609</ele>
        <time>2000-01-01T02:07:14.000Z</time>
      </trkpt>
      <trkpt lat="46.22486" lon="6.87451">
        <ele>1613</ele>
        <time>2000-01-01T02:07:24.000Z</time>
      </trkpt>
      <trkpt lat="46.22461" lon="6.8743">
        <ele>1622</ele>
        <time>2000-01-01T02:07:34.000Z</time>
      </trkpt>
      <trkpt lat="46.22443" lon="6.87409">
        <ele>1626</ele>
        <time>2000-01-01T02:07:44.000Z</time>
      </trkpt>
      <trkpt lat="46.22421" lon="6.87381">
        <ele>1626</ele>
        <time>2000-01-01T02:07:54.000Z</time>
      </trkpt>
      <trkpt lat="46.22405" lon="6.87357">
        <ele>1630</ele>
        <time>2000-01-01T02:08:04.000Z</time>
      </trkpt>
      <trkpt lat="46.22387" lon="6.87334">
        <ele>1631</ele>
        <time>2000-01-01T02:08:14.000Z</time>
      </trkpt>
      <trkpt lat="46.22374" lon="6.8731">
        <ele>1633</ele>
        <time>2000-01-01T02:08:24.000Z</time>
      </trkpt>
      <trkpt lat="46.22369" lon="6.87276">
        <ele>1634</ele>
        <time>2000-01-01T02:08:34.000Z</time>
      </trkpt>
      <trkpt lat="46.22365" lon="6.87241">
        <ele>1637</ele>
        <time>2000-01-01T02:08:44.000Z</time>
      </trkpt>
      <trkpt lat="46.22362" lon="6.87207">
        <ele>1636</ele>
        <time>2000-01-01T02:08:54.000Z</time>
      </trkpt>
      <trkpt lat="46.22357" lon="6.87172">
        <ele>1636</ele>
        <time>2000-01-01T02:09:04.000Z</time>
      </trkpt>
      <trkpt lat="46.22352" lon="6.8713">
        <ele>1636</ele>
        <time>2000-01-01T02:09:14.000Z</time>
      </trkpt>
      <trkpt lat="46.22346" lon="6.87084">
        <ele>1636</ele>
        <time>2000-01-01T02:09:24.000Z</time>
      </trkpt>
      <trkpt lat="46.22343" lon="6.87042">
        <ele>1640</ele>
        <time>2000-01-01T02:09:34.000Z</time>
      </trkpt>
      <trkpt lat="46.22368" lon="6.87012">
        <ele>1647</ele>
        <time>2000-01-01T02:09:44.000Z</time>
      </trkpt>
      <trkpt lat="46.22382" lon="6.86983">
        <ele>1652</ele>
        <time>2000-01-01T02:09:54.000Z</time>
      </trkpt>
      <trkpt lat="46.2237" lon="6.86954">
        <ele>1652</ele>
        <time>2000-01-01T02:10:04.000Z</time>
      </trkpt>
      <trkpt lat="46.22333" lon="6.86937">
        <ele>1653</ele>
        <time>2000-01-01T02:10:14.000Z</time>
      </trkpt>
      <trkpt lat="46.22315" lon="6.86879">
        <ele>1660</ele>
        <time>2000-01-01T02:10:24.000Z</time>
      </trkpt>
      <trkpt lat="46.22305" lon="6.86819">
        <ele>1668</ele>
        <time>2000-01-01T02:10:34.000Z</time>
      </trkpt>
      <trkpt lat="46.22299" lon="6.8676">
        <ele>1674</ele>
        <time>2000-01-01T02:10:44.000Z</time>
      </trkpt>
      <trkpt lat="46.22288" lon="6.86696">
        <ele>1679</ele>
        <time>2000-01-01T02:10:54.000Z</time>
      </trkpt>
      <trkpt lat="46.22271" lon="6.86653">
        <ele>1680</ele>
        <time>2000-01-01T02:11:04.000Z</time>
      </trkpt>
      <trkpt lat="46.22263" lon="6.86594">
        <ele>1684</ele>
        <time>2000-01-01T02:11:14.000Z</time>
      </trkpt>
      <trkpt lat="46.22271" lon="6.86551">
        <ele>1693</ele>
        <time>2000-01-01T02:11:24.000Z</time>
      </trkpt>
      <trkpt lat="46.22271" lon="6.86502">
        <ele>1698</ele>
        <time>2000-01-01T02:11:34.000Z</time>
      </trkpt>
      <trkpt lat="46.22246" lon="6.86449">
        <ele>1701</ele>
        <time>2000-01-01T02:11:44.000Z</time>
      </trkpt>
      <trkpt lat="46.22221" lon="6.86406">
        <ele>1706</ele>
        <time>2000-01-01T02:11:54.000Z</time>
      </trkpt>
      <trkpt lat="46.22211" lon="6.86366">
        <ele>1709</ele>
        <time>2000-01-01T02:12:04.000Z</time>
      </trkpt>
      <trkpt lat="46.22192" lon="6.86354">
        <ele>1709</ele>
        <time>2000-01-01T02:12:14.000Z</time>
      </trkpt>
      <trkpt lat="46.22158" lon="6.86341">
        <ele>1710</ele>
        <time>2000-01-01T02:12:24.000Z</time>
      </trkpt>
      <trkpt lat="46.22134" lon="6.86327">
        <ele>1711</ele>
        <time>2000-01-01T02:12:34.000Z</time>
      </trkpt>
      <trkpt lat="46.22109" lon="6.86307">
        <ele>1711</ele>
        <time>2000-01-01T02:12:44.000Z</time>
      </trkpt>
      <trkpt lat="46.221" lon="6.86266">
        <ele>1720</ele>
        <time>2000-01-01T02:12:54.000Z</time>
      </trkpt>
      <trkpt lat="46.22086" lon="6.86205">
        <ele>1723</ele>
        <time>2000-01-01T02:13:04.000Z</time>
      </trkpt>
      <trkpt lat="46.22077" lon="6.86152">
        <ele>1727</ele>
        <time>2000-01-01T02:13:14.000Z</time>
      </trkpt>
      <trkpt lat="46.22073" lon="6.86107">
        <ele>1732</ele>
        <time>2000-01-01T02:13:24.000Z</time>
      </trkpt>
      <trkpt lat="46.2206" lon="6.86064">
        <ele>1733</ele>
        <time>2000-01-01T02:13:34.000Z</time>
      </trkpt>
      <trkpt lat="46.22033" lon="6.8603">
        <ele>1733</ele>
        <time>2000-01-01T02:13:44.000Z</time>
      </trkpt>
      <trkpt lat="46.22018" lon="6.86001">
        <ele>1734</ele>
        <time>2000-01-01T02:13:54.000Z</time>
      </trkpt>
      <trkpt lat="46.22007" lon="6.85962">
        <ele>1737</ele>
        <time>2000-01-01T02:14:04.000Z</time>
      </trkpt>
      <trkpt lat="46.21977" lon="6.85946">
        <ele>1738</ele>
        <time>2000-01-01T02:14:14.000Z</time>
      </trkpt>
      <trkpt lat="46.2195" lon="6.85928">
        <ele>1737</ele>
        <time>2000-01-01T02:14:24.000Z</time>
      </trkpt>
      <trkpt lat="46.21922" lon="6.85935">
        <ele>1737</ele>
        <time>2000-01-01T02:14:34.000Z</time>
      </trkpt>
      <trkpt lat="46.21877" lon="6.85944">
        <ele>1737</ele>
        <time>2000-01-01T02:14:44.000Z</time>
      </trkpt>
      <trkpt lat="46.21852" lon="6.85948">
        <ele>1738</ele>
        <time>2000-01-01T02:14:54.000Z</time>
      </trkpt>
      <trkpt lat="46.21824" lon="6.85953">
        <ele>1739</ele>
        <time>2000-01-01T02:15:04.000Z</time>
      </trkpt>
      <trkpt lat="46.21799" lon="6.85968">
        <ele>1739</ele>
        <time>2000-01-01T02:15:14.000Z</time>
      </trkpt>
      <trkpt lat="46.21788" lon="6.85983">
        <ele>1736</ele>
        <time>2000-01-01T02:15:24.000Z</time>
      </trkpt>
      <trkpt lat="46.21781" lon="6.85994">
        <ele>1738</ele>
        <time>2000-01-01T02:15:34.000Z</time>
      </trkpt>
      <trkpt lat="46.21773" lon="6.8603">
        <ele>1737</ele>
        <time>2000-01-01T02:15:44.000Z</time>
      </trkpt>
      <trkpt lat="46.21769" lon="6.86039">
        <ele>1736.5</ele>
        <time>2000-01-01T02:15:54.000Z</time>
      </trkpt>
      <trkpt lat="46.21747" lon="6.86062">
        <ele>1736</ele>
        <time>2000-01-01T02:16:04.000Z</time>
      </trkpt>
      <trkpt lat="46.21729" lon="6.8609">
        <ele>1735</ele>
        <time>2000-01-01T02:16:14.000Z</time>
      </trkpt>
      <trkpt lat="46.21704" lon="6.86126">
        <ele>1735</ele>
        <time>2000-01-01T02:16:24.000Z</time>
      </trkpt>
      <trkpt lat="46.21669" lon="6.86088">
        <ele>1736</ele>
        <time>2000-01-01T02:16:34.000Z</time>
      </trkpt>
      <trkpt lat="46.21647" lon="6.86071">
        <ele>1736</ele>
        <time>2000-01-01T02:16:44.000Z</time>
      </trkpt>
      <trkpt lat="46.21636" lon="6.86055">
        <ele>1738.4</ele>
        <time>2000-01-01T02:16:54.000Z</time>
      </trkpt>
      <trkpt lat="46.21575" lon="6.85957">
        <ele>1747</ele>
        <time>2000-01-01T02:17:04.000Z</time>
      </trkpt>
      <trkpt lat="46.21552" lon="6.85924">
        <ele>1748</ele>
        <time>2000-01-01T02:17:14.000Z</time>
      </trkpt>
      <trkpt lat="46.2154" lon="6.85878">
        <ele>1751</ele>
        <time>2000-01-01T02:17:24.000Z</time>
      </trkpt>
      <trkpt lat="46.21522" lon="6.85836">
        <ele>1751</ele>
        <time>2000-01-01T02:17:34.000Z</time>
      </trkpt>
      <trkpt lat="46.21499" lon="6.85802">
        <ele>1752</ele>
        <time>2000-01-01T02:17:44.000Z</time>
      </trkpt>
      <trkpt lat="46.21477" lon="6.85768">
        <ele>1752</ele>
        <time>2000-01-01T02:17:54.000Z</time>
      </trkpt>
      <trkpt lat="46.21447" lon="6.85724">
        <ele>1753</ele>
        <time>2000-01-01T02:18:04.000Z</time>
      </trkpt>
      <trkpt lat="46.21416" lon="6.85682">
        <ele>1753</ele>
        <time>2000-01-01T02:18:14.000Z</time>
      </trkpt>
      <trkpt lat="46.21392" lon="6.85661">
        <ele>1752</ele>
        <time>2000-01-01T02:18:24.000Z</time>
      </trkpt>
      <trkpt lat="46.21356" lon="6.8563">
        <ele>1751</ele>
        <time>2000-01-01T02:18:34.000Z</time>
      </trkpt>
      <trkpt lat="46.21328" lon="6.85582">
        <ele>1751</ele>
        <time>2000-01-01T02:18:44.000Z</time>
      </trkpt>
      <trkpt lat="46.21306" lon="6.85564">
        <ele>1748</ele>
        <time>2000-01-01T02:18:54.000Z</time>
      </trkpt>
      <trkpt lat="46.21283" lon="6.85544">
        <ele>1748</ele>
        <time>2000-01-01T02:19:04.000Z</time>
      </trkpt>
      <trkpt lat="46.21275" lon="6.85535">
        <ele>1749</ele>
        <time>2000-01-01T02:19:14.000Z</time>
      </trkpt>
      <trkpt lat="46.21265" lon="6.85513">
        <ele>1749</ele>
        <time>2000-01-01T02:19:24.000Z</time>
      </trkpt>
      <trkpt lat="46.21249" lon="6.85488">
        <ele>1749</ele>
        <time>2000-01-01T02:19:34.000Z</time>
      </trkpt>
      <trkpt lat="46.21231" lon="6.85462">
        <ele>1748</ele>
        <time>2000-01-01T02:19:44.000Z</time>
      </trkpt>
      <trkpt lat="46.21207" lon="6.85442">
        <ele>1747</ele>
        <time>2000-01-01T02:19:54.000Z</time>
      </trkpt>
      <trkpt lat="46.21196" lon="6.85426">
        <ele>1747.5</ele>
        <time>2000-01-01T02:20:04.000Z</time>
      </trkpt>
      <trkpt lat="46.21176" lon="6.85418">
        <ele>1747</ele>
        <time>2000-01-01T02:20:14.000Z</time>
      </trkpt>
      <trkpt lat="46.21161" lon="6.85404">
        <ele>1740.3</ele>
        <time>2000-01-01T02:20:24.000Z</time>
      </trkpt>
      <trkpt lat="46.21147" lon="6.85382">
        <ele>1743</ele>
        <time>2000-01-01T02:20:34.000Z</time>
      </trkpt>
      <trkpt lat="46.21129" lon="6.85364">
        <ele>1743</ele>
        <time>2000-01-01T02:20:44.000Z</time>
      </trkpt>
      <trkpt lat="46.21124" lon="6.85355">
        <ele>1735.4</ele>
        <time>2000-01-01T02:20:54.000Z</time>
      </trkpt>
      <trkpt lat="46.21118" lon="6.85335">
        <ele>1741</ele>
        <time>2000-01-01T02:21:04.000Z</time>
      </trkpt>
      <trkpt lat="46.21116" lon="6.85332">
        <ele>1736.2</ele>
        <time>2000-01-01T02:21:14.000Z</time>
      </trkpt>
      <trkpt lat="46.21113" lon="6.85333">
        <ele>1734.2</ele>
        <time>2000-01-01T02:21:24.000Z</time>
      </trkpt>
      <trkpt lat="46.21113" lon="6.85334">
        <ele>1734</ele>
        <time>2000-01-01T02:21:34.000Z</time>
      </trkpt>
      <trkpt lat="46.2111" lon="6.85342">
        <ele>1731</ele>
        <time>2000-01-01T02:21:44.000Z</time>
      </trkpt>
      <trkpt lat="46.2112" lon="6.85372">
        <ele>1740</ele>
        <time>2000-01-01T02:21:54.000Z</time>
      </trkpt>
      <trkpt lat="46.21129" lon="6.85409">
        <ele>1734</ele>
        <time>2000-01-01T02:22:04.000Z</time>
      </trkpt>
      <trkpt lat="46.21137" lon="6.85429">
        <ele>1726.3</ele>
        <time>2000-01-01T02:22:14.000Z</time>
      </trkpt>
      <trkpt lat="46.21137" lon="6.85456">
        <ele>1728</ele>
        <time>2000-01-01T02:22:24.000Z</time>
      </trkpt>
      <trkpt lat="46.21129" lon="6.85467">
        <ele>1721.2</ele>
        <time>2000-01-01T02:22:34.000Z</time>
      </trkpt>
      <trkpt lat="46.21117" lon="6.8547">
        <ele>1721</ele>
        <time>2000-01-01T02:22:44.000Z</time>
      </trkpt>
      <trkpt lat="46.21106" lon="6.85487">
        <ele>1717.7</ele>
        <time>2000-01-01T02:22:54.000Z</time>
      </trkpt>
      <trkpt lat="46.21099" lon="6.85491">
        <ele>1715</ele>
        <time>2000-01-01T02:23:04.000Z</time>
      </trkpt>
      <trkpt lat="46.21088" lon="6.85502">
        <ele>1715.5</ele>
        <time>2000-01-01T02:23:14.000Z</time>
      </trkpt>
      <trkpt lat="46.21078" lon="6.85514">
        <ele>1711</ele>
        <time>2000-01-01T02:23:24.000Z</time>
      </trkpt>
      <trkpt lat="46.21068" lon="6.85523">
        <ele>1711.9</ele>
        <time>2000-01-01T02:23:34.000Z</time>
      </trkpt>
      <trkpt lat="46.21061" lon="6.85531">
        <ele>1710</ele>
        <time>2000-01-01T02:23:44.000Z</time>
      </trkpt>
      <trkpt lat="46.21049" lon="6.85537">
        <ele>1708.7</ele>
        <time>2000-01-01T02:23:54.000Z</time>
      </trkpt>
      <trkpt lat="46.21038" lon="6.85544">
        <ele>1707</ele>
        <time>2000-01-01T02:24:04.000Z</time>
      </trkpt>
      <trkpt lat="46.2103" lon="6.85554">
        <ele>1705.3</ele>
        <time>2000-01-01T02:24:14.000Z</time>
      </trkpt>
      <trkpt lat="46.21022" lon="6.85559">
        <ele>1705</ele>
        <time>2000-01-01T02:24:24.000Z</time>
      </trkpt>
      <trkpt lat="46.21015" lon="6.85565">
        <ele>1704.4</ele>
        <time>2000-01-01T02:24:34.000Z</time>
      </trkpt>
      <trkpt lat="46.21005" lon="6.85575">
        <ele>1705</ele>
        <time>2000-01-01T02:24:44.000Z</time>
      </trkpt>
      <trkpt lat="46.20997" lon="6.85583">
        <ele>1702.3</ele>
        <time>2000-01-01T02:24:54.000Z</time>
      </trkpt>
      <trkpt lat="46.20989" lon="6.85597">
        <ele>1703</ele>
        <time>2000-01-01T02:25:04.000Z</time>
      </trkpt>
      <trkpt lat="46.20981" lon="6.85606">
        <ele>1701.3</ele>
        <time>2000-01-01T02:25:14.000Z</time>
      </trkpt>
      <trkpt lat="46.20972" lon="6.85619">
        <ele>1702</ele>
        <time>2000-01-01T02:25:24.000Z</time>
      </trkpt>
      <trkpt lat="46.20965" lon="6.85635">
        <ele>1700.1</ele>
        <time>2000-01-01T02:25:34.000Z</time>
      </trkpt>
      <trkpt lat="46.20955" lon="6.85645">
        <ele>1700</ele>
        <time>2000-01-01T02:25:44.000Z</time>
      </trkpt>
      <trkpt lat="46.20945" lon="6.85654">
        <ele>1697.2</ele>
        <time>2000-01-01T02:25:54.000Z</time>
      </trkpt>
      <trkpt lat="46.20934" lon="6.85661">
        <ele>1698</ele>
        <time>2000-01-01T02:26:04.000Z</time>
      </trkpt>
      <trkpt lat="46.20923" lon="6.85669">
        <ele>1695.7</ele>
        <time>2000-01-01T02:26:14.000Z</time>
      </trkpt>
      <trkpt lat="46.20913" lon="6.85675">
        <ele>1697</ele>
        <time>2000-01-01T02:26:24.000Z</time>
      </trkpt>
      <trkpt lat="46.20899" lon="6.85677">
        <ele>1694.5</ele>
        <time>2000-01-01T02:26:34.000Z</time>
      </trkpt>
      <trkpt lat="46.20886" lon="6.8567">
        <ele>1697</ele>
        <time>2000-01-01T02:26:44.000Z</time>
      </trkpt>
      <trkpt lat="46.20869" lon="6.85643">
        <ele>1697</ele>
        <time>2000-01-01T02:26:54.000Z</time>
      </trkpt>
      <trkpt lat="46.20863" lon="6.85631">
        <ele>1693.7</ele>
        <time>2000-01-01T02:27:04.000Z</time>
      </trkpt>
      <trkpt lat="46.20847" lon="6.85633">
        <ele>1698</ele>
        <time>2000-01-01T02:27:14.000Z</time>
      </trkpt>
      <trkpt lat="46.20837" lon="6.85642">
        <ele>1692.2</ele>
        <time>2000-01-01T02:27:24.000Z</time>
      </trkpt>
      <trkpt lat="46.20828" lon="6.85656">
        <ele>1701</ele>
        <time>2000-01-01T02:27:34.000Z</time>
      </trkpt>
      <trkpt lat="46.20811" lon="6.85681">
        <ele>1701</ele>
        <time>2000-01-01T02:27:44.000Z</time>
      </trkpt>
      <trkpt lat="46.20794" lon="6.85708">
        <ele>1703</ele>
        <time>2000-01-01T02:27:54.000Z</time>
      </trkpt>
      <trkpt lat="46.20775" lon="6.85728">
        <ele>1705</ele>
        <time>2000-01-01T02:28:04.000Z</time>
      </trkpt>
      <trkpt lat="46.20757" lon="6.8575">
        <ele>1705</ele>
        <time>2000-01-01T02:28:14.000Z</time>
      </trkpt>
      <trkpt lat="46.20743" lon="6.85757">
        <ele>1701.3</ele>
        <time>2000-01-01T02:28:24.000Z</time>
      </trkpt>
      <trkpt lat="46.20726" lon="6.85762">
        <ele>1706</ele>
        <time>2000-01-01T02:28:34.000Z</time>
      </trkpt>
      <trkpt lat="46.20708" lon="6.85767">
        <ele>1706</ele>
        <time>2000-01-01T02:28:44.000Z</time>
      </trkpt>
      <trkpt lat="46.20695" lon="6.85773">
        <ele>1705.8</ele>
        <time>2000-01-01T02:28:54.000Z</time>
      </trkpt>
      <trkpt lat="46.20681" lon="6.85786">
        <ele>1706</ele>
        <time>2000-01-01T02:29:04.000Z</time>
      </trkpt>
      <trkpt lat="46.20669" lon="6.85805">
        <ele>1705.1</ele>
        <time>2000-01-01T02:29:14.000Z</time>
      </trkpt>
      <trkpt lat="46.20664" lon="6.85819">
        <ele>1705</ele>
        <time>2000-01-01T02:29:24.000Z</time>
      </trkpt>
      <trkpt lat="46.20659" lon="6.85832">
        <ele>1703.1</ele>
        <time>2000-01-01T02:29:34.000Z</time>
      </trkpt>
      <trkpt lat="46.20648" lon="6.85843">
        <ele>1703</ele>
        <time>2000-01-01T02:29:44.000Z</time>
      </trkpt>
      <trkpt lat="46.2062" lon="6.85844">
        <ele>1704</ele>
        <time>2000-01-01T02:29:54.000Z</time>
      </trkpt>
      <trkpt lat="46.20596" lon="6.85839">
        <ele>1705</ele>
        <time>2000-01-01T02:30:04.000Z</time>
      </trkpt>
      <trkpt lat="46.20581" lon="6.85832">
        <ele>1705.2</ele>
        <time>2000-01-01T02:30:14.000Z</time>
      </trkpt>
      <trkpt lat="46.20566" lon="6.85826">
        <ele>1705</ele>
        <time>2000-01-01T02:30:24.000Z</time>
      </trkpt>
      <trkpt lat="46.20548" lon="6.85827">
        <ele>1705.3</ele>
        <time>2000-01-01T02:30:34.000Z</time>
      </trkpt>
      <trkpt lat="46.20534" lon="6.85831">
        <ele>1702</ele>
        <time>2000-01-01T02:30:44.000Z</time>
      </trkpt>
      <trkpt lat="46.20522" lon="6.85835">
        <ele>1702.2</ele>
        <time>2000-01-01T02:30:54.000Z</time>
      </trkpt>
      <trkpt lat="46.20516" lon="6.85834">
        <ele>1701.3</ele>
        <time>2000-01-01T02:31:04.000Z</time>
      </trkpt>
      <trkpt lat="46.20509" lon="6.85827">
        <ele>1702</ele>
        <time>2000-01-01T02:31:14.000Z</time>
      </trkpt>
      <trkpt lat="46.20501" lon="6.8583">
        <ele>1699.1</ele>
        <time>2000-01-01T02:31:24.000Z</time>
      </trkpt>
      <trkpt lat="46.20496" lon="6.85811">
        <ele>1703</ele>
        <time>2000-01-01T02:31:34.000Z</time>
      </trkpt>
      <trkpt lat="46.20487" lon="6.85795">
        <ele>1704.4</ele>
        <time>2000-01-01T02:31:44.000Z</time>
      </trkpt>
      <trkpt lat="46.20479" lon="6.85787">
        <ele>1709</ele>
        <time>2000-01-01T02:31:54.000Z</time>
      </trkpt>
      <trkpt lat="46.20463" lon="6.85771">
        <ele>1712</ele>
        <time>2000-01-01T02:32:04.000Z</time>
      </trkpt>
      <trkpt lat="46.2045" lon="6.85757">
        <ele>1708.8</ele>
        <time>2000-01-01T02:32:14.000Z</time>
      </trkpt>
      <trkpt lat="46.20439" lon="6.85742">
        <ele>1719</ele>
        <time>2000-01-01T02:32:24.000Z</time>
      </trkpt>
      <trkpt lat="46.20428" lon="6.85734">
        <ele>1715.4</ele>
        <time>2000-01-01T02:32:34.000Z</time>
      </trkpt>
      <trkpt lat="46.20415" lon="6.85734">
        <ele>1722</ele>
        <time>2000-01-01T02:32:44.000Z</time>
      </trkpt>
      <trkpt lat="46.20401" lon="6.85722">
        <ele>1716.3</ele>
        <time>2000-01-01T02:32:54.000Z</time>
      </trkpt>
      <trkpt lat="46.20386" lon="6.85706">
        <ele>1725</ele>
        <time>2000-01-01T02:33:04.000Z</time>
      </trkpt>
      <trkpt lat="46.20367" lon="6.857">
        <ele>1728</ele>
        <time>2000-01-01T02:33:14.000Z</time>
      </trkpt>
      <trkpt lat="46.20342" lon="6.85686">
        <ele>1732</ele>
        <time>2000-01-01T02:33:24.000Z</time>
      </trkpt>
      <trkpt lat="46.20327" lon="6.85679">
        <ele>1728</ele>
        <time>2000-01-01T02:33:34.000Z</time>
      </trkpt>
      <trkpt lat="46.20312" lon="6.85671">
        <ele>1733</ele>
        <time>2000-01-01T02:33:44.000Z</time>
      </trkpt>
      <trkpt lat="46.20297" lon="6.85658">
        <ele>1733.5</ele>
        <time>2000-01-01T02:33:54.000Z</time>
      </trkpt>
      <trkpt lat="46.20282" lon="6.85648">
        <ele>1735</ele>
        <time>2000-01-01T02:34:04.000Z</time>
      </trkpt>
      <trkpt lat="46.20268" lon="6.85638">
        <ele>1738.7</ele>
        <time>2000-01-01T02:34:14.000Z</time>
      </trkpt>
      <trkpt lat="46.2026" lon="6.85632">
        <ele>1737</ele>
        <time>2000-01-01T02:34:24.000Z</time>
      </trkpt>
      <trkpt lat="46.20253" lon="6.85628">
        <ele>1741</ele>
        <time>2000-01-01T02:34:34.000Z</time>
      </trkpt>
      <trkpt lat="46.20246" lon="6.85623">
        <ele>1741.2</ele>
        <time>2000-01-01T02:34:44.000Z</time>
      </trkpt>
      <trkpt lat="46.20246" lon="6.85612">
        <ele>1739</ele>
        <time>2000-01-01T02:34:54.000Z</time>
      </trkpt>
      <trkpt lat="46.20245" lon="6.85603">
        <ele>1746</ele>
        <time>2000-01-01T02:35:04.000Z</time>
      </trkpt>
      <trkpt lat="46.20244" lon="6.85591">
        <ele>1747.2</ele>
        <time>2000-01-01T02:35:14.000Z</time>
      </trkpt>
      <trkpt lat="46.20239" lon="6.8558">
        <ele>1747</ele>
        <time>2000-01-01T02:35:24.000Z</time>
      </trkpt>
      <trkpt lat="46.20232" lon="6.85567">
        <ele>1749.2</ele>
        <time>2000-01-01T02:35:34.000Z</time>
      </trkpt>
      <trkpt lat="46.20225" lon="6.8555">
        <ele>1752</ele>
        <time>2000-01-01T02:35:44.000Z</time>
      </trkpt>
      <trkpt lat="46.20216" lon="6.85531">
        <ele>1751.4</ele>
        <time>2000-01-01T02:35:54.000Z</time>
      </trkpt>
      <trkpt lat="46.20208" lon="6.85514">
        <ele>1758</ele>
        <time>2000-01-01T02:36:04.000Z</time>
      </trkpt>
      <trkpt lat="46.2019" lon="6.85499">
        <ele>1759</ele>
        <time>2000-01-01T02:36:14.000Z</time>
      </trkpt>
      <trkpt lat="46.20171" lon="6.85483">
        <ele>1760</ele>
        <time>2000-01-01T02:36:24.000Z</time>
      </trkpt>
      <trkpt lat="46.20157" lon="6.85465">
        <ele>1759.2</ele>
        <time>2000-01-01T02:36:34.000Z</time>
      </trkpt>
      <trkpt lat="46.20146" lon="6.85443">
        <ele>1761</ele>
        <time>2000-01-01T02:36:44.000Z</time>
      </trkpt>
      <trkpt lat="46.2013" lon="6.85428">
        <ele>1762</ele>
        <time>2000-01-01T02:36:54.000Z</time>
      </trkpt>
      <trkpt lat="46.20121" lon="6.85417">
        <ele>1763.8</ele>
        <time>2000-01-01T02:37:04.000Z</time>
      </trkpt>
      <trkpt lat="46.20111" lon="6.85404">
        <ele>1764</ele>
        <time>2000-01-01T02:37:14.000Z</time>
      </trkpt>
      <trkpt lat="46.20107" lon="6.85388">
        <ele>1767.2</ele>
        <time>2000-01-01T02:37:24.000Z</time>
      </trkpt>
      <trkpt lat="46.20101" lon="6.85379">
        <ele>1766</ele>
        <time>2000-01-01T02:37:34.000Z</time>
      </trkpt>
      <trkpt lat="46.20097" lon="6.85363">
        <ele>1770.7</ele>
        <time>2000-01-01T02:37:44.000Z</time>
      </trkpt>
      <trkpt lat="46.20092" lon="6.85356">
        <ele>1769</ele>
        <time>2000-01-01T02:37:54.000Z</time>
      </trkpt>
      <trkpt lat="46.20087" lon="6.85347">
        <ele>1770.6</ele>
        <time>2000-01-01T02:38:04.000Z</time>
      </trkpt>
      <trkpt lat="46.20082" lon="6.85339">
        <ele>1770.9</ele>
        <time>2000-01-01T02:38:14.000Z</time>
      </trkpt>
      <trkpt lat="46.20076" lon="6.85329">
        <ele>1772</ele>
        <time>2000-01-01T02:38:24.000Z</time>
      </trkpt>
      <trkpt lat="46.20077" lon="6.85318">
        <ele>1772.5</ele>
        <time>2000-01-01T02:38:34.000Z</time>
      </trkpt>
      <trkpt lat="46.20082" lon="6.85318">
        <ele>1774.6</ele>
        <time>2000-01-01T02:38:44.000Z</time>
      </trkpt>
      <trkpt lat="46.20089" lon="6.85334">
        <ele>1772</ele>
        <time>2000-01-01T02:38:54.000Z</time>
      </trkpt>
      <trkpt lat="46.201" lon="6.85348">
        <ele>1775.7</ele>
        <time>2000-01-01T02:39:04.000Z</time>
      </trkpt>
      <trkpt lat="46.20112" lon="6.85359">
        <ele>1774</ele>
        <time>2000-01-01T02:39:14.000Z</time>
      </trkpt>
      <trkpt lat="46.20123" lon="6.85375">
        <ele>1778.6</ele>
        <time>2000-01-01T02:39:24.000Z</time>
      </trkpt>
      <trkpt lat="46.20133" lon="6.8538">
        <ele>1776</ele>
        <time>2000-01-01T02:39:34.000Z</time>
      </trkpt>
      <trkpt lat="46.2015" lon="6.85387">
        <ele>1784</ele>
        <time>2000-01-01T02:39:44.000Z</time>
      </trkpt>
      <trkpt lat="46.20165" lon="6.85388">
        <ele>1786</ele>
        <time>2000-01-01T02:39:54.000Z</time>
      </trkpt>
      <trkpt lat="46.20177" lon="6.85394">
        <ele>1787.5</ele>
        <time>2000-01-01T02:40:04.000Z</time>
      </trkpt>
      <trkpt lat="46.20192" lon="6.85397">
        <ele>1789</ele>
        <time>2000-01-01T02:40:14.000Z</time>
      </trkpt>
      <trkpt lat="46.20206" lon="6.85398">
        <ele>1792.8</ele>
        <time>2000-01-01T02:40:24.000Z</time>
      </trkpt>
      <trkpt lat="46.20217" lon="6.85404">
        <ele>1790</ele>
        <time>2000-01-01T02:40:34.000Z</time>
      </trkpt>
      <trkpt lat="46.20228" lon="6.85412">
        <ele>1792.3</ele>
        <time>2000-01-01T02:40:44.000Z</time>
      </trkpt>
      <trkpt lat="46.20237" lon="6.85416">
        <ele>1792</ele>
        <time>2000-01-01T02:40:54.000Z</time>
      </trkpt>
      <trkpt lat="46.20238" lon="6.85407">
        <ele>1795</ele>
        <time>2000-01-01T02:41:04.000Z</time>
      </trkpt>
      <trkpt lat="46.20232" lon="6.85401">
        <ele>1796.5</ele>
        <time>2000-01-01T02:41:14.000Z</time>
      </trkpt>
      <trkpt lat="46.20223" lon="6.85401">
        <ele>1792</ele>
        <time>2000-01-01T02:41:24.000Z</time>
      </trkpt>
      <trkpt lat="46.20201" lon="6.85383">
        <ele>1795</ele>
        <time>2000-01-01T02:41:34.000Z</time>
      </trkpt>
      <trkpt lat="46.20173" lon="6.85346">
        <ele>1799</ele>
        <time>2000-01-01T02:41:44.000Z</time>
      </trkpt>
      <trkpt lat="46.20155" lon="6.85294">
        <ele>1803</ele>
        <time>2000-01-01T02:41:54.000Z</time>
      </trkpt>
      <trkpt lat="46.2014" lon="6.85267">
        <ele>1806</ele>
        <time>2000-01-01T02:42:04.000Z</time>
      </trkpt>
      <trkpt lat="46.20142" lon="6.85226">
        <ele>1814</ele>
        <time>2000-01-01T02:42:14.000Z</time>
      </trkpt>
      <trkpt lat="46.20146" lon="6.8521">
        <ele>1815.6</ele>
        <time>2000-01-01T02:42:24.000Z</time>
      </trkpt>
      <trkpt lat="46.20145" lon="6.85194">
        <ele>1819</ele>
        <time>2000-01-01T02:42:34.000Z</time>
      </trkpt>
      <trkpt lat="46.20133" lon="6.85179">
        <ele>1816.3</ele>
        <time>2000-01-01T02:42:44.000Z</time>
      </trkpt>
      <trkpt lat="46.20128" lon="6.85151">
        <ele>1824</ele>
        <time>2000-01-01T02:42:54.000Z</time>
      </trkpt>
      <trkpt lat="46.20108" lon="6.85132">
        <ele>1825</ele>
        <time>2000-01-01T02:43:04.000Z</time>
      </trkpt>
      <trkpt lat="46.20085" lon="6.8511">
        <ele>1827</ele>
        <time>2000-01-01T02:43:14.000Z</time>
      </trkpt>
      <trkpt lat="46.2007" lon="6.8508">
        <ele>1830</ele>
        <time>2000-01-01T02:43:24.000Z</time>
      </trkpt>
      <trkpt lat="46.2007" lon="6.85042">
        <ele>1834</ele>
        <time>2000-01-01T02:43:34.000Z</time>
      </trkpt>
      <trkpt lat="46.2007" lon="6.84992">
        <ele>1841</ele>
        <time>2000-01-01T02:43:44.000Z</time>
      </trkpt>
      <trkpt lat="46.20054" lon="6.84956">
        <ele>1844</ele>
        <time>2000-01-01T02:43:54.000Z</time>
      </trkpt>
      <trkpt lat="46.2004" lon="6.84926">
        <ele>1848</ele>
        <time>2000-01-01T02:44:04.000Z</time>
      </trkpt>
      <trkpt lat="46.20024" lon="6.84891">
        <ele>1848</ele>
        <time>2000-01-01T02:44:14.000Z</time>
      </trkpt>
      <trkpt lat="46.20016" lon="6.84857">
        <ele>1854</ele>
        <time>2000-01-01T02:44:24.000Z</time>
      </trkpt>
      <trkpt lat="46.20006" lon="6.84816">
        <ele>1861</ele>
        <time>2000-01-01T02:44:34.000Z</time>
      </trkpt>
      <trkpt lat="46.19975" lon="6.84799">
        <ele>1861</ele>
        <time>2000-01-01T02:44:44.000Z</time>
      </trkpt>
      <trkpt lat="46.19947" lon="6.8479">
        <ele>1862</ele>
        <time>2000-01-01T02:44:54.000Z</time>
      </trkpt>
      <trkpt lat="46.19922" lon="6.8479">
        <ele>1862</ele>
        <time>2000-01-01T02:45:04.000Z</time>
      </trkpt>
      <trkpt lat="46.19892" lon="6.84805">
        <ele>1862</ele>
        <time>2000-01-01T02:45:14.000Z</time>
      </trkpt>
      <trkpt lat="46.19868" lon="6.84807">
        <ele>1865</ele>
        <time>2000-01-01T02:45:24.000Z</time>
      </trkpt>
      <trkpt lat="46.19837" lon="6.84797">
        <ele>1866</ele>
        <time>2000-01-01T02:45:34.000Z</time>
      </trkpt>
      <trkpt lat="46.19818" lon="6.84797">
        <ele>1868</ele>
        <time>2000-01-01T02:45:44.000Z</time>
      </trkpt>
      <trkpt lat="46.19796" lon="6.84784">
        <ele>1869</ele>
        <time>2000-01-01T02:45:54.000Z</time>
      </trkpt>
      <trkpt lat="46.19773" lon="6.84771">
        <ele>1870</ele>
        <time>2000-01-01T02:46:04.000Z</time>
      </trkpt>
      <trkpt lat="46.1976" lon="6.8476">
        <ele>1872</ele>
        <time>2000-01-01T02:46:14.000Z</time>
      </trkpt>
      <trkpt lat="46.19735" lon="6.84771">
        <ele>1870</ele>
        <time>2000-01-01T02:46:24.000Z</time>
      </trkpt>
      <trkpt lat="46.19723" lon="6.84766">
        <ele>1874.7</ele>
        <time>2000-01-01T02:46:34.000Z</time>
      </trkpt>
      <trkpt lat="46.19703" lon="6.84769">
        <ele>1869</ele>
        <time>2000-01-01T02:46:44.000Z</time>
      </trkpt>
      <trkpt lat="46.1968" lon="6.8479">
        <ele>1869</ele>
        <time>2000-01-01T02:46:54.000Z</time>
      </trkpt>
      <trkpt lat="46.1965" lon="6.84784">
        <ele>1872</ele>
        <time>2000-01-01T02:47:04.000Z</time>
      </trkpt>
      <trkpt lat="46.19627" lon="6.84776">
        <ele>1875</ele>
        <time>2000-01-01T02:47:14.000Z</time>
      </trkpt>
      <trkpt lat="46.19604" lon="6.84768">
        <ele>1878</ele>
        <time>2000-01-01T02:47:24.000Z</time>
      </trkpt>
      <trkpt lat="46.19579" lon="6.84769">
        <ele>1875</ele>
        <time>2000-01-01T02:47:34.000Z</time>
      </trkpt>
      <trkpt lat="46.19543" lon="6.84794">
        <ele>1873</ele>
        <time>2000-01-01T02:47:44.000Z</time>
      </trkpt>
      <trkpt lat="46.19519" lon="6.848">
        <ele>1873</ele>
        <time>2000-01-01T02:47:54.000Z</time>
      </trkpt>
      <trkpt lat="46.19494" lon="6.84807">
        <ele>1873</ele>
        <time>2000-01-01T02:48:04.000Z</time>
      </trkpt>
      <trkpt lat="46.19467" lon="6.8481">
        <ele>1872</ele>
        <time>2000-01-01T02:48:14.000Z</time>
      </trkpt>
      <trkpt lat="46.19432" lon="6.84814">
        <ele>1872</ele>
        <time>2000-01-01T02:48:24.000Z</time>
      </trkpt>
      <trkpt lat="46.19413" lon="6.84811">
        <ele>1869</ele>
        <time>2000-01-01T02:48:34.000Z</time>
      </trkpt>
      <trkpt lat="46.19392" lon="6.8481">
        <ele>1865</ele>
        <time>2000-01-01T02:48:44.000Z</time>
      </trkpt>
      <trkpt lat="46.19359" lon="6.84778">
        <ele>1859</ele>
        <time>2000-01-01T02:48:54.000Z</time>
      </trkpt>
      <trkpt lat="46.19348" lon="6.84762">
        <ele>1862</ele>
        <time>2000-01-01T02:49:04.000Z</time>
      </trkpt>
      <trkpt lat="46.19334" lon="6.84722">
        <ele>1858</ele>
        <time>2000-01-01T02:49:14.000Z</time>
      </trkpt>
      <trkpt lat="46.19316" lon="6.84687">
        <ele>1857</ele>
        <time>2000-01-01T02:49:24.000Z</time>
      </trkpt>
      <trkpt lat="46.19301" lon="6.84658">
        <ele>1856</ele>
        <time>2000-01-01T02:49:34.000Z</time>
      </trkpt>
      <trkpt lat="46.19284" lon="6.84623">
        <ele>1852</ele>
        <time>2000-01-01T02:49:44.000Z</time>
      </trkpt>
      <trkpt lat="46.19272" lon="6.84575">
        <ele>1849</ele>
        <time>2000-01-01T02:49:54.000Z</time>
      </trkpt>
      <trkpt lat="46.1927" lon="6.84552">
        <ele>1845</ele>
        <time>2000-01-01T02:50:04.000Z</time>
      </trkpt>
      <trkpt lat="46.19266" lon="6.84525">
        <ele>1847</ele>
        <time>2000-01-01T02:50:14.000Z</time>
      </trkpt>
      <trkpt lat="46.19249" lon="6.84486">
        <ele>1838</ele>
        <time>2000-01-01T02:50:24.000Z</time>
      </trkpt>
      <trkpt lat="46.19238" lon="6.84449">
        <ele>1836</ele>
        <time>2000-01-01T02:50:34.000Z</time>
      </trkpt>
      <trkpt lat="46.1924" lon="6.84421">
        <ele>1837</ele>
        <time>2000-01-01T02:50:44.000Z</time>
      </trkpt>
      <trkpt lat="46.19244" lon="6.84413">
        <ele>1833.1</ele>
        <time>2000-01-01T02:50:54.000Z</time>
      </trkpt>
      <trkpt lat="46.19255" lon="6.84401">
        <ele>1835</ele>
        <time>2000-01-01T02:51:04.000Z</time>
      </trkpt>
      <trkpt lat="46.19257" lon="6.84391">
        <ele>1832.2</ele>
        <time>2000-01-01T02:51:14.000Z</time>
      </trkpt>
      <trkpt lat="46.1925" lon="6.84379">
        <ele>1831.8</ele>
        <time>2000-01-01T02:51:24.000Z</time>
      </trkpt>
      <trkpt lat="46.19234" lon="6.84361">
        <ele>1833</ele>
        <time>2000-01-01T02:51:34.000Z</time>
      </trkpt>
      <trkpt lat="46.19225" lon="6.8433">
        <ele>1833</ele>
        <time>2000-01-01T02:51:44.000Z</time>
      </trkpt>
      <trkpt lat="46.19224" lon="6.84311">
        <ele>1828.6</ele>
        <time>2000-01-01T02:51:54.000Z</time>
      </trkpt>
      <trkpt lat="46.19216" lon="6.84295">
        <ele>1831</ele>
        <time>2000-01-01T02:52:04.000Z</time>
      </trkpt>
      <trkpt lat="46.19192" lon="6.84274">
        <ele>1830</ele>
        <time>2000-01-01T02:52:14.000Z</time>
      </trkpt>
      <trkpt lat="46.19156" lon="6.84235">
        <ele>1820</ele>
        <time>2000-01-01T02:52:24.000Z</time>
      </trkpt>
      <trkpt lat="46.19142" lon="6.84207">
        <ele>1820</ele>
        <time>2000-01-01T02:52:34.000Z</time>
      </trkpt>
      <trkpt lat="46.19134" lon="6.84177">
        <ele>1820</ele>
        <time>2000-01-01T02:52:44.000Z</time>
      </trkpt>
      <trkpt lat="46.19134" lon="6.84157">
        <ele>1821.2</ele>
        <time>2000-01-01T02:52:54.000Z</time>
      </trkpt>
      <trkpt lat="46.19139" lon="6.84137">
        <ele>1819</ele>
        <time>2000-01-01T02:53:04.000Z</time>
      </trkpt>
      <trkpt lat="46.19139" lon="6.84121">
        <ele>1821</ele>
        <time>2000-01-01T02:53:14.000Z</time>
      </trkpt>
      <trkpt lat="46.1911" lon="6.8402">
        <ele>1818</ele>
        <time>2000-01-01T02:53:24.000Z</time>
      </trkpt>
      <trkpt lat="46.19108" lon="6.83977">
        <ele>1816</ele>
        <time>2000-01-01T02:53:34.000Z</time>
      </trkpt>
      <trkpt lat="46.19106" lon="6.83942">
        <ele>1816</ele>
        <time>2000-01-01T02:53:44.000Z</time>
      </trkpt>
      <trkpt lat="46.19104" lon="6.83903">
        <ele>1815</ele>
        <time>2000-01-01T02:53:54.000Z</time>
      </trkpt>
      <trkpt lat="46.1908" lon="6.83852">
        <ele>1808</ele>
        <time>2000-01-01T02:54:04.000Z</time>
      </trkpt>
      <trkpt lat="46.19073" lon="6.83818">
        <ele>1809</ele>
        <time>2000-01-01T02:54:14.000Z</time>
      </trkpt>
      <trkpt lat="46.19075" lon="6.83807">
        <ele>1807.1</ele>
        <time>2000-01-01T02:54:24.000Z</time>
      </trkpt>
      <trkpt lat="46.19082" lon="6.83781">
        <ele>1811</ele>
        <time>2000-01-01T02:54:34.000Z</time>
      </trkpt>
      <trkpt lat="46.19083" lon="6.83766">
        <ele>1809.6</ele>
        <time>2000-01-01T02:54:44.000Z</time>
      </trkpt>
      <trkpt lat="46.19073" lon="6.83717">
        <ele>1813</ele>
        <time>2000-01-01T02:54:54.000Z</time>
      </trkpt>
      <trkpt lat="46.19069" lon="6.83669">
        <ele>1813</ele>
        <time>2000-01-01T02:55:04.000Z</time>
      </trkpt>
      <trkpt lat="46.19063" lon="6.83655">
        <ele>1816</ele>
        <time>2000-01-01T02:55:14.000Z</time>
      </trkpt>
      <trkpt lat="46.19042" lon="6.83645">
        <ele>1812</ele>
        <time>2000-01-01T02:55:24.000Z</time>
      </trkpt>
      <trkpt lat="46.19035" lon="6.83639">
        <ele>1813.5</ele>
        <time>2000-01-01T02:55:34.000Z</time>
      </trkpt>
      <trkpt lat="46.19027" lon="6.83622">
        <ele>1812</ele>
        <time>2000-01-01T02:55:44.000Z</time>
      </trkpt>
      <trkpt lat="46.18998" lon="6.83605">
        <ele>1809</ele>
        <time>2000-01-01T02:55:54.000Z</time>
      </trkpt>
      <trkpt lat="46.18986" lon="6.83591">
        <ele>1813.2</ele>
        <time>2000-01-01T02:56:04.000Z</time>
      </trkpt>
      <trkpt lat="46.18979" lon="6.83571">
        <ele>1809</ele>
        <time>2000-01-01T02:56:14.000Z</time>
      </trkpt>
      <trkpt lat="46.1897" lon="6.83535">
        <ele>1811</ele>
        <time>2000-01-01T02:56:24.000Z</time>
      </trkpt>
      <trkpt lat="46.1896" lon="6.83491">
        <ele>1813</ele>
        <time>2000-01-01T02:56:34.000Z</time>
      </trkpt>
      <trkpt lat="46.1895" lon="6.83473">
        <ele>1809.7</ele>
        <time>2000-01-01T02:56:44.000Z</time>
      </trkpt>
      <trkpt lat="46.18926" lon="6.83448">
        <ele>1813</ele>
        <time>2000-01-01T02:56:54.000Z</time>
      </trkpt>
      <trkpt lat="46.18902" lon="6.83421">
        <ele>1811</ele>
        <time>2000-01-01T02:57:04.000Z</time>
      </trkpt>
      <trkpt lat="46.18881" lon="6.83402">
        <ele>1809</ele>
        <time>2000-01-01T02:57:14.000Z</time>
      </trkpt>
      <trkpt lat="46.1886" lon="6.83382">
        <ele>1808</ele>
        <time>2000-01-01T02:57:24.000Z</time>
      </trkpt>
      <trkpt lat="46.18844" lon="6.83324">
        <ele>1809</ele>
        <time>2000-01-01T02:57:34.000Z</time>
      </trkpt>
      <trkpt lat="46.18832" lon="6.83289">
        <ele>1811</ele>
        <time>2000-01-01T02:57:44.000Z</time>
      </trkpt>
      <trkpt lat="46.18815" lon="6.83242">
        <ele>1811</ele>
        <time>2000-01-01T02:57:54.000Z</time>
      </trkpt>
      <trkpt lat="46.18802" lon="6.83227">
        <ele>1804.4</ele>
        <time>2000-01-01T02:58:04.000Z</time>
      </trkpt>
      <trkpt lat="46.18788" lon="6.8322">
        <ele>1810</ele>
        <time>2000-01-01T02:58:14.000Z</time>
      </trkpt>
      <trkpt lat="46.18778" lon="6.8321">
        <ele>1803.8</ele>
        <time>2000-01-01T02:58:24.000Z</time>
      </trkpt>
      <trkpt lat="46.18772" lon="6.83186">
        <ele>1809</ele>
        <time>2000-01-01T02:58:34.000Z</time>
      </trkpt>
      <trkpt lat="46.18756" lon="6.83156">
        <ele>1806</ele>
        <time>2000-01-01T02:58:44.000Z</time>
      </trkpt>
      <trkpt lat="46.18735" lon="6.83115">
        <ele>1806</ele>
        <time>2000-01-01T02:58:54.000Z</time>
      </trkpt>
      <trkpt lat="46.18734" lon="6.83075">
        <ele>1811</ele>
        <time>2000-01-01T02:59:04.000Z</time>
      </trkpt>
      <trkpt lat="46.18732" lon="6.83016">
        <ele>1812</ele>
        <time>2000-01-01T02:59:14.000Z</time>
      </trkpt>
      <trkpt lat="46.18716" lon="6.82977">
        <ele>1814</ele>
        <time>2000-01-01T02:59:24.000Z</time>
      </trkpt>
      <trkpt lat="46.18712" lon="6.8295">
        <ele>1816</ele>
        <time>2000-01-01T02:59:34.000Z</time>
      </trkpt>
      <trkpt lat="46.18711" lon="6.82934">
        <ele>1816.5</ele>
        <time>2000-01-01T02:59:44.000Z</time>
      </trkpt>
      <trkpt lat="46.18717" lon="6.82863">
        <ele>1823</ele>
        <time>2000-01-01T02:59:54.000Z</time>
      </trkpt>
      <trkpt lat="46.18713" lon="6.82825">
        <ele>1821</ele>
        <time>2000-01-01T03:00:04.000Z</time>
      </trkpt>
      <trkpt lat="46.18708" lon="6.82772">
        <ele>1825</ele>
        <time>2000-01-01T03:00:14.000Z</time>
      </trkpt>
      <trkpt lat="46.18711" lon="6.82747">
        <ele>1826.7</ele>
        <time>2000-01-01T03:00:24.000Z</time>
      </trkpt>
      <trkpt lat="46.1871" lon="6.82697">
        <ele>1829</ele>
        <time>2000-01-01T03:00:34.000Z</time>
      </trkpt>
      <trkpt lat="46.18712" lon="6.82667">
        <ele>1832</ele>
        <time>2000-01-01T03:00:44.000Z</time>
      </trkpt>
      <trkpt lat="46.18705" lon="6.82647">
        <ele>1828.1</ele>
        <time>2000-01-01T03:00:54.000Z</time>
      </trkpt>
      <trkpt lat="46.187" lon="6.82615">
        <ele>1833</ele>
        <time>2000-01-01T03:01:04.000Z</time>
      </trkpt>
      <trkpt lat="46.18681" lon="6.82599">
        <ele>1834</ele>
        <time>2000-01-01T03:01:14.000Z</time>
      </trkpt>
      <trkpt lat="46.18663" lon="6.82576">
        <ele>1834</ele>
        <time>2000-01-01T03:01:24.000Z</time>
      </trkpt>
      <trkpt lat="46.18656" lon="6.82571">
        <ele>1829.6</ele>
        <time>2000-01-01T03:01:34.000Z</time>
      </trkpt>
      <trkpt lat="46.18605" lon="6.82539">
        <ele>1836</ele>
        <time>2000-01-01T03:01:44.000Z</time>
      </trkpt>
      <trkpt lat="46.18576" lon="6.82527">
        <ele>1838</ele>
        <time>2000-01-01T03:01:54.000Z</time>
      </trkpt>
      <trkpt lat="46.18551" lon="6.82517">
        <ele>1838</ele>
        <time>2000-01-01T03:02:04.000Z</time>
      </trkpt>
      <trkpt lat="46.18521" lon="6.82504">
        <ele>1841</ele>
        <time>2000-01-01T03:02:14.000Z</time>
      </trkpt>
      <trkpt lat="46.18504" lon="6.82493">
        <ele>1832.7</ele>
        <time>2000-01-01T03:02:24.000Z</time>
      </trkpt>
      <trkpt lat="46.18471" lon="6.82466">
        <ele>1844</ele>
        <time>2000-01-01T03:02:34.000Z</time>
      </trkpt>
      <trkpt lat="46.18453" lon="6.8243">
        <ele>1846</ele>
        <time>2000-01-01T03:02:44.000Z</time>
      </trkpt>
      <trkpt lat="46.18446" lon="6.82422">
        <ele>1835.3</ele>
        <time>2000-01-01T03:02:54.000Z</time>
      </trkpt>
      <trkpt lat="46.18434" lon="6.82424">
        <ele>1842</ele>
        <time>2000-01-01T03:03:04.000Z</time>
      </trkpt>
      <trkpt lat="46.18429" lon="6.8243">
        <ele>1836.7</ele>
        <time>2000-01-01T03:03:14.000Z</time>
      </trkpt>
      <trkpt lat="46.18422" lon="6.82453">
        <ele>1839</ele>
        <time>2000-01-01T03:03:24.000Z</time>
      </trkpt>
      <trkpt lat="46.18416" lon="6.82464">
        <ele>1837.4</ele>
        <time>2000-01-01T03:03:34.000Z</time>
      </trkpt>
      <trkpt lat="46.1841" lon="6.82467">
        <ele>1837.8</ele>
        <time>2000-01-01T03:03:44.000Z</time>
      </trkpt>
      <trkpt lat="46.1838" lon="6.82468">
        <ele>1840</ele>
        <time>2000-01-01T03:03:54.000Z</time>
      </trkpt>
      <trkpt lat="46.18371" lon="6.82461">
        <ele>1839.4</ele>
        <time>2000-01-01T03:04:04.000Z</time>
      </trkpt>
      <trkpt lat="46.1835" lon="6.82436">
        <ele>1842</ele>
        <time>2000-01-01T03:04:14.000Z</time>
      </trkpt>
      <trkpt lat="46.18332" lon="6.8242">
        <ele>1844</ele>
        <time>2000-01-01T03:04:24.000Z</time>
      </trkpt>
      <trkpt lat="46.18307" lon="6.82402">
        <ele>1845</ele>
        <time>2000-01-01T03:04:34.000Z</time>
      </trkpt>
      <trkpt lat="46.1827" lon="6.82377">
        <ele>1846</ele>
        <time>2000-01-01T03:04:44.000Z</time>
      </trkpt>
      <trkpt lat="46.1826" lon="6.82374">
        <ele>1848.1</ele>
        <time>2000-01-01T03:04:54.000Z</time>
      </trkpt>
      <trkpt lat="46.1825" lon="6.82375">
        <ele>1847</ele>
        <time>2000-01-01T03:05:04.000Z</time>
      </trkpt>
      <trkpt lat="46.1824" lon="6.82366">
        <ele>1844.7</ele>
        <time>2000-01-01T03:05:14.000Z</time>
      </trkpt>
      <trkpt lat="46.18226" lon="6.82336">
        <ele>1853</ele>
        <time>2000-01-01T03:05:24.000Z</time>
      </trkpt>
      <trkpt lat="46.18217" lon="6.82325">
        <ele>1847.1</ele>
        <time>2000-01-01T03:05:34.000Z</time>
      </trkpt>
      <trkpt lat="46.18205" lon="6.8232">
        <ele>1850</ele>
        <time>2000-01-01T03:05:44.000Z</time>
      </trkpt>
      <trkpt lat="46.182" lon="6.82322">
        <ele>1847.4</ele>
        <time>2000-01-01T03:05:54.000Z</time>
      </trkpt>
      <trkpt lat="46.18194" lon="6.8233">
        <ele>1846.4</ele>
        <time>2000-01-01T03:06:04.000Z</time>
      </trkpt>
      <trkpt lat="46.18183" lon="6.82354">
        <ele>1848</ele>
        <time>2000-01-01T03:06:14.000Z</time>
      </trkpt>
      <trkpt lat="46.1816" lon="6.82381">
        <ele>1842</ele>
        <time>2000-01-01T03:06:24.000Z</time>
      </trkpt>
      <trkpt lat="46.18148" lon="6.82413">
        <ele>1836</ele>
        <time>2000-01-01T03:06:34.000Z</time>
      </trkpt>
      <trkpt lat="46.18139" lon="6.82426">
        <ele>1835.3</ele>
        <time>2000-01-01T03:06:44.000Z</time>
      </trkpt>
      <trkpt lat="46.1809" lon="6.82438">
        <ele>1835</ele>
        <time>2000-01-01T03:06:54.000Z</time>
      </trkpt>
      <trkpt lat="46.18067" lon="6.8245">
        <ele>1835</ele>
        <time>2000-01-01T03:07:04.000Z</time>
      </trkpt>
      <trkpt lat="46.18041" lon="6.82452">
        <ele>1835</ele>
        <time>2000-01-01T03:07:14.000Z</time>
      </trkpt>
      <trkpt lat="46.18026" lon="6.8246">
        <ele>1826.2</ele>
        <time>2000-01-01T03:07:24.000Z</time>
      </trkpt>
      <trkpt lat="46.17972" lon="6.82497">
        <ele>1834</ele>
        <time>2000-01-01T03:07:34.000Z</time>
      </trkpt>
      <trkpt lat="46.17959" lon="6.82529">
        <ele>1832</ele>
        <time>2000-01-01T03:07:44.000Z</time>
      </trkpt>
      <trkpt lat="46.1795" lon="6.82542">
        <ele>1829.2</ele>
        <time>2000-01-01T03:07:54.000Z</time>
      </trkpt>
      <trkpt lat="46.17932" lon="6.82561">
        <ele>1831</ele>
        <time>2000-01-01T03:08:04.000Z</time>
      </trkpt>
      <trkpt lat="46.17926" lon="6.82563">
        <ele>1827.3</ele>
        <time>2000-01-01T03:08:14.000Z</time>
      </trkpt>
      <trkpt lat="46.17922" lon="6.82561">
        <ele>1826.8</ele>
        <time>2000-01-01T03:08:24.000Z</time>
      </trkpt>
      <trkpt lat="46.17899" lon="6.82524">
        <ele>1830</ele>
        <time>2000-01-01T03:08:34.000Z</time>
      </trkpt>
      <trkpt lat="46.17893" lon="6.8251">
        <ele>1828.5</ele>
        <time>2000-01-01T03:08:44.000Z</time>
      </trkpt>
      <trkpt lat="46.17893" lon="6.82466">
        <ele>1830</ele>
        <time>2000-01-01T03:08:54.000Z</time>
      </trkpt>
      <trkpt lat="46.17884" lon="6.82426">
        <ele>1831</ele>
        <time>2000-01-01T03:09:04.000Z</time>
      </trkpt>
      <trkpt lat="46.17878" lon="6.82373">
        <ele>1833</ele>
        <time>2000-01-01T03:09:14.000Z</time>
      </trkpt>
      <trkpt lat="46.17881" lon="6.82339">
        <ele>1841</ele>
        <time>2000-01-01T03:09:24.000Z</time>
      </trkpt>
      <trkpt lat="46.17878" lon="6.82308">
        <ele>1841</ele>
        <time>2000-01-01T03:09:34.000Z</time>
      </trkpt>
      <trkpt lat="46.1787" lon="6.82275">
        <ele>1846</ele>
        <time>2000-01-01T03:09:44.000Z</time>
      </trkpt>
      <trkpt lat="46.17861" lon="6.8224">
        <ele>1849</ele>
        <time>2000-01-01T03:09:54.000Z</time>
      </trkpt>
      <trkpt lat="46.17852" lon="6.8219">
        <ele>1847</ele>
        <time>2000-01-01T03:10:04.000Z</time>
      </trkpt>
      <trkpt lat="46.17839" lon="6.82155">
        <ele>1848</ele>
        <time>2000-01-01T03:10:14.000Z</time>
      </trkpt>
      <trkpt lat="46.17821" lon="6.82107">
        <ele>1845</ele>
        <time>2000-01-01T03:10:24.000Z</time>
      </trkpt>
      <trkpt lat="46.17796" lon="6.82059">
        <ele>1845</ele>
        <time>2000-01-01T03:10:34.000Z</time>
      </trkpt>
      <trkpt lat="46.17798" lon="6.82023">
        <ele>1845</ele>
        <time>2000-01-01T03:10:44.000Z</time>
      </trkpt>
      <trkpt lat="46.17797" lon="6.82004">
        <ele>1848.2</ele>
        <time>2000-01-01T03:10:54.000Z</time>
      </trkpt>
      <trkpt lat="46.17793" lon="6.81982">
        <ele>1844</ele>
        <time>2000-01-01T03:11:04.000Z</time>
      </trkpt>
      <trkpt lat="46.1778" lon="6.81937">
        <ele>1844</ele>
        <time>2000-01-01T03:11:14.000Z</time>
      </trkpt>
      <trkpt lat="46.17783" lon="6.81905">
        <ele>1845</ele>
        <time>2000-01-01T03:11:24.000Z</time>
      </trkpt>
      <trkpt lat="46.17786" lon="6.81883">
        <ele>1847</ele>
        <time>2000-01-01T03:11:34.000Z</time>
      </trkpt>
      <trkpt lat="46.17785" lon="6.81869">
        <ele>1845</ele>
        <time>2000-01-01T03:11:44.000Z</time>
      </trkpt>
      <trkpt lat="46.17778" lon="6.81845">
        <ele>1845.8</ele>
        <time>2000-01-01T03:11:54.000Z</time>
      </trkpt>
      <trkpt lat="46.17777" lon="6.81834">
        <ele>1845</ele>
        <time>2000-01-01T03:12:04.000Z</time>
      </trkpt>
      <trkpt lat="46.17787" lon="6.81794">
        <ele>1852</ele>
        <time>2000-01-01T03:12:14.000Z</time>
      </trkpt>
      <trkpt lat="46.17785" lon="6.81774">
        <ele>1847.9</ele>
        <time>2000-01-01T03:12:24.000Z</time>
      </trkpt>
      <trkpt lat="46.17765" lon="6.81729">
        <ele>1849</ele>
        <time>2000-01-01T03:12:34.000Z</time>
      </trkpt>
      <trkpt lat="46.1774" lon="6.81693">
        <ele>1847</ele>
        <time>2000-01-01T03:12:44.000Z</time>
      </trkpt>
      <trkpt lat="46.17734" lon="6.81677">
        <ele>1848.4</ele>
        <time>2000-01-01T03:12:54.000Z</time>
      </trkpt>
      <trkpt lat="46.17727" lon="6.81646">
        <ele>1845</ele>
        <time>2000-01-01T03:13:04.000Z</time>
      </trkpt>
      <trkpt lat="46.17727" lon="6.81632">
        <ele>1847.5</ele>
        <time>2000-01-01T03:13:14.000Z</time>
      </trkpt>
      <trkpt lat="46.17737" lon="6.81583">
        <ele>1845</ele>
        <time>2000-01-01T03:13:24.000Z</time>
      </trkpt>
      <trkpt lat="46.17738" lon="6.81559">
        <ele>1846.1</ele>
        <time>2000-01-01T03:13:34.000Z</time>
      </trkpt>
      <trkpt lat="46.17747" lon="6.81524">
        <ele>1846</ele>
        <time>2000-01-01T03:13:44.000Z</time>
      </trkpt>
      <trkpt lat="46.17752" lon="6.81467">
        <ele>1850</ele>
        <time>2000-01-01T03:13:54.000Z</time>
      </trkpt>
      <trkpt lat="46.17749" lon="6.81452">
        <ele>1844.4</ele>
        <time>2000-01-01T03:14:04.000Z</time>
      </trkpt>
      <trkpt lat="46.17735" lon="6.81416">
        <ele>1847</ele>
        <time>2000-01-01T03:14:14.000Z</time>
      </trkpt>
      <trkpt lat="46.17728" lon="6.81406">
        <ele>1843.8</ele>
        <time>2000-01-01T03:14:24.000Z</time>
      </trkpt>
      <trkpt lat="46.17681" lon="6.81381">
        <ele>1847</ele>
        <time>2000-01-01T03:14:34.000Z</time>
      </trkpt>
      <trkpt lat="46.17645" lon="6.81356">
        <ele>1847</ele>
        <time>2000-01-01T03:14:44.000Z</time>
      </trkpt>
      <trkpt lat="46.17635" lon="6.81348">
        <ele>1846.6</ele>
        <time>2000-01-01T03:14:54.000Z</time>
      </trkpt>
      <trkpt lat="46.17619" lon="6.81327">
        <ele>1852</ele>
        <time>2000-01-01T03:15:04.000Z</time>
      </trkpt>
      <trkpt lat="46.17608" lon="6.8132">
        <ele>1847.2</ele>
        <time>2000-01-01T03:15:14.000Z</time>
      </trkpt>
      <trkpt lat="46.17553" lon="6.81293">
        <ele>1852</ele>
        <time>2000-01-01T03:15:24.000Z</time>
      </trkpt>
      <trkpt lat="46.17532" lon="6.81291">
        <ele>1852</ele>
        <time>2000-01-01T03:15:34.000Z</time>
      </trkpt>
      <trkpt lat="46.17504" lon="6.81303">
        <ele>1850</ele>
        <time>2000-01-01T03:15:44.000Z</time>
      </trkpt>
      <trkpt lat="46.17491" lon="6.81314">
        <ele>1843.6</ele>
        <time>2000-01-01T03:15:54.000Z</time>
      </trkpt>
      <trkpt lat="46.17452" lon="6.81374">
        <ele>1840</ele>
        <time>2000-01-01T03:16:04.000Z</time>
      </trkpt>
      <trkpt lat="46.17436" lon="6.81393">
        <ele>1839</ele>
        <time>2000-01-01T03:16:14.000Z</time>
      </trkpt>
      <trkpt lat="46.17421" lon="6.81422">
        <ele>1836</ele>
        <time>2000-01-01T03:16:24.000Z</time>
      </trkpt>
      <trkpt lat="46.17403" lon="6.81456">
        <ele>1833</ele>
        <time>2000-01-01T03:16:34.000Z</time>
      </trkpt>
      <trkpt lat="46.17387" lon="6.81477">
        <ele>1832</ele>
        <time>2000-01-01T03:16:44.000Z</time>
      </trkpt>
      <trkpt lat="46.17354" lon="6.81499">
        <ele>1831</ele>
        <time>2000-01-01T03:16:54.000Z</time>
      </trkpt>
      <trkpt lat="46.17327" lon="6.81531">
        <ele>1828</ele>
        <time>2000-01-01T03:17:04.000Z</time>
      </trkpt>
      <trkpt lat="46.17319" lon="6.81553">
        <ele>1823.2</ele>
        <time>2000-01-01T03:17:14.000Z</time>
      </trkpt>
      <trkpt lat="46.17315" lon="6.81573">
        <ele>1823</ele>
        <time>2000-01-01T03:17:24.000Z</time>
      </trkpt>
      <trkpt lat="46.17302" lon="6.8159">
        <ele>1822.1</ele>
        <time>2000-01-01T03:17:34.000Z</time>
      </trkpt>
      <trkpt lat="46.17291" lon="6.81591">
        <ele>1824</ele>
        <time>2000-01-01T03:17:44.000Z</time>
      </trkpt>
      <trkpt lat="46.17274" lon="6.81584">
        <ele>1821.9</ele>
        <time>2000-01-01T03:17:54.000Z</time>
      </trkpt>
      <trkpt lat="46.17236" lon="6.81589">
        <ele>1826</ele>
        <time>2000-01-01T03:18:04.000Z</time>
      </trkpt>
      <trkpt lat="46.17193" lon="6.81585">
        <ele>1827</ele>
        <time>2000-01-01T03:18:14.000Z</time>
      </trkpt>
      <trkpt lat="46.17174" lon="6.81578">
        <ele>1829</ele>
        <time>2000-01-01T03:18:24.000Z</time>
      </trkpt>
      <trkpt lat="46.17167" lon="6.81579">
        <ele>1823.6</ele>
        <time>2000-01-01T03:18:34.000Z</time>
      </trkpt>
      <trkpt lat="46.17163" lon="6.81583">
        <ele>1823.4</ele>
        <time>2000-01-01T03:18:44.000Z</time>
      </trkpt>
      <trkpt lat="46.1716" lon="6.81593">
        <ele>1829</ele>
        <time>2000-01-01T03:18:54.000Z</time>
      </trkpt>
      <trkpt lat="46.17159" lon="6.81616">
        <ele>1821.4</ele>
        <time>2000-01-01T03:19:04.000Z</time>
      </trkpt>
      <trkpt lat="46.17153" lon="6.8163">
        <ele>1824</ele>
        <time>2000-01-01T03:19:14.000Z</time>
      </trkpt>
      <trkpt lat="46.1713" lon="6.81643">
        <ele>1823</ele>
        <time>2000-01-01T03:19:24.000Z</time>
      </trkpt>
      <trkpt lat="46.17107" lon="6.81656">
        <ele>1823</ele>
        <time>2000-01-01T03:19:34.000Z</time>
      </trkpt>
      <trkpt lat="46.17067" lon="6.8167">
        <ele>1821</ele>
        <time>2000-01-01T03:19:44.000Z</time>
      </trkpt>
      <trkpt lat="46.17031" lon="6.81677">
        <ele>1821</ele>
        <time>2000-01-01T03:19:54.000Z</time>
      </trkpt>
      <trkpt lat="46.17017" lon="6.8167">
        <ele>1821.6</ele>
        <time>2000-01-01T03:20:04.000Z</time>
      </trkpt>
      <trkpt lat="46.17012" lon="6.81664">
        <ele>1821</ele>
        <time>2000-01-01T03:20:14.000Z</time>
      </trkpt>
      <trkpt lat="46.16995" lon="6.81638">
        <ele>1820</ele>
        <time>2000-01-01T03:20:24.000Z</time>
      </trkpt>
      <trkpt lat="46.16974" lon="6.81608">
        <ele>1818</ele>
        <time>2000-01-01T03:20:34.000Z</time>
      </trkpt>
      <trkpt lat="46.16963" lon="6.81583">
        <ele>1819</ele>
        <time>2000-01-01T03:20:44.000Z</time>
      </trkpt>
      <trkpt lat="46.16962" lon="6.81566">
        <ele>1818.5</ele>
        <time>2000-01-01T03:20:54.000Z</time>
      </trkpt>
      <trkpt lat="46.16967" lon="6.81542">
        <ele>1821</ele>
        <time>2000-01-01T03:21:04.000Z</time>
      </trkpt>
      <trkpt lat="46.16967" lon="6.81531">
        <ele>1820.1</ele>
        <time>2000-01-01T03:21:14.000Z</time>
      </trkpt>
      <trkpt lat="46.16958" lon="6.81499">
        <ele>1821</ele>
        <time>2000-01-01T03:21:24.000Z</time>
      </trkpt>
      <trkpt lat="46.16949" lon="6.81478">
        <ele>1817.7</ele>
        <time>2000-01-01T03:21:34.000Z</time>
      </trkpt>
      <trkpt lat="46.16922" lon="6.8143">
        <ele>1821</ele>
        <time>2000-01-01T03:21:44.000Z</time>
      </trkpt>
      <trkpt lat="46.16892" lon="6.81386">
        <ele>1817</ele>
        <time>2000-01-01T03:21:54.000Z</time>
      </trkpt>
      <trkpt lat="46.16879" lon="6.81346">
        <ele>1815</ele>
        <time>2000-01-01T03:22:04.000Z</time>
      </trkpt>
      <trkpt lat="46.16856" lon="6.81318">
        <ele>1812</ele>
        <time>2000-01-01T03:22:14.000Z</time>
      </trkpt>
      <trkpt lat="46.16831" lon="6.81266">
        <ele>1812</ele>
        <time>2000-01-01T03:22:24.000Z</time>
      </trkpt>
      <trkpt lat="46.16822" lon="6.81241">
        <ele>1812</ele>
        <time>2000-01-01T03:22:34.000Z</time>
      </trkpt>
      <trkpt lat="46.16814" lon="6.81234">
        <ele>1803.9</ele>
        <time>2000-01-01T03:22:44.000Z</time>
      </trkpt>
      <trkpt lat="46.16801" lon="6.81234">
        <ele>1808</ele>
        <time>2000-01-01T03:22:54.000Z</time>
      </trkpt>
      <trkpt lat="46.16789" lon="6.81228">
        <ele>1800.3</ele>
        <time>2000-01-01T03:23:04.000Z</time>
      </trkpt>
      <trkpt lat="46.16775" lon="6.81203">
        <ele>1804</ele>
        <time>2000-01-01T03:23:14.000Z</time>
      </trkpt>
      <trkpt lat="46.16749" lon="6.81186">
        <ele>1799</ele>
        <time>2000-01-01T03:23:24.000Z</time>
      </trkpt>
      <trkpt lat="46.16719" lon="6.81159">
        <ele>1797</ele>
        <time>2000-01-01T03:23:34.000Z</time>
      </trkpt>
      <trkpt lat="46.16707" lon="6.81139">
        <ele>1792.9</ele>
        <time>2000-01-01T03:23:44.000Z</time>
      </trkpt>
      <trkpt lat="46.16695" lon="6.81106">
        <ele>1796</ele>
        <time>2000-01-01T03:23:54.000Z</time>
      </trkpt>
      <trkpt lat="46.16684" lon="6.81086">
        <ele>1789.2</ele>
        <time>2000-01-01T03:24:04.000Z</time>
      </trkpt>
      <trkpt lat="46.16658" lon="6.81057">
        <ele>1790</ele>
        <time>2000-01-01T03:24:14.000Z</time>
      </trkpt>
      <trkpt lat="46.16651" lon="6.81058">
        <ele>1786.8</ele>
        <time>2000-01-01T03:24:24.000Z</time>
      </trkpt>
      <trkpt lat="46.16626" lon="6.81005">
        <ele>1787</ele>
        <time>2000-01-01T03:24:34.000Z</time>
      </trkpt>
      <trkpt lat="46.1661" lon="6.81011">
        <ele>1786.6</ele>
        <time>2000-01-01T03:24:44.000Z</time>
      </trkpt>
      <trkpt lat="46.16601" lon="6.81001">
        <ele>1782</ele>
        <time>2000-01-01T03:24:54.000Z</time>
      </trkpt>
      <trkpt lat="46.16595" lon="6.80989">
        <ele>1784.9</ele>
        <time>2000-01-01T03:25:04.000Z</time>
      </trkpt>
      <trkpt lat="46.16594" lon="6.80963">
        <ele>1781</ele>
        <time>2000-01-01T03:25:14.000Z</time>
      </trkpt>
      <trkpt lat="46.16602" lon="6.80929">
        <ele>1781</ele>
        <time>2000-01-01T03:25:24.000Z</time>
      </trkpt>
      <trkpt lat="46.16609" lon="6.80891">
        <ele>1781</ele>
        <time>2000-01-01T03:25:34.000Z</time>
      </trkpt>
      <trkpt lat="46.16617" lon="6.80866">
        <ele>1781</ele>
        <time>2000-01-01T03:25:44.000Z</time>
      </trkpt>
      <trkpt lat="46.16612" lon="6.80864">
        <ele>1780.1</ele>
        <time>2000-01-01T03:25:54.000Z</time>
      </trkpt>
      <trkpt lat="46.166" lon="6.80867">
        <ele>1776.3</ele>
        <time>2000-01-01T03:26:04.000Z</time>
      </trkpt>
      <trkpt lat="46.1659" lon="6.80863">
        <ele>1775</ele>
        <time>2000-01-01T03:26:14.000Z</time>
      </trkpt>
      <trkpt lat="46.1657" lon="6.80819">
        <ele>1763</ele>
        <time>2000-01-01T03:26:24.000Z</time>
      </trkpt>
      <trkpt lat="46.16566" lon="6.80816">
        <ele>1767.7</ele>
        <time>2000-01-01T03:26:34.000Z</time>
      </trkpt>
      <trkpt lat="46.16561" lon="6.80815">
        <ele>1765.8</ele>
        <time>2000-01-01T03:26:44.000Z</time>
      </trkpt>
      <trkpt lat="46.16551" lon="6.80822">
        <ele>1760</ele>
        <time>2000-01-01T03:26:54.000Z</time>
      </trkpt>
      <trkpt lat="46.16547" lon="6.80792">
        <ele>1756</ele>
        <time>2000-01-01T03:27:04.000Z</time>
      </trkpt>
      <trkpt lat="46.16541" lon="6.80772">
        <ele>1757.7</ele>
        <time>2000-01-01T03:27:14.000Z</time>
      </trkpt>
      <trkpt lat="46.16527" lon="6.80745">
        <ele>1750</ele>
        <time>2000-01-01T03:27:24.000Z</time>
      </trkpt>
      <trkpt lat="46.16524" lon="6.80726">
        <ele>1749.5</ele>
        <time>2000-01-01T03:27:34.000Z</time>
      </trkpt>
      <trkpt lat="46.16526" lon="6.80706">
        <ele>1747</ele>
        <time>2000-01-01T03:27:44.000Z</time>
      </trkpt>
      <trkpt lat="46.16518" lon="6.80683">
        <ele>1745.4</ele>
        <time>2000-01-01T03:27:54.000Z</time>
      </trkpt>
      <trkpt lat="46.16504" lon="6.80583">
        <ele>1735</ele>
        <time>2000-01-01T03:28:04.000Z</time>
      </trkpt>
      <trkpt lat="46.16508" lon="6.80556">
        <ele>1733.7</ele>
        <time>2000-01-01T03:28:14.000Z</time>
      </trkpt>
      <trkpt lat="46.16489" lon="6.80523">
        <ele>1724</ele>
        <time>2000-01-01T03:28:24.000Z</time>
      </trkpt>
      <trkpt lat="46.16483" lon="6.80507">
        <ele>1727</ele>
        <time>2000-01-01T03:28:34.000Z</time>
      </trkpt>
      <trkpt lat="46.16482" lon="6.80499">
        <ele>1726.3</ele>
        <time>2000-01-01T03:28:44.000Z</time>
      </trkpt>
      <trkpt lat="46.16487" lon="6.80479">
        <ele>1723</ele>
        <time>2000-01-01T03:28:54.000Z</time>
      </trkpt>
      <trkpt lat="46.16485" lon="6.80477">
        <ele>1722.6</ele>
        <time>2000-01-01T03:29:04.000Z</time>
      </trkpt>
      <trkpt lat="46.16447" lon="6.80486">
        <ele>1711</ele>
        <time>2000-01-01T03:29:14.000Z</time>
      </trkpt>
      <trkpt lat="46.16435" lon="6.80493">
        <ele>1707.9</ele>
        <time>2000-01-01T03:29:24.000Z</time>
      </trkpt>
      <trkpt lat="46.16438" lon="6.80543">
        <ele>1706</ele>
        <time>2000-01-01T03:29:34.000Z</time>
      </trkpt>
      <trkpt lat="46.16435" lon="6.80555">
        <ele>1702.3</ele>
        <time>2000-01-01T03:29:44.000Z</time>
      </trkpt>
      <trkpt lat="46.16429" lon="6.80559">
        <ele>1700.4</ele>
        <time>2000-01-01T03:29:54.000Z</time>
      </trkpt>
      <trkpt lat="46.16418" lon="6.8055">
        <ele>1696</ele>
        <time>2000-01-01T03:30:04.000Z</time>
      </trkpt>
      <trkpt lat="46.16417" lon="6.80542">
        <ele>1696.6</ele>
        <time>2000-01-01T03:30:14.000Z</time>
      </trkpt>
      <trkpt lat="46.16394" lon="6.80487">
        <ele>1689</ele>
        <time>2000-01-01T03:30:24.000Z</time>
      </trkpt>
      <trkpt lat="46.16374" lon="6.80448">
        <ele>1685</ele>
        <time>2000-01-01T03:30:34.000Z</time>
      </trkpt>
      <trkpt lat="46.16369" lon="6.80429">
        <ele>1681.2</ele>
        <time>2000-01-01T03:30:44.000Z</time>
      </trkpt>
      <trkpt lat="46.16338" lon="6.80416">
        <ele>1675</ele>
        <time>2000-01-01T03:30:54.000Z</time>
      </trkpt>
      <trkpt lat="46.1633" lon="6.80391">
        <ele>1675</ele>
        <time>2000-01-01T03:31:04.000Z</time>
      </trkpt>
      <trkpt lat="46.16326" lon="6.80398">
        <ele>1671.9</ele>
        <time>2000-01-01T03:31:14.000Z</time>
      </trkpt>
      <trkpt lat="46.16326" lon="6.80406">
        <ele>1670.8</ele>
        <time>2000-01-01T03:31:24.000Z</time>
      </trkpt>
      <trkpt lat="46.16343" lon="6.80446">
        <ele>1675</ele>
        <time>2000-01-01T03:31:34.000Z</time>
      </trkpt>
      <trkpt lat="46.16344" lon="6.80451">
        <ele>1669.5</ele>
        <time>2000-01-01T03:31:44.000Z</time>
      </trkpt>
      <trkpt lat="46.16334" lon="6.8047">
        <ele>1667</ele>
        <time>2000-01-01T03:31:54.000Z</time>
      </trkpt>
      <trkpt lat="46.1633" lon="6.80496">
        <ele>1661.7</ele>
        <time>2000-01-01T03:32:04.000Z</time>
      </trkpt>
      <trkpt lat="46.16344" lon="6.80538">
        <ele>1666</ele>
        <time>2000-01-01T03:32:14.000Z</time>
      </trkpt>
      <trkpt lat="46.1635" lon="6.8058">
        <ele>1665</ele>
        <time>2000-01-01T03:32:24.000Z</time>
      </trkpt>
      <trkpt lat="46.16345" lon="6.80589">
        <ele>1655.2</ele>
        <time>2000-01-01T03:32:34.000Z</time>
      </trkpt>
      <trkpt lat="46.16331" lon="6.80601">
        <ele>1663</ele>
        <time>2000-01-01T03:32:44.000Z</time>
      </trkpt>
      <trkpt lat="46.16316" lon="6.80629">
        <ele>1658</ele>
        <time>2000-01-01T03:32:54.000Z</time>
      </trkpt>
      <trkpt lat="46.16308" lon="6.80652">
        <ele>1648.4</ele>
        <time>2000-01-01T03:33:04.000Z</time>
      </trkpt>
      <trkpt lat="46.16298" lon="6.80667">
        <ele>1657</ele>
        <time>2000-01-01T03:33:14.000Z</time>
      </trkpt>
      <trkpt lat="46.1629" lon="6.80671">
        <ele>1646.5</ele>
        <time>2000-01-01T03:33:24.000Z</time>
      </trkpt>
      <trkpt lat="46.16213" lon="6.80674">
        <ele>1636</ele>
        <time>2000-01-01T03:33:34.000Z</time>
      </trkpt>
      <trkpt lat="46.16203" lon="6.80684">
        <ele>1639.5</ele>
        <time>2000-01-01T03:33:44.000Z</time>
      </trkpt>
      <trkpt lat="46.16198" lon="6.80699">
        <ele>1632</ele>
        <time>2000-01-01T03:33:54.000Z</time>
      </trkpt>
      <trkpt lat="46.16191" lon="6.80707">
        <ele>1636.4</ele>
        <time>2000-01-01T03:34:04.000Z</time>
      </trkpt>
      <trkpt lat="46.16186" lon="6.8072">
        <ele>1628</ele>
        <time>2000-01-01T03:34:14.000Z</time>
      </trkpt>
      <trkpt lat="46.16172" lon="6.80724">
        <ele>1631.8</ele>
        <time>2000-01-01T03:34:24.000Z</time>
      </trkpt>
      <trkpt lat="46.16163" lon="6.80734">
        <ele>1621</ele>
        <time>2000-01-01T03:34:34.000Z</time>
      </trkpt>
      <trkpt lat="46.16158" lon="6.80767">
        <ele>1616</ele>
        <time>2000-01-01T03:34:44.000Z</time>
      </trkpt>
      <trkpt lat="46.16148" lon="6.80782">
        <ele>1620.8</ele>
        <time>2000-01-01T03:34:54.000Z</time>
      </trkpt>
      <trkpt lat="46.16144" lon="6.80798">
        <ele>1610</ele>
        <time>2000-01-01T03:35:04.000Z</time>
      </trkpt>
      <trkpt lat="46.16143" lon="6.80818">
        <ele>1617.8</ele>
        <time>2000-01-01T03:35:14.000Z</time>
      </trkpt>
      <trkpt lat="46.16146" lon="6.80844">
        <ele>1607</ele>
        <time>2000-01-01T03:35:24.000Z</time>
      </trkpt>
      <trkpt lat="46.16145" lon="6.8087">
        <ele>1610.8</ele>
        <time>2000-01-01T03:35:34.000Z</time>
      </trkpt>
      <trkpt lat="46.16149" lon="6.80902">
        <ele>1600</ele>
        <time>2000-01-01T03:35:44.000Z</time>
      </trkpt>
      <trkpt lat="46.16143" lon="6.80936">
        <ele>1596</ele>
        <time>2000-01-01T03:35:54.000Z</time>
      </trkpt>
      <trkpt lat="46.16136" lon="6.80971">
        <ele>1589</ele>
        <time>2000-01-01T03:36:04.000Z</time>
      </trkpt>
      <trkpt lat="46.16134" lon="6.80984">
        <ele>1591.4</ele>
        <time>2000-01-01T03:36:14.000Z</time>
      </trkpt>
      <trkpt lat="46.16136" lon="6.81021">
        <ele>1582</ele>
        <time>2000-01-01T03:36:24.000Z</time>
      </trkpt>
      <trkpt lat="46.16134" lon="6.81027">
        <ele>1585.5</ele>
        <time>2000-01-01T03:36:34.000Z</time>
      </trkpt>
      <trkpt lat="46.1613" lon="6.81026">
        <ele>1583.4</ele>
        <time>2000-01-01T03:36:44.000Z</time>
      </trkpt>
      <trkpt lat="46.1612" lon="6.80995">
        <ele>1578</ele>
        <time>2000-01-01T03:36:54.000Z</time>
      </trkpt>
      <trkpt lat="46.16112" lon="6.80978">
        <ele>1579.5</ele>
        <time>2000-01-01T03:37:04.000Z</time>
      </trkpt>
      <trkpt lat="46.16107" lon="6.80947">
        <ele>1575</ele>
        <time>2000-01-01T03:37:14.000Z</time>
      </trkpt>
      <trkpt lat="46.16099" lon="6.80932">
        <ele>1574.9</ele>
        <time>2000-01-01T03:37:24.000Z</time>
      </trkpt>
      <trkpt lat="46.16097" lon="6.80923">
        <ele>1575</ele>
        <time>2000-01-01T03:37:34.000Z</time>
      </trkpt>
      <trkpt lat="46.16099" lon="6.80905">
        <ele>1577.3</ele>
        <time>2000-01-01T03:37:44.000Z</time>
      </trkpt>
      <trkpt lat="46.16097" lon="6.80892">
        <ele>1575</ele>
        <time>2000-01-01T03:37:54.000Z</time>
      </trkpt>
      <trkpt lat="46.16084" lon="6.80877">
        <ele>1571.4</ele>
        <time>2000-01-01T03:38:04.000Z</time>
      </trkpt>
      <trkpt lat="46.16074" lon="6.8086">
        <ele>1571</ele>
        <time>2000-01-01T03:38:14.000Z</time>
      </trkpt>
      <trkpt lat="46.1607" lon="6.80823">
        <ele>1566</ele>
        <time>2000-01-01T03:38:24.000Z</time>
      </trkpt>
      <trkpt lat="46.16055" lon="6.80796">
        <ele>1563</ele>
        <time>2000-01-01T03:38:34.000Z</time>
      </trkpt>
      <trkpt lat="46.16039" lon="6.80742">
        <ele>1553</ele>
        <time>2000-01-01T03:38:44.000Z</time>
      </trkpt>
      <trkpt lat="46.16014" lon="6.80702">
        <ele>1550</ele>
        <time>2000-01-01T03:38:54.000Z</time>
      </trkpt>
      <trkpt lat="46.16012" lon="6.80682">
        <ele>1537.6</ele>
        <time>2000-01-01T03:39:04.000Z</time>
      </trkpt>
      <trkpt lat="46.16017" lon="6.80664">
        <ele>1547</ele>
        <time>2000-01-01T03:39:14.000Z</time>
      </trkpt>
      <trkpt lat="46.16016" lon="6.80652">
        <ele>1535.5</ele>
        <time>2000-01-01T03:39:24.000Z</time>
      </trkpt>
      <trkpt lat="46.16006" lon="6.80647">
        <ele>1546</ele>
        <time>2000-01-01T03:39:34.000Z</time>
      </trkpt>
      <trkpt lat="46.15998" lon="6.80647">
        <ele>1527.6</ele>
        <time>2000-01-01T03:39:44.000Z</time>
      </trkpt>
      <trkpt lat="46.1599" lon="6.80653">
        <ele>1525.8</ele>
        <time>2000-01-01T03:39:54.000Z</time>
      </trkpt>
      <trkpt lat="46.15984" lon="6.80675">
        <ele>1537</ele>
        <time>2000-01-01T03:40:04.000Z</time>
      </trkpt>
      <trkpt lat="46.1597" lon="6.80685">
        <ele>1514.1</ele>
        <time>2000-01-01T03:40:14.000Z</time>
      </trkpt>
      <trkpt lat="46.1597" lon="6.80691">
        <ele>1528</ele>
        <time>2000-01-01T03:40:24.000Z</time>
      </trkpt>
      <trkpt lat="46.15975" lon="6.80704">
        <ele>1513</ele>
        <time>2000-01-01T03:40:34.000Z</time>
      </trkpt>
      <trkpt lat="46.15975" lon="6.80713">
        <ele>1511.5</ele>
        <time>2000-01-01T03:40:44.000Z</time>
      </trkpt>
      <trkpt lat="46.15969" lon="6.80719">
        <ele>1526</ele>
        <time>2000-01-01T03:40:54.000Z</time>
      </trkpt>
      <trkpt lat="46.15957" lon="6.80717">
        <ele>1506.1</ele>
        <time>2000-01-01T03:41:04.000Z</time>
      </trkpt>
      <trkpt lat="46.15952" lon="6.80727">
        <ele>1521</ele>
        <time>2000-01-01T03:41:14.000Z</time>
      </trkpt>
      <trkpt lat="46.15954" lon="6.80731">
        <ele>1502.9</ele>
        <time>2000-01-01T03:41:24.000Z</time>
      </trkpt>
      <trkpt lat="46.15956" lon="6.80745">
        <ele>1501.8</ele>
        <time>2000-01-01T03:41:34.000Z</time>
      </trkpt>
      <trkpt lat="46.15956" lon="6.80802">
        <ele>1507</ele>
        <time>2000-01-01T03:41:44.000Z</time>
      </trkpt>
      <trkpt lat="46.1596" lon="6.80863">
        <ele>1502</ele>
        <time>2000-01-01T03:41:54.000Z</time>
      </trkpt>
      <trkpt lat="46.15958" lon="6.80892">
        <ele>1500</ele>
        <time>2000-01-01T03:42:04.000Z</time>
      </trkpt>
      <trkpt lat="46.15958" lon="6.80919">
        <ele>1497</ele>
        <time>2000-01-01T03:42:14.000Z</time>
      </trkpt>
      <trkpt lat="46.15963" lon="6.80965">
        <ele>1496</ele>
        <time>2000-01-01T03:42:24.000Z</time>
      </trkpt>
      <trkpt lat="46.1596" lon="6.81018">
        <ele>1494</ele>
        <time>2000-01-01T03:42:34.000Z</time>
      </trkpt>
      <trkpt lat="46.15966" lon="6.81058">
        <ele>1490</ele>
        <time>2000-01-01T03:42:44.000Z</time>
      </trkpt>
      <trkpt lat="46.15975" lon="6.81118">
        <ele>1485</ele>
        <time>2000-01-01T03:42:54.000Z</time>
      </trkpt>
      <trkpt lat="46.15975" lon="6.81156">
        <ele>1479</ele>
        <time>2000-01-01T03:43:04.000Z</time>
      </trkpt>
      <trkpt lat="46.15975" lon="6.81206">
        <ele>1473</ele>
        <time>2000-01-01T03:43:14.000Z</time>
      </trkpt>
      <trkpt lat="46.1598" lon="6.81236">
        <ele>1470</ele>
        <time>2000-01-01T03:43:24.000Z</time>
      </trkpt>
      <trkpt lat="46.15981" lon="6.81277">
        <ele>1469</ele>
        <time>2000-01-01T03:43:34.000Z</time>
      </trkpt>
      <trkpt lat="46.1597" lon="6.81313">
        <ele>1460</ele>
        <time>2000-01-01T03:43:44.000Z</time>
      </trkpt>
      <trkpt lat="46.15969" lon="6.81373">
        <ele>1453</ele>
        <time>2000-01-01T03:43:54.000Z</time>
      </trkpt>
      <trkpt lat="46.15965" lon="6.81409">
        <ele>1451</ele>
        <time>2000-01-01T03:44:04.000Z</time>
      </trkpt>
      <trkpt lat="46.15961" lon="6.8145">
        <ele>1447</ele>
        <time>2000-01-01T03:44:14.000Z</time>
      </trkpt>
      <trkpt lat="46.15953" lon="6.81484">
        <ele>1442</ele>
        <time>2000-01-01T03:44:24.000Z</time>
      </trkpt>
      <trkpt lat="46.15956" lon="6.8155">
        <ele>1435</ele>
        <time>2000-01-01T03:44:34.000Z</time>
      </trkpt>
      <trkpt lat="46.15953" lon="6.81556">
        <ele>1418.4</ele>
        <time>2000-01-01T03:44:44.000Z</time>
      </trkpt>
      <trkpt lat="46.15953" lon="6.81583">
        <ele>1429</ele>
        <time>2000-01-01T03:44:54.000Z</time>
      </trkpt>
      <trkpt lat="46.15959" lon="6.81637">
        <ele>1427</ele>
        <time>2000-01-01T03:45:04.000Z</time>
      </trkpt>
      <trkpt lat="46.15958" lon="6.8169">
        <ele>1424</ele>
        <time>2000-01-01T03:45:14.000Z</time>
      </trkpt>
      <trkpt lat="46.15964" lon="6.81725">
        <ele>1423</ele>
        <time>2000-01-01T03:45:24.000Z</time>
      </trkpt>
      <trkpt lat="46.15971" lon="6.81766">
        <ele>1421</ele>
        <time>2000-01-01T03:45:34.000Z</time>
      </trkpt>
      <trkpt lat="46.15973" lon="6.81792">
        <ele>1406.9</ele>
        <time>2000-01-01T03:45:44.000Z</time>
      </trkpt>
      <trkpt lat="46.15965" lon="6.81866">
        <ele>1413</ele>
        <time>2000-01-01T03:45:54.000Z</time>
      </trkpt>
      <trkpt lat="46.15965" lon="6.81883">
        <ele>1398.8</ele>
        <time>2000-01-01T03:46:04.000Z</time>
      </trkpt>
      <trkpt lat="46.15975" lon="6.81968">
        <ele>1408</ele>
        <time>2000-01-01T03:46:14.000Z</time>
      </trkpt>
      <trkpt lat="46.15973" lon="6.82016">
        <ele>1405</ele>
        <time>2000-01-01T03:46:24.000Z</time>
      </trkpt>
      <trkpt lat="46.15985" lon="6.82065">
        <ele>1399</ele>
        <time>2000-01-01T03:46:34.000Z</time>
      </trkpt>
      <trkpt lat="46.15988" lon="6.82082">
        <ele>1386.5</ele>
        <time>2000-01-01T03:46:44.000Z</time>
      </trkpt>
      <trkpt lat="46.15989" lon="6.82113">
        <ele>1392</ele>
        <time>2000-01-01T03:46:54.000Z</time>
      </trkpt>
      <trkpt lat="46.15995" lon="6.82147">
        <ele>1389</ele>
        <time>2000-01-01T03:47:04.000Z</time>
      </trkpt>
      <trkpt lat="46.16001" lon="6.82182">
        <ele>1385</ele>
        <time>2000-01-01T03:47:14.000Z</time>
      </trkpt>
      <trkpt lat="46.16" lon="6.82225">
        <ele>1382</ele>
        <time>2000-01-01T03:47:24.000Z</time>
      </trkpt>
      <trkpt lat="46.15992" lon="6.8227">
        <ele>1377</ele>
        <time>2000-01-01T03:47:34.000Z</time>
      </trkpt>
      <trkpt lat="46.1599" lon="6.82299">
        <ele>1375</ele>
        <time>2000-01-01T03:47:44.000Z</time>
      </trkpt>
      <trkpt lat="46.15992" lon="6.82338">
        <ele>1372</ele>
        <time>2000-01-01T03:47:54.000Z</time>
      </trkpt>
      <trkpt lat="46.15995" lon="6.8239">
        <ele>1367</ele>
        <time>2000-01-01T03:48:04.000Z</time>
      </trkpt>
      <trkpt lat="46.15996" lon="6.82439">
        <ele>1365</ele>
        <time>2000-01-01T03:48:14.000Z</time>
      </trkpt>
      <trkpt lat="46.15993" lon="6.82485">
        <ele>1363</ele>
        <time>2000-01-01T03:48:24.000Z</time>
      </trkpt>
      <trkpt lat="46.15996" lon="6.82508">
        <ele>1358.7</ele>
        <time>2000-01-01T03:48:34.000Z</time>
      </trkpt>
      <trkpt lat="46.16003" lon="6.82529">
        <ele>1360</ele>
        <time>2000-01-01T03:48:44.000Z</time>
      </trkpt>
      <trkpt lat="46.16023" lon="6.82558">
        <ele>1360</ele>
        <time>2000-01-01T03:48:54.000Z</time>
      </trkpt>
      <trkpt lat="46.16053" lon="6.82604">
        <ele>1364</ele>
        <time>2000-01-01T03:49:04.000Z</time>
      </trkpt>
      <trkpt lat="46.1608" lon="6.82655">
        <ele>1364</ele>
        <time>2000-01-01T03:49:14.000Z</time>
      </trkpt>
      <trkpt lat="46.16088" lon="6.82681">
        <ele>1362</ele>
        <time>2000-01-01T03:49:24.000Z</time>
      </trkpt>
      <trkpt lat="46.16092" lon="6.82719">
        <ele>1360</ele>
        <time>2000-01-01T03:49:34.000Z</time>
      </trkpt>
      <trkpt lat="46.16091" lon="6.82753">
        <ele>1355</ele>
        <time>2000-01-01T03:49:44.000Z</time>
      </trkpt>
      <trkpt lat="46.1609" lon="6.82789">
        <ele>1352</ele>
        <time>2000-01-01T03:49:54.000Z</time>
      </trkpt>
      <trkpt lat="46.16094" lon="6.82819">
        <ele>1349</ele>
        <time>2000-01-01T03:50:04.000Z</time>
      </trkpt>
      <trkpt lat="46.16092" lon="6.82858">
        <ele>1350</ele>
        <time>2000-01-01T03:50:14.000Z</time>
      </trkpt>
      <trkpt lat="46.16089" lon="6.82913">
        <ele>1350</ele>
        <time>2000-01-01T03:50:24.000Z</time>
      </trkpt>
      <trkpt lat="46.16084" lon="6.82952">
        <ele>1350</ele>
        <time>2000-01-01T03:50:34.000Z</time>
      </trkpt>
      <trkpt lat="46.16079" lon="6.83004">
        <ele>1346</ele>
        <time>2000-01-01T03:50:44.000Z</time>
      </trkpt>
      <trkpt lat="46.16082" lon="6.83058">
        <ele>1340</ele>
        <time>2000-01-01T03:50:54.000Z</time>
      </trkpt>
      <trkpt lat="46.16093" lon="6.83098">
        <ele>1339</ele>
        <time>2000-01-01T03:51:04.000Z</time>
      </trkpt>
      <trkpt lat="46.1611" lon="6.83135">
        <ele>1340</ele>
        <time>2000-01-01T03:51:14.000Z</time>
      </trkpt>
      <trkpt lat="46.16121" lon="6.83168">
        <ele>1339</ele>
        <time>2000-01-01T03:51:24.000Z</time>
      </trkpt>
      <trkpt lat="46.16135" lon="6.8321">
        <ele>1339</ele>
        <time>2000-01-01T03:51:34.000Z</time>
      </trkpt>
      <trkpt lat="46.16152" lon="6.83246">
        <ele>1339</ele>
        <time>2000-01-01T03:51:44.000Z</time>
      </trkpt>
      <trkpt lat="46.16166" lon="6.83276">
        <ele>1338</ele>
        <time>2000-01-01T03:51:54.000Z</time>
      </trkpt>
      <trkpt lat="46.16183" lon="6.83312">
        <ele>1338</ele>
        <time>2000-01-01T03:52:04.000Z</time>
      </trkpt>
      <trkpt lat="46.16198" lon="6.83338">
        <ele>1339</ele>
        <time>2000-01-01T03:52:14.000Z</time>
      </trkpt>
      <trkpt lat="46.16214" lon="6.83364">
        <ele>1339</ele>
        <time>2000-01-01T03:52:24.000Z</time>
      </trkpt>
      <trkpt lat="46.16231" lon="6.8339">
        <ele>1342</ele>
        <time>2000-01-01T03:52:34.000Z</time>
      </trkpt>
      <trkpt lat="46.16251" lon="6.83419">
        <ele>1343</ele>
        <time>2000-01-01T03:52:44.000Z</time>
      </trkpt>
      <trkpt lat="46.16272" lon="6.83454">
        <ele>1344</ele>
        <time>2000-01-01T03:52:54.000Z</time>
      </trkpt>
      <trkpt lat="46.16293" lon="6.83489">
        <ele>1343</ele>
        <time>2000-01-01T03:53:04.000Z</time>
      </trkpt>
      <trkpt lat="46.1632" lon="6.83532">
        <ele>1344</ele>
        <time>2000-01-01T03:53:14.000Z</time>
      </trkpt>
      <trkpt lat="46.16334" lon="6.83549">
        <ele>1338.4</ele>
        <time>2000-01-01T03:53:24.000Z</time>
      </trkpt>
      <trkpt lat="46.16353" lon="6.83563">
        <ele>1346</ele>
        <time>2000-01-01T03:53:34.000Z</time>
      </trkpt>
      <trkpt lat="46.16373" lon="6.83563">
        <ele>1353</ele>
        <time>2000-01-01T03:53:44.000Z</time>
      </trkpt>
      <trkpt lat="46.1639" lon="6.8357">
        <ele>1341.1</ele>
        <time>2000-01-01T03:53:54.000Z</time>
      </trkpt>
      <trkpt lat="46.16398" lon="6.83585">
        <ele>1353</ele>
        <time>2000-01-01T03:54:04.000Z</time>
      </trkpt>
      <trkpt lat="46.16399" lon="6.83599">
        <ele>1338.2</ele>
        <time>2000-01-01T03:54:14.000Z</time>
      </trkpt>
      <trkpt lat="46.16395" lon="6.83611">
        <ele>1353</ele>
        <time>2000-01-01T03:54:24.000Z</time>
      </trkpt>
      <trkpt lat="46.16386" lon="6.83619">
        <ele>1339.8</ele>
        <time>2000-01-01T03:54:34.000Z</time>
      </trkpt>
      <trkpt lat="46.16364" lon="6.8362">
        <ele>1343</ele>
        <time>2000-01-01T03:54:44.000Z</time>
      </trkpt>
      <trkpt lat="46.16354" lon="6.83627">
        <ele>1337.1</ele>
        <time>2000-01-01T03:54:54.000Z</time>
      </trkpt>
      <trkpt lat="46.16346" lon="6.83638">
        <ele>1342</ele>
        <time>2000-01-01T03:55:04.000Z</time>
      </trkpt>
      <trkpt lat="46.1634" lon="6.8367">
        <ele>1342</ele>
        <time>2000-01-01T03:55:14.000Z</time>
      </trkpt>
      <trkpt lat="46.16335" lon="6.83703">
        <ele>1343</ele>
        <time>2000-01-01T03:55:24.000Z</time>
      </trkpt>
      <trkpt lat="46.16322" lon="6.83752">
        <ele>1344</ele>
        <time>2000-01-01T03:55:34.000Z</time>
      </trkpt>
      <trkpt lat="46.1631" lon="6.83802">
        <ele>1345</ele>
        <time>2000-01-01T03:55:44.000Z</time>
      </trkpt>
      <trkpt lat="46.16297" lon="6.83851">
        <ele>1345</ele>
        <time>2000-01-01T03:55:54.000Z</time>
      </trkpt>
      <trkpt lat="46.16289" lon="6.83886">
        <ele>1344</ele>
        <time>2000-01-01T03:56:04.000Z</time>
      </trkpt>
      <trkpt lat="46.16278" lon="6.83926">
        <ele>1339</ele>
        <time>2000-01-01T03:56:14.000Z</time>
      </trkpt>
      <trkpt lat="46.16275" lon="6.83928">
        <ele>1338.2</ele>
        <time>2000-01-01T03:56:24.000Z</time>
      </trkpt>
      <trkpt lat="46.16273" lon="6.83934">
        <ele>1337.5</ele>
        <time>2000-01-01T03:56:34.000Z</time>
      </trkpt>
      <trkpt lat="46.16232" lon="6.84133">
        <ele>1338</ele>
        <time>2000-01-01T03:56:44.000Z</time>
      </trkpt>
      <trkpt lat="46.1623" lon="6.84166">
        <ele>1337</ele>
        <time>2000-01-01T03:56:54.000Z</time>
      </trkpt>
      <trkpt lat="46.1623" lon="6.84201">
        <ele>1337</ele>
        <time>2000-01-01T03:57:04.000Z</time>
      </trkpt>
      <trkpt lat="46.1624" lon="6.84237">
        <ele>1336</ele>
        <time>2000-01-01T03:57:14.000Z</time>
      </trkpt>
      <trkpt lat="46.16242" lon="6.84255">
        <ele>1338.3</ele>
        <time>2000-01-01T03:57:24.000Z</time>
      </trkpt>
      <trkpt lat="46.16222" lon="6.84274">
        <ele>1335</ele>
        <time>2000-01-01T03:57:34.000Z</time>
      </trkpt>
      <trkpt lat="46.16218" lon="6.84283">
        <ele>1334.2</ele>
        <time>2000-01-01T03:57:44.000Z</time>
      </trkpt>
      <trkpt lat="46.16215" lon="6.84303">
        <ele>1328</ele>
        <time>2000-01-01T03:57:54.000Z</time>
      </trkpt>
      <trkpt lat="46.16215" lon="6.84346">
        <ele>1327</ele>
        <time>2000-01-01T03:58:04.000Z</time>
      </trkpt>
      <trkpt lat="46.16215" lon="6.84382">
        <ele>1327</ele>
        <time>2000-01-01T03:58:14.000Z</time>
      </trkpt>
      <trkpt lat="46.16215" lon="6.84421">
        <ele>1327</ele>
        <time>2000-01-01T03:58:24.000Z</time>
      </trkpt>
      <trkpt lat="46.16212" lon="6.84465">
        <ele>1324</ele>
        <time>2000-01-01T03:58:34.000Z</time>
      </trkpt>
      <trkpt lat="46.1621" lon="6.84502">
        <ele>1323</ele>
        <time>2000-01-01T03:58:44.000Z</time>
      </trkpt>
      <trkpt lat="46.16207" lon="6.84549">
        <ele>1323</ele>
        <time>2000-01-01T03:58:54.000Z</time>
      </trkpt>
      <trkpt lat="46.16209" lon="6.84585">
        <ele>1324</ele>
        <time>2000-01-01T03:59:04.000Z</time>
      </trkpt>
      <trkpt lat="46.16211" lon="6.84627">
        <ele>1323</ele>
        <time>2000-01-01T03:59:14.000Z</time>
      </trkpt>
      <trkpt lat="46.16215" lon="6.84665">
        <ele>1325</ele>
        <time>2000-01-01T03:59:24.000Z</time>
      </trkpt>
      <trkpt lat="46.16221" lon="6.84719">
        <ele>1323</ele>
        <time>2000-01-01T03:59:34.000Z</time>
      </trkpt>
      <trkpt lat="46.16223" lon="6.84757">
        <ele>1321</ele>
        <time>2000-01-01T03:59:44.000Z</time>
      </trkpt>
      <trkpt lat="46.16227" lon="6.84807">
        <ele>1310</ele>
        <time>2000-01-01T03:59:54.000Z</time>
      </trkpt>
      <trkpt lat="46.16231" lon="6.84835">
        <ele>1308</ele>
        <time>2000-01-01T04:00:04.000Z</time>
      </trkpt>
      <trkpt lat="46.16241" lon="6.84869">
        <ele>1307</ele>
        <time>2000-01-01T04:00:14.000Z</time>
      </trkpt>
      <trkpt lat="46.16252" lon="6.8491">
        <ele>1305</ele>
        <time>2000-01-01T04:00:24.000Z</time>
      </trkpt>
      <trkpt lat="46.1626" lon="6.84969">
        <ele>1295</ele>
        <time>2000-01-01T04:00:34.000Z</time>
      </trkpt>
      <trkpt lat="46.16271" lon="6.85001">
        <ele>1293</ele>
        <time>2000-01-01T04:00:44.000Z</time>
      </trkpt>
      <trkpt lat="46.16283" lon="6.85036">
        <ele>1291</ele>
        <time>2000-01-01T04:00:54.000Z</time>
      </trkpt>
      <trkpt lat="46.16297" lon="6.85061">
        <ele>1287</ele>
        <time>2000-01-01T04:01:04.000Z</time>
      </trkpt>
      <trkpt lat="46.16309" lon="6.85091">
        <ele>1286</ele>
        <time>2000-01-01T04:01:14.000Z</time>
      </trkpt>
      <trkpt lat="46.16323" lon="6.85123">
        <ele>1284</ele>
        <time>2000-01-01T04:01:24.000Z</time>
      </trkpt>
      <trkpt lat="46.16337" lon="6.85169">
        <ele>1279</ele>
        <time>2000-01-01T04:01:34.000Z</time>
      </trkpt>
      <trkpt lat="46.16355" lon="6.85197">
        <ele>1275</ele>
        <time>2000-01-01T04:01:44.000Z</time>
      </trkpt>
      <trkpt lat="46.16389" lon="6.85233">
        <ele>1275</ele>
        <time>2000-01-01T04:01:54.000Z</time>
      </trkpt>
      <trkpt lat="46.16418" lon="6.85283">
        <ele>1270</ele>
        <time>2000-01-01T04:02:04.000Z</time>
      </trkpt>
      <trkpt lat="46.16436" lon="6.85329">
        <ele>1263</ele>
        <time>2000-01-01T04:02:14.000Z</time>
      </trkpt>
      <trkpt lat="46.16448" lon="6.85352">
        <ele>1263</ele>
        <time>2000-01-01T04:02:24.000Z</time>
      </trkpt>
      <trkpt lat="46.16471" lon="6.85378">
        <ele>1259</ele>
        <time>2000-01-01T04:02:34.000Z</time>
      </trkpt>
      <trkpt lat="46.16485" lon="6.85411">
        <ele>1255</ele>
        <time>2000-01-01T04:02:44.000Z</time>
      </trkpt>
      <trkpt lat="46.16503" lon="6.85455">
        <ele>1252</ele>
        <time>2000-01-01T04:02:54.000Z</time>
      </trkpt>
      <trkpt lat="46.16516" lon="6.85468">
        <ele>1239</ele>
        <time>2000-01-01T04:03:04.000Z</time>
      </trkpt>
      <trkpt lat="46.16546" lon="6.85487">
        <ele>1250</ele>
        <time>2000-01-01T04:03:14.000Z</time>
      </trkpt>
      <trkpt lat="46.16568" lon="6.85505">
        <ele>1247</ele>
        <time>2000-01-01T04:03:24.000Z</time>
      </trkpt>
      <trkpt lat="46.16577" lon="6.85512">
        <ele>1229.8</ele>
        <time>2000-01-01T04:03:34.000Z</time>
      </trkpt>
      <trkpt lat="46.16584" lon="6.85523">
        <ele>1247</ele>
        <time>2000-01-01T04:03:44.000Z</time>
      </trkpt>
      <trkpt lat="46.16596" lon="6.85555">
        <ele>1240</ele>
        <time>2000-01-01T04:03:54.000Z</time>
      </trkpt>
      <trkpt lat="46.16603" lon="6.85596">
        <ele>1239</ele>
        <time>2000-01-01T04:04:04.000Z</time>
      </trkpt>
      <trkpt lat="46.16614" lon="6.85605">
        <ele>1214.8</ele>
        <time>2000-01-01T04:04:14.000Z</time>
      </trkpt>
      <trkpt lat="46.16641" lon="6.85608">
        <ele>1239</ele>
        <time>2000-01-01T04:04:24.000Z</time>
      </trkpt>
      <trkpt lat="46.16647" lon="6.85616">
        <ele>1211.5</ele>
        <time>2000-01-01T04:04:34.000Z</time>
      </trkpt>
      <trkpt lat="46.16649" lon="6.85634">
        <ele>1229</ele>
        <time>2000-01-01T04:04:44.000Z</time>
      </trkpt>
      <trkpt lat="46.16657" lon="6.85676">
        <ele>1219</ele>
        <time>2000-01-01T04:04:54.000Z</time>
      </trkpt>
      <trkpt lat="46.16665" lon="6.85696">
        <ele>1196.6</ele>
        <time>2000-01-01T04:05:04.000Z</time>
      </trkpt>
      <trkpt lat="46.16699" lon="6.85743">
        <ele>1215</ele>
        <time>2000-01-01T04:05:14.000Z</time>
      </trkpt>
      <trkpt lat="46.16711" lon="6.85765">
        <ele>1212</ele>
        <time>2000-01-01T04:05:24.000Z</time>
      </trkpt>
      <trkpt lat="46.16732" lon="6.85794">
        <ele>1204</ele>
        <time>2000-01-01T04:05:34.000Z</time>
      </trkpt>
      <trkpt lat="46.16749" lon="6.85818">
        <ele>1198</ele>
        <time>2000-01-01T04:05:44.000Z</time>
      </trkpt>
      <trkpt lat="46.16768" lon="6.85843">
        <ele>1193</ele>
        <time>2000-01-01T04:05:54.000Z</time>
      </trkpt>
      <trkpt lat="46.16787" lon="6.85862">
        <ele>1189</ele>
        <time>2000-01-01T04:06:04.000Z</time>
      </trkpt>
      <trkpt lat="46.16807" lon="6.85881">
        <ele>1193</ele>
        <time>2000-01-01T04:06:14.000Z</time>
      </trkpt>
      <trkpt lat="46.16818" lon="6.85886">
        <ele>1179.9</ele>
        <time>2000-01-01T04:06:24.000Z</time>
      </trkpt>
      <trkpt lat="46.16831" lon="6.85888">
        <ele>1185</ele>
        <time>2000-01-01T04:06:34.000Z</time>
      </trkpt>
      <trkpt lat="46.16839" lon="6.859">
        <ele>1179.3</ele>
        <time>2000-01-01T04:06:44.000Z</time>
      </trkpt>
      <trkpt lat="46.16841" lon="6.85955">
        <ele>1178</ele>
        <time>2000-01-01T04:06:54.000Z</time>
      </trkpt>
      <trkpt lat="46.16848" lon="6.85978">
        <ele>1170.4</ele>
        <time>2000-01-01T04:07:04.000Z</time>
      </trkpt>
      <trkpt lat="46.1695" lon="6.86059">
        <ele>1164</ele>
        <time>2000-01-01T04:07:14.000Z</time>
      </trkpt>
      <trkpt lat="46.16972" lon="6.86075">
        <ele>1162</ele>
        <time>2000-01-01T04:07:24.000Z</time>
      </trkpt>
      <trkpt lat="46.16999" lon="6.86094">
        <ele>1157</ele>
        <time>2000-01-01T04:07:34.000Z</time>
      </trkpt>
      <trkpt lat="46.1702" lon="6.86105">
        <ele>1157</ele>
        <time>2000-01-01T04:07:44.000Z</time>
      </trkpt>
      <trkpt lat="46.17047" lon="6.86147">
        <ele>1149</ele>
        <time>2000-01-01T04:07:54.000Z</time>
      </trkpt>
      <trkpt lat="46.17066" lon="6.86173">
        <ele>1142</ele>
        <time>2000-01-01T04:08:04.000Z</time>
      </trkpt>
      <trkpt lat="46.17086" lon="6.86204">
        <ele>1134</ele>
        <time>2000-01-01T04:08:14.000Z</time>
      </trkpt>
      <trkpt lat="46.1711" lon="6.86248">
        <ele>1123</ele>
        <time>2000-01-01T04:08:24.000Z</time>
      </trkpt>
      <trkpt lat="46.17126" lon="6.86279">
        <ele>1115</ele>
        <time>2000-01-01T04:08:34.000Z</time>
      </trkpt>
      <trkpt lat="46.17139" lon="6.86293">
        <ele>1106</ele>
        <time>2000-01-01T04:08:44.000Z</time>
      </trkpt>
      <trkpt lat="46.17153" lon="6.86305">
        <ele>1107</ele>
        <time>2000-01-01T04:08:54.000Z</time>
      </trkpt>
      <trkpt lat="46.1716" lon="6.86322">
        <ele>1098.1</ele>
        <time>2000-01-01T04:09:04.000Z</time>
      </trkpt>
      <trkpt lat="46.17168" lon="6.86338">
        <ele>1100</ele>
        <time>2000-01-01T04:09:14.000Z</time>
      </trkpt>
      <trkpt lat="46.17176" lon="6.86349">
        <ele>1093.1</ele>
        <time>2000-01-01T04:09:24.000Z</time>
      </trkpt>
      <trkpt lat="46.17184" lon="6.86354">
        <ele>1096</ele>
        <time>2000-01-01T04:09:34.000Z</time>
      </trkpt>
      <trkpt lat="46.1719" lon="6.86361">
        <ele>1090.2</ele>
        <time>2000-01-01T04:09:44.000Z</time>
      </trkpt>
      <trkpt lat="46.17201" lon="6.86363">
        <ele>1095</ele>
        <time>2000-01-01T04:09:54.000Z</time>
      </trkpt>
      <trkpt lat="46.17212" lon="6.86378">
        <ele>1088.1</ele>
        <time>2000-01-01T04:10:04.000Z</time>
      </trkpt>
      <trkpt lat="46.17226" lon="6.86398">
        <ele>1090</ele>
        <time>2000-01-01T04:10:14.000Z</time>
      </trkpt>
      <trkpt lat="46.17246" lon="6.86414">
        <ele>1087</ele>
        <time>2000-01-01T04:10:24.000Z</time>
      </trkpt>
      <trkpt lat="46.17258" lon="6.86435">
        <ele>1085.2</ele>
        <time>2000-01-01T04:10:34.000Z</time>
      </trkpt>
      <trkpt lat="46.17268" lon="6.86447">
        <ele>1084</ele>
        <time>2000-01-01T04:10:44.000Z</time>
      </trkpt>
      <trkpt lat="46.17278" lon="6.86461">
        <ele>1083.2</ele>
        <time>2000-01-01T04:10:54.000Z</time>
      </trkpt>
      <trkpt lat="46.17293" lon="6.8647">
        <ele>1083</ele>
        <time>2000-01-01T04:11:04.000Z</time>
      </trkpt>
      <trkpt lat="46.17312" lon="6.86491">
        <ele>1083</ele>
        <time>2000-01-01T04:11:14.000Z</time>
      </trkpt>
      <trkpt lat="46.17329" lon="6.86516">
        <ele>1081</ele>
        <time>2000-01-01T04:11:24.000Z</time>
      </trkpt>
      <trkpt lat="46.17347" lon="6.86546">
        <ele>1078</ele>
        <time>2000-01-01T04:11:34.000Z</time>
      </trkpt>
      <trkpt lat="46.1737" lon="6.86572">
        <ele>1075</ele>
        <time>2000-01-01T04:11:44.000Z</time>
      </trkpt>
      <trkpt lat="46.17392" lon="6.86599">
        <ele>1075</ele>
        <time>2000-01-01T04:11:54.000Z</time>
      </trkpt>
      <trkpt lat="46.17394" lon="6.86601">
        <ele>1076.9</ele>
        <time>2000-01-01T04:12:04.000Z</time>
      </trkpt>
      <trkpt lat="46.17403" lon="6.86609">
        <ele>1075.3</ele>
        <time>2000-01-01T04:12:14.000Z</time>
      </trkpt>
      <trkpt lat="46.17418" lon="6.86616">
        <ele>1076</ele>
        <time>2000-01-01T04:12:24.000Z</time>
      </trkpt>
      <trkpt lat="46.17449" lon="6.86628">
        <ele>1076</ele>
        <time>2000-01-01T04:12:34.000Z</time>
      </trkpt>
      <trkpt lat="46.17479" lon="6.8664">
        <ele>1075</ele>
        <time>2000-01-01T04:12:44.000Z</time>
      </trkpt>
      <trkpt lat="46.17514" lon="6.86654">
        <ele>1073</ele>
        <time>2000-01-01T04:12:54.000Z</time>
      </trkpt>
      <trkpt lat="46.17522" lon="6.8667">
        <ele>1063.6</ele>
        <time>2000-01-01T04:13:04.000Z</time>
      </trkpt>
      <trkpt lat="46.17472" lon="6.8673">
        <ele>1060</ele>
        <time>2000-01-01T04:13:14.000Z</time>
      </trkpt>
      <trkpt lat="46.17437" lon="6.86764">
        <ele>1056</ele>
        <time>2000-01-01T04:13:24.000Z</time>
      </trkpt>
      <trkpt lat="46.17436" lon="6.86785">
        <ele>1050.4</ele>
        <time>2000-01-01T04:13:34.000Z</time>
      </trkpt>
      <trkpt lat="46.17443" lon="6.86806">
        <ele>1053</ele>
        <time>2000-01-01T04:13:44.000Z</time>
      </trkpt>
      <trkpt lat="46.17474" lon="6.86851">
        <ele>1048</ele>
        <time>2000-01-01T04:13:54.000Z</time>
      </trkpt>
      <trkpt lat="46.17481" lon="6.86861">
        <ele>1045.7</ele>
        <time>2000-01-01T04:14:04.000Z</time>
      </trkpt>
      <trkpt lat="46.1749" lon="6.86874">
        <ele>1046</ele>
        <time>2000-01-01T04:14:14.000Z</time>
      </trkpt>
      <trkpt lat="46.17522" lon="6.8692">
        <ele>1044</ele>
        <time>2000-01-01T04:14:24.000Z</time>
      </trkpt>
      <trkpt lat="46.17528" lon="6.86936">
        <ele>1040.6</ele>
        <time>2000-01-01T04:14:34.000Z</time>
      </trkpt>
      <trkpt lat="46.17529" lon="6.86944">
        <ele>1040.1</ele>
        <time>2000-01-01T04:14:44.000Z</time>
      </trkpt>
      <trkpt lat="46.1751" lon="6.87041">
        <ele>1042</ele>
        <time>2000-01-01T04:14:54.000Z</time>
      </trkpt>
      <trkpt lat="46.17496" lon="6.87035">
        <ele>1033.7</ele>
        <time>2000-01-01T04:15:04.000Z</time>
      </trkpt>
      <trkpt lat="46.17512" lon="6.86959">
        <ele>1444</ele>
        <time>2000-01-01T04:15:14.000Z</time>
      </trkpt>
      <trkpt lat="46.1751" lon="6.86958">
        <ele>1038.4</ele>
        <time>2000-01-01T04:15:24.000Z</time>
      </trkpt>
      <trkpt lat="46.17506" lon="6.84722">
        <ele>1846</ele>
        <time>2000-01-01T04:15:34.000Z</time>
      </trkpt>
      <trkpt lat="46.17511" lon="6.84673">
        <ele>1890</ele>
        <time>2000-01-01T04:15:44.000Z</time>
      </trkpt>
      <trkpt lat="46.17516" lon="6.84625">
        <ele>1913</ele>
        <time>2000-01-01T04:15:54.000Z</time>
      </trkpt>
      <trkpt lat="46.17519" lon="6.84589">
        <ele>1920</ele>
        <time>2000-01-01T04:16:04.000Z</time>
      </trkpt>
      <trkpt lat="46.17523" lon="6.84547">
        <ele>1921</ele>
        <time>2000-01-01T04:16:14.000Z</time>
      </trkpt>
      <trkpt lat="46.17517" lon="6.84529">
        <ele>1936.5</ele>
        <time>2000-01-01T04:16:24.000Z</time>
      </trkpt>
      <trkpt lat="46.1753" lon="6.845">
        <ele>1920</ele>
        <time>2000-01-01T04:16:34.000Z</time>
      </trkpt>
      <trkpt lat="46.17556" lon="6.84463">
        <ele>1919</ele>
        <time>2000-01-01T04:16:44.000Z</time>
      </trkpt>
      <trkpt lat="46.17573" lon="6.84448">
        <ele>1916</ele>
        <time>2000-01-01T04:16:54.000Z</time>
      </trkpt>
      <trkpt lat="46.17576" lon="6.84427">
        <ele>1920.6</ele>
        <time>2000-01-01T04:17:04.000Z</time>
      </trkpt>
      <trkpt lat="46.17576" lon="6.8438">
        <ele>1907</ele>
        <time>2000-01-01T04:17:14.000Z</time>
      </trkpt>
      <trkpt lat="46.1758" lon="6.84331">
        <ele>1899</ele>
        <time>2000-01-01T04:17:24.000Z</time>
      </trkpt>
      <trkpt lat="46.1758" lon="6.8432">
        <ele>1908</ele>
        <time>2000-01-01T04:17:34.000Z</time>
      </trkpt>
      <trkpt lat="46.17576" lon="6.84308">
        <ele>1907.4</ele>
        <time>2000-01-01T04:17:44.000Z</time>
      </trkpt>
      <trkpt lat="46.17574" lon="6.84274">
        <ele>1899</ele>
        <time>2000-01-01T04:17:54.000Z</time>
      </trkpt>
      <trkpt lat="46.1757" lon="6.84241">
        <ele>1898</ele>
        <time>2000-01-01T04:18:04.000Z</time>
      </trkpt>
      <trkpt lat="46.17573" lon="6.84193">
        <ele>1898</ele>
        <time>2000-01-01T04:18:14.000Z</time>
      </trkpt>
      <trkpt lat="46.17586" lon="6.8414">
        <ele>1897</ele>
        <time>2000-01-01T04:18:24.000Z</time>
      </trkpt>
      <trkpt lat="46.17595" lon="6.84075">
        <ele>1893</ele>
        <time>2000-01-01T04:18:34.000Z</time>
      </trkpt>
      <trkpt lat="46.17604" lon="6.84037">
        <ele>1892</ele>
        <time>2000-01-01T04:18:44.000Z</time>
      </trkpt>
      <trkpt lat="46.17616" lon="6.83983">
        <ele>1892</ele>
        <time>2000-01-01T04:18:54.000Z</time>
      </trkpt>
      <trkpt lat="46.17621" lon="6.83942">
        <ele>1888</ele>
        <time>2000-01-01T04:19:04.000Z</time>
      </trkpt>
      <trkpt lat="46.17626" lon="6.83908">
        <ele>1882</ele>
        <time>2000-01-01T04:19:14.000Z</time>
      </trkpt>
      <trkpt lat="46.1763" lon="6.83875">
        <ele>1877</ele>
        <time>2000-01-01T04:19:24.000Z</time>
      </trkpt>
      <trkpt lat="46.17635" lon="6.83856">
        <ele>1878.8</ele>
        <time>2000-01-01T04:19:34.000Z</time>
      </trkpt>
      <trkpt lat="46.17655" lon="6.83803">
        <ele>1871</ele>
        <time>2000-01-01T04:19:44.000Z</time>
      </trkpt>
      <trkpt lat="46.17666" lon="6.83781">
        <ele>1869</ele>
        <time>2000-01-01T04:19:54.000Z</time>
      </trkpt>
      <trkpt lat="46.17678" lon="6.83763">
        <ele>1867.6</ele>
        <time>2000-01-01T04:20:04.000Z</time>
      </trkpt>
      <trkpt lat="46.17701" lon="6.83752">
        <ele>1864</ele>
        <time>2000-01-01T04:20:14.000Z</time>
      </trkpt>
      <trkpt lat="46.17727" lon="6.83744">
        <ele>1861</ele>
        <time>2000-01-01T04:20:24.000Z</time>
      </trkpt>
      <trkpt lat="46.17739" lon="6.83744">
        <ele>1861.8</ele>
        <time>2000-01-01T04:20:34.000Z</time>
      </trkpt>
      <trkpt lat="46.17756" lon="6.83727">
        <ele>1858</ele>
        <time>2000-01-01T04:20:44.000Z</time>
      </trkpt>
      <trkpt lat="46.17761" lon="6.83719">
        <ele>1855.6</ele>
        <time>2000-01-01T04:20:54.000Z</time>
      </trkpt>
      <trkpt lat="46.17765" lon="6.83703">
        <ele>1852</ele>
        <time>2000-01-01T04:21:04.000Z</time>
      </trkpt>
      <trkpt lat="46.17765" lon="6.83673">
        <ele>1848</ele>
        <time>2000-01-01T04:21:14.000Z</time>
      </trkpt>
      <trkpt lat="46.17747" lon="6.83645">
        <ele>1844</ele>
        <time>2000-01-01T04:21:24.000Z</time>
      </trkpt>
      <trkpt lat="46.17741" lon="6.83632">
        <ele>1841.5</ele>
        <time>2000-01-01T04:21:34.000Z</time>
      </trkpt>
      <trkpt lat="46.17739" lon="6.83616">
        <ele>1839</ele>
        <time>2000-01-01T04:21:44.000Z</time>
      </trkpt>
      <trkpt lat="46.17743" lon="6.83587">
        <ele>1835</ele>
        <time>2000-01-01T04:21:54.000Z</time>
      </trkpt>
      <trkpt lat="46.17754" lon="6.83554">
        <ele>1832</ele>
        <time>2000-01-01T04:22:04.000Z</time>
      </trkpt>
      <trkpt lat="46.17766" lon="6.83515">
        <ele>1828</ele>
        <time>2000-01-01T04:22:14.000Z</time>
      </trkpt>
      <trkpt lat="46.1777" lon="6.8347">
        <ele>1825</ele>
        <time>2000-01-01T04:22:24.000Z</time>
      </trkpt>
      <trkpt lat="46.17776" lon="6.83461">
        <ele>1828.2</ele>
        <time>2000-01-01T04:22:34.000Z</time>
      </trkpt>
      <trkpt lat="46.17778" lon="6.83448">
        <ele>1827.2</ele>
        <time>2000-01-01T04:22:44.000Z</time>
      </trkpt>
      <trkpt lat="46.17776" lon="6.83421">
        <ele>1819</ele>
        <time>2000-01-01T04:22:54.000Z</time>
      </trkpt>
      <trkpt lat="46.17764" lon="6.83385">
        <ele>1815</ele>
        <time>2000-01-01T04:23:04.000Z</time>
      </trkpt>
      <trkpt lat="46.17751" lon="6.83356">
        <ele>1810</ele>
        <time>2000-01-01T04:23:14.000Z</time>
      </trkpt>
      <trkpt lat="46.17755" lon="6.83346">
        <ele>1814.5</ele>
        <time>2000-01-01T04:23:24.000Z</time>
      </trkpt>
      <trkpt lat="46.17763" lon="6.83337">
        <ele>1812.9</ele>
        <time>2000-01-01T04:23:34.000Z</time>
      </trkpt>
      <trkpt lat="46.17764" lon="6.83329">
        <ele>1808</ele>
        <time>2000-01-01T04:23:44.000Z</time>
      </trkpt>
      <trkpt lat="46.17778" lon="6.83292">
        <ele>1806</ele>
        <time>2000-01-01T04:23:54.000Z</time>
      </trkpt>
      <trkpt lat="46.1779" lon="6.83262">
        <ele>1806</ele>
        <time>2000-01-01T04:24:04.000Z</time>
      </trkpt>
      <trkpt lat="46.17802" lon="6.83229">
        <ele>1806</ele>
        <time>2000-01-01T04:24:14.000Z</time>
      </trkpt>
      <trkpt lat="46.17807" lon="6.83197">
        <ele>1806</ele>
        <time>2000-01-01T04:24:24.000Z</time>
      </trkpt>
      <trkpt lat="46.17821" lon="6.83138">
        <ele>1807</ele>
        <time>2000-01-01T04:24:34.000Z</time>
      </trkpt>
      <trkpt lat="46.17835" lon="6.83087">
        <ele>1807</ele>
        <time>2000-01-01T04:24:44.000Z</time>
      </trkpt>
      <trkpt lat="46.17842" lon="6.83048">
        <ele>1805</ele>
        <time>2000-01-01T04:24:54.000Z</time>
      </trkpt>
      <trkpt lat="46.17854" lon="6.83053">
        <ele>1808.1</ele>
        <time>2000-01-01T04:25:04.000Z</time>
      </trkpt>
      <trkpt lat="46.17865" lon="6.8305">
        <ele>1804</ele>
        <time>2000-01-01T04:25:14.000Z</time>
      </trkpt>
      <trkpt lat="46.17886" lon="6.83007">
        <ele>1803</ele>
        <time>2000-01-01T04:25:24.000Z</time>
      </trkpt>
      <trkpt lat="46.17891" lon="6.82989">
        <ele>1803.1</ele>
        <time>2000-01-01T04:25:34.000Z</time>
      </trkpt>
      <trkpt lat="46.17917" lon="6.82976">
        <ele>1799</ele>
        <time>2000-01-01T04:25:44.000Z</time>
      </trkpt>
      <trkpt lat="46.17936" lon="6.82954">
        <ele>1797</ele>
        <time>2000-01-01T04:25:54.000Z</time>
      </trkpt>
      <trkpt lat="46.17949" lon="6.8293">
        <ele>1796</ele>
        <time>2000-01-01T04:26:04.000Z</time>
      </trkpt>
      <trkpt lat="46.17962" lon="6.82916">
        <ele>1785.9</ele>
        <time>2000-01-01T04:26:14.000Z</time>
      </trkpt>
      <trkpt lat="46.17974" lon="6.82914">
        <ele>1791</ele>
        <time>2000-01-01T04:26:24.000Z</time>
      </trkpt>
      <trkpt lat="46.17989" lon="6.82921">
        <ele>1777.6</ele>
        <time>2000-01-01T04:26:34.000Z</time>
      </trkpt>
      <trkpt lat="46.18019" lon="6.82922">
        <ele>1778</ele>
        <time>2000-01-01T04:26:44.000Z</time>
      </trkpt>
      <trkpt lat="46.18022" lon="6.82928">
        <ele>1768.6</ele>
        <time>2000-01-01T04:26:54.000Z</time>
      </trkpt>
      <trkpt lat="46.1804" lon="6.82926">
        <ele>1774</ele>
        <time>2000-01-01T04:27:04.000Z</time>
      </trkpt>
      <trkpt lat="46.18055" lon="6.82916">
        <ele>1765.2</ele>
        <time>2000-01-01T04:27:14.000Z</time>
      </trkpt>
      <trkpt lat="46.18072" lon="6.829">
        <ele>1771</ele>
        <time>2000-01-01T04:27:24.000Z</time>
      </trkpt>
      <trkpt lat="46.181" lon="6.82894">
        <ele>1767</ele>
        <time>2000-01-01T04:27:34.000Z</time>
      </trkpt>
      <trkpt lat="46.18136" lon="6.8288">
        <ele>1763</ele>
        <time>2000-01-01T04:27:44.000Z</time>
      </trkpt>
      <trkpt lat="46.1814" lon="6.82881">
        <ele>1753.9</ele>
        <time>2000-01-01T04:27:54.000Z</time>
      </trkpt>
      <trkpt lat="46.18143" lon="6.82887">
        <ele>1753.2</ele>
        <time>2000-01-01T04:28:04.000Z</time>
      </trkpt>
      <trkpt lat="46.18153" lon="6.8289">
        <ele>1761</ele>
        <time>2000-01-01T04:28:14.000Z</time>
      </trkpt>
      <trkpt lat="46.18163" lon="6.82881">
        <ele>1753.9</ele>
        <time>2000-01-01T04:28:24.000Z</time>
      </trkpt>
      <trkpt lat="46.18173" lon="6.82869">
        <ele>1759</ele>
        <time>2000-01-01T04:28:34.000Z</time>
      </trkpt>
      <trkpt lat="46.18175" lon="6.82863">
        <ele>1753.9</ele>
        <time>2000-01-01T04:28:44.000Z</time>
      </trkpt>
      <trkpt lat="46.18188" lon="6.82864">
        <ele>1750.8</ele>
        <time>2000-01-01T04:28:54.000Z</time>
      </trkpt>
      <trkpt lat="46.18192" lon="6.82869">
        <ele>1756</ele>
        <time>2000-01-01T04:29:04.000Z</time>
      </trkpt>
      <trkpt lat="46.18191" lon="6.82894">
        <ele>1745.1</ele>
        <time>2000-01-01T04:29:14.000Z</time>
      </trkpt>
      <trkpt lat="46.18201" lon="6.8292">
        <ele>1744</ele>
        <time>2000-01-01T04:29:24.000Z</time>
      </trkpt>
      <trkpt lat="46.18206" lon="6.82956">
        <ele>1738</ele>
        <time>2000-01-01T04:29:34.000Z</time>
      </trkpt>
      <trkpt lat="46.18215" lon="6.82968">
        <ele>1729.7</ele>
        <time>2000-01-01T04:29:44.000Z</time>
      </trkpt>
      <trkpt lat="46.18217" lon="6.83004">
        <ele>1727</ele>
        <time>2000-01-01T04:29:54.000Z</time>
      </trkpt>
      <trkpt lat="46.18224" lon="6.83015">
        <ele>1718.2</ele>
        <time>2000-01-01T04:30:04.000Z</time>
      </trkpt>
      <trkpt lat="46.18223" lon="6.83022">
        <ele>1717</ele>
        <time>2000-01-01T04:30:14.000Z</time>
      </trkpt>
      <trkpt lat="46.18218" lon="6.83026">
        <ele>1724</ele>
        <time>2000-01-01T04:30:24.000Z</time>
      </trkpt>
      <trkpt lat="46.18224" lon="6.83051">
        <ele>1711.3</ele>
        <time>2000-01-01T04:30:34.000Z</time>
      </trkpt>
      <trkpt lat="46.18243" lon="6.8308">
        <ele>1712</ele>
        <time>2000-01-01T04:30:44.000Z</time>
      </trkpt>
      <trkpt lat="46.18256" lon="6.83093">
        <ele>1700.9</ele>
        <time>2000-01-01T04:30:54.000Z</time>
      </trkpt>
      <trkpt lat="46.18263" lon="6.83113">
        <ele>1706</ele>
        <time>2000-01-01T04:31:04.000Z</time>
      </trkpt>
      <trkpt lat="46.18263" lon="6.83124">
        <ele>1696.5</ele>
        <time>2000-01-01T04:31:14.000Z</time>
      </trkpt>
      <trkpt lat="46.18277" lon="6.83123">
        <ele>1704</ele>
        <time>2000-01-01T04:31:24.000Z</time>
      </trkpt>
      <trkpt lat="46.18284" lon="6.83132">
        <ele>1693.8</ele>
        <time>2000-01-01T04:31:34.000Z</time>
      </trkpt>
      <trkpt lat="46.1829" lon="6.83147">
        <ele>1702</ele>
        <time>2000-01-01T04:31:44.000Z</time>
      </trkpt>
      <trkpt lat="46.18312" lon="6.83167">
        <ele>1699</ele>
        <time>2000-01-01T04:31:54.000Z</time>
      </trkpt>
      <trkpt lat="46.18321" lon="6.83186">
        <ele>1689</ele>
        <time>2000-01-01T04:32:04.000Z</time>
      </trkpt>
      <trkpt lat="46.18323" lon="6.83195">
        <ele>1695</ele>
        <time>2000-01-01T04:32:14.000Z</time>
      </trkpt>
      <trkpt lat="46.18322" lon="6.83232">
        <ele>1692</ele>
        <time>2000-01-01T04:32:24.000Z</time>
      </trkpt>
      <trkpt lat="46.18311" lon="6.83266">
        <ele>1692</ele>
        <time>2000-01-01T04:32:34.000Z</time>
      </trkpt>
      <trkpt lat="46.18304" lon="6.83278">
        <ele>1686.4</ele>
        <time>2000-01-01T04:32:44.000Z</time>
      </trkpt>
      <trkpt lat="46.18339" lon="6.83322">
        <ele>1686</ele>
        <time>2000-01-01T04:32:54.000Z</time>
      </trkpt>
      <trkpt lat="46.1834" lon="6.8338">
        <ele>1684</ele>
        <time>2000-01-01T04:33:04.000Z</time>
      </trkpt>
      <trkpt lat="46.18355" lon="6.83419">
        <ele>1683</ele>
        <time>2000-01-01T04:33:14.000Z</time>
      </trkpt>
      <trkpt lat="46.18363" lon="6.83418">
        <ele>1679</ele>
        <time>2000-01-01T04:33:24.000Z</time>
      </trkpt>
      <trkpt lat="46.18383" lon="6.83411">
        <ele>1683</ele>
        <time>2000-01-01T04:33:34.000Z</time>
      </trkpt>
      <trkpt lat="46.18381" lon="6.83416">
        <ele>1679</ele>
        <time>2000-01-01T04:33:44.000Z</time>
      </trkpt>
      <trkpt lat="46.1919" lon="6.81566">
        <ele>2240</ele>
        <time>2000-01-01T04:33:54.000Z</time>
      </trkpt>
      <trkpt lat="46.19188" lon="6.81537">
        <ele>2242</ele>
        <time>2000-01-01T04:34:04.000Z</time>
      </trkpt>
      <trkpt lat="46.19179" lon="6.81502">
        <ele>2240</ele>
        <time>2000-01-01T04:34:14.000Z</time>
      </trkpt>
      <trkpt lat="46.19163" lon="6.81484">
        <ele>2239</ele>
        <time>2000-01-01T04:34:24.000Z</time>
      </trkpt>
      <trkpt lat="46.19149" lon="6.81474">
        <ele>2238.9</ele>
        <time>2000-01-01T04:34:34.000Z</time>
      </trkpt>
      <trkpt lat="46.19133" lon="6.81471">
        <ele>2232</ele>
        <time>2000-01-01T04:34:44.000Z</time>
      </trkpt>
      <trkpt lat="46.1909" lon="6.81474">
        <ele>2217</ele>
        <time>2000-01-01T04:34:54.000Z</time>
      </trkpt>
      <trkpt lat="46.19078" lon="6.81483">
        <ele>2228.5</ele>
        <time>2000-01-01T04:35:04.000Z</time>
      </trkpt>
      <trkpt lat="46.19065" lon="6.81499">
        <ele>2215</ele>
        <time>2000-01-01T04:35:14.000Z</time>
      </trkpt>
      <trkpt lat="46.19042" lon="6.81532">
        <ele>2213</ele>
        <time>2000-01-01T04:35:24.000Z</time>
      </trkpt>
      <trkpt lat="46.19033" lon="6.81557">
        <ele>2210</ele>
        <time>2000-01-01T04:35:34.000Z</time>
      </trkpt>
      <trkpt lat="46.19018" lon="6.81586">
        <ele>2209</ele>
        <time>2000-01-01T04:35:44.000Z</time>
      </trkpt>
      <trkpt lat="46.18995" lon="6.81617">
        <ele>2203</ele>
        <time>2000-01-01T04:35:54.000Z</time>
      </trkpt>
      <trkpt lat="46.18958" lon="6.81656">
        <ele>2192</ele>
        <time>2000-01-01T04:36:04.000Z</time>
      </trkpt>
      <trkpt lat="46.1892" lon="6.81689">
        <ele>2183</ele>
        <time>2000-01-01T04:36:14.000Z</time>
      </trkpt>
      <trkpt lat="46.18894" lon="6.81695">
        <ele>2174</ele>
        <time>2000-01-01T04:36:24.000Z</time>
      </trkpt>
      <trkpt lat="46.18861" lon="6.81703">
        <ele>2168</ele>
        <time>2000-01-01T04:36:34.000Z</time>
      </trkpt>
      <trkpt lat="46.18848" lon="6.8172">
        <ele>2178.5</ele>
        <time>2000-01-01T04:36:44.000Z</time>
      </trkpt>
      <trkpt lat="46.18859" lon="6.8172">
        <ele>2168</ele>
        <time>2000-01-01T04:36:54.000Z</time>
      </trkpt>
      <trkpt lat="46.18879" lon="6.81712">
        <ele>2169</ele>
        <time>2000-01-01T04:37:04.000Z</time>
      </trkpt>
      <trkpt lat="46.18894" lon="6.81713">
        <ele>2180.3</ele>
        <time>2000-01-01T04:37:14.000Z</time>
      </trkpt>
      <trkpt lat="46.18911" lon="6.81733">
        <ele>2172</ele>
        <time>2000-01-01T04:37:24.000Z</time>
      </trkpt>
      <trkpt lat="46.18917" lon="6.81734">
        <ele>2178.2</ele>
        <time>2000-01-01T04:37:34.000Z</time>
      </trkpt>
      <trkpt lat="46.18928" lon="6.8173">
        <ele>2179.7</ele>
        <time>2000-01-01T04:37:44.000Z</time>
      </trkpt>
      <trkpt lat="46.1894" lon="6.81737">
        <ele>2169</ele>
        <time>2000-01-01T04:37:54.000Z</time>
      </trkpt>
      <trkpt lat="46.1895" lon="6.81762">
        <ele>2172</ele>
        <time>2000-01-01T04:38:04.000Z</time>
      </trkpt>
      <trkpt lat="46.18955" lon="6.81769">
        <ele>2166</ele>
        <time>2000-01-01T04:38:14.000Z</time>
      </trkpt>
      <trkpt lat="46.18961" lon="6.8177">
        <ele>2166.2</ele>
        <time>2000-01-01T04:38:24.000Z</time>
      </trkpt>
      <trkpt lat="46.18973" lon="6.81761">
        <ele>2176</ele>
        <time>2000-01-01T04:38:34.000Z</time>
      </trkpt>
      <trkpt lat="46.18981" lon="6.81761">
        <ele>2171.2</ele>
        <time>2000-01-01T04:38:44.000Z</time>
      </trkpt>
      <trkpt lat="46.19003" lon="6.81773">
        <ele>2170</ele>
        <time>2000-01-01T04:38:54.000Z</time>
      </trkpt>
      <trkpt lat="46.19007" lon="6.81779">
        <ele>2168.3</ele>
        <time>2000-01-01T04:39:04.000Z</time>
      </trkpt>
      <trkpt lat="46.19013" lon="6.81804">
        <ele>2167</ele>
        <time>2000-01-01T04:39:14.000Z</time>
      </trkpt>
      <trkpt lat="46.1902" lon="6.81816">
        <ele>2157.4</ele>
        <time>2000-01-01T04:39:24.000Z</time>
      </trkpt>
      <trkpt lat="46.19024" lon="6.81816">
        <ele>2159</ele>
        <time>2000-01-01T04:39:34.000Z</time>
      </trkpt>
      <trkpt lat="46.19037" lon="6.81807">
        <ele>2165</ele>
        <time>2000-01-01T04:39:44.000Z</time>
      </trkpt>
      <trkpt lat="46.19046" lon="6.81806">
        <ele>2160.2</ele>
        <time>2000-01-01T04:39:54.000Z</time>
      </trkpt>
      <trkpt lat="46.19054" lon="6.81808">
        <ele>2157.3</ele>
        <time>2000-01-01T04:40:04.000Z</time>
      </trkpt>
      <trkpt lat="46.19069" lon="6.81825">
        <ele>2158</ele>
        <time>2000-01-01T04:40:14.000Z</time>
      </trkpt>
      <trkpt lat="46.19078" lon="6.8186">
        <ele>2145</ele>
        <time>2000-01-01T04:40:24.000Z</time>
      </trkpt>
      <trkpt lat="46.1909" lon="6.81879">
        <ele>2144.8</ele>
        <time>2000-01-01T04:40:34.000Z</time>
      </trkpt>
      <trkpt lat="46.19097" lon="6.81895">
        <ele>2133</ele>
        <time>2000-01-01T04:40:44.000Z</time>
      </trkpt>
      <trkpt lat="46.19106" lon="6.8191">
        <ele>2137.5</ele>
        <time>2000-01-01T04:40:54.000Z</time>
      </trkpt>
      <trkpt lat="46.19123" lon="6.81927">
        <ele>2123</ele>
        <time>2000-01-01T04:41:04.000Z</time>
      </trkpt>
      <trkpt lat="46.19131" lon="6.81941">
        <ele>2127.8</ele>
        <time>2000-01-01T04:41:14.000Z</time>
      </trkpt>
      <trkpt lat="46.19132" lon="6.82007">
        <ele>2105</ele>
        <time>2000-01-01T04:41:24.000Z</time>
      </trkpt>
      <trkpt lat="46.19147" lon="6.82037">
        <ele>2100</ele>
        <time>2000-01-01T04:41:34.000Z</time>
      </trkpt>
      <trkpt lat="46.19165" lon="6.82075">
        <ele>2095</ele>
        <time>2000-01-01T04:41:44.000Z</time>
      </trkpt>
      <trkpt lat="46.19173" lon="6.82101">
        <ele>2089</ele>
        <time>2000-01-01T04:41:54.000Z</time>
      </trkpt>
      <trkpt lat="46.19178" lon="6.82112">
        <ele>2096.1</ele>
        <time>2000-01-01T04:42:04.000Z</time>
      </trkpt>
      <trkpt lat="46.19185" lon="6.82118">
        <ele>2095.4</ele>
        <time>2000-01-01T04:42:14.000Z</time>
      </trkpt>
      <trkpt lat="46.19208" lon="6.82119">
        <ele>2084</ele>
        <time>2000-01-01T04:42:24.000Z</time>
      </trkpt>
      <trkpt lat="46.19224" lon="6.82126">
        <ele>2088.7</ele>
        <time>2000-01-01T04:42:34.000Z</time>
      </trkpt>
      <trkpt lat="46.19227" lon="6.82124">
        <ele>2082</ele>
        <time>2000-01-01T04:42:44.000Z</time>
      </trkpt>
      <trkpt lat="46.19222" lon="6.82069">
        <ele>2079</ele>
        <time>2000-01-01T04:42:54.000Z</time>
      </trkpt>
      <trkpt lat="46.19223" lon="6.82063">
        <ele>2078.9</ele>
        <time>2000-01-01T04:43:04.000Z</time>
      </trkpt>
      <trkpt lat="46.19231" lon="6.82062">
        <ele>2075.5</ele>
        <time>2000-01-01T04:43:14.000Z</time>
      </trkpt>
      <trkpt lat="46.19244" lon="6.82084">
        <ele>2073</ele>
        <time>2000-01-01T04:43:24.000Z</time>
      </trkpt>
      <trkpt lat="46.19265" lon="6.82103">
        <ele>2071</ele>
        <time>2000-01-01T04:43:34.000Z</time>
      </trkpt>
      <trkpt lat="46.19275" lon="6.82107">
        <ele>2065</ele>
        <time>2000-01-01T04:43:44.000Z</time>
      </trkpt>
      <trkpt lat="46.19291" lon="6.82105">
        <ele>2067</ele>
        <time>2000-01-01T04:43:54.000Z</time>
      </trkpt>
      <trkpt lat="46.19309" lon="6.82094">
        <ele>2065</ele>
        <time>2000-01-01T04:44:04.000Z</time>
      </trkpt>
      <trkpt lat="46.19341" lon="6.82095">
        <ele>2058</ele>
        <time>2000-01-01T04:44:14.000Z</time>
      </trkpt>
      <trkpt lat="46.19369" lon="6.82084">
        <ele>2054</ele>
        <time>2000-01-01T04:44:24.000Z</time>
      </trkpt>
      <trkpt lat="46.19413" lon="6.82066">
        <ele>2042</ele>
        <time>2000-01-01T04:44:34.000Z</time>
      </trkpt>
      <trkpt lat="46.19424" lon="6.82065">
        <ele>2032.6</ele>
        <time>2000-01-01T04:44:44.000Z</time>
      </trkpt>
      <trkpt lat="46.19486" lon="6.82045">
        <ele>2028</ele>
        <time>2000-01-01T04:44:54.000Z</time>
      </trkpt>
      <trkpt lat="46.19499" lon="6.82038">
        <ele>2016.5</ele>
        <time>2000-01-01T04:45:04.000Z</time>
      </trkpt>
      <trkpt lat="46.19552" lon="6.81998">
        <ele>2011</ele>
        <time>2000-01-01T04:45:14.000Z</time>
      </trkpt>
      <trkpt lat="46.19575" lon="6.81983">
        <ele>2008</ele>
        <time>2000-01-01T04:45:24.000Z</time>
      </trkpt>
      <trkpt lat="46.19605" lon="6.81965">
        <ele>2006</ele>
        <time>2000-01-01T04:45:34.000Z</time>
      </trkpt>
      <trkpt lat="46.19618" lon="6.81951">
        <ele>1997.3</ele>
        <time>2000-01-01T04:45:44.000Z</time>
      </trkpt>
      <trkpt lat="46.19638" lon="6.8192">
        <ele>2001</ele>
        <time>2000-01-01T04:45:54.000Z</time>
      </trkpt>
      <trkpt lat="46.19644" lon="6.81896">
        <ele>1993.2</ele>
        <time>2000-01-01T04:46:04.000Z</time>
      </trkpt>
      <trkpt lat="46.19681" lon="6.81808">
        <ele>1995</ele>
        <time>2000-01-01T04:46:14.000Z</time>
      </trkpt>
      <trkpt lat="46.1969" lon="6.81769">
        <ele>1989</ele>
        <time>2000-01-01T04:46:24.000Z</time>
      </trkpt>
      <trkpt lat="46.19705" lon="6.81709">
        <ele>1987</ele>
        <time>2000-01-01T04:46:34.000Z</time>
      </trkpt>
      <trkpt lat="46.19703" lon="6.81674">
        <ele>1984</ele>
        <time>2000-01-01T04:46:44.000Z</time>
      </trkpt>
      <trkpt lat="46.19702" lon="6.81639">
        <ele>1981</ele>
        <time>2000-01-01T04:46:54.000Z</time>
      </trkpt>
      <trkpt lat="46.19704" lon="6.81603">
        <ele>1979</ele>
        <time>2000-01-01T04:47:04.000Z</time>
      </trkpt>
      <trkpt lat="46.19711" lon="6.81569">
        <ele>1978</ele>
        <time>2000-01-01T04:47:14.000Z</time>
      </trkpt>
      <trkpt lat="46.19709" lon="6.81552">
        <ele>1977.7</ele>
        <time>2000-01-01T04:47:24.000Z</time>
      </trkpt>
      <trkpt lat="46.19696" lon="6.81533">
        <ele>1978</ele>
        <time>2000-01-01T04:47:34.000Z</time>
      </trkpt>
      <trkpt lat="46.19691" lon="6.81517">
        <ele>1976.8</ele>
        <time>2000-01-01T04:47:44.000Z</time>
      </trkpt>
      <trkpt lat="46.19688" lon="6.81488">
        <ele>1978</ele>
        <time>2000-01-01T04:47:54.000Z</time>
      </trkpt>
      <trkpt lat="46.19676" lon="6.81465">
        <ele>1978</ele>
        <time>2000-01-01T04:48:04.000Z</time>
      </trkpt>
      <trkpt lat="46.19676" lon="6.81458">
        <ele>1974.5</ele>
        <time>2000-01-01T04:48:14.000Z</time>
      </trkpt>
      <trkpt lat="46.19681" lon="6.81432">
        <ele>1980</ele>
        <time>2000-01-01T04:48:24.000Z</time>
      </trkpt>
      <trkpt lat="46.19679" lon="6.81417">
        <ele>1977.5</ele>
        <time>2000-01-01T04:48:34.000Z</time>
      </trkpt>
      <trkpt lat="46.19666" lon="6.81371">
        <ele>1982</ele>
        <time>2000-01-01T04:48:44.000Z</time>
      </trkpt>
      <trkpt lat="46.19659" lon="6.81357">
        <ele>1978.3</ele>
        <time>2000-01-01T04:48:54.000Z</time>
      </trkpt>
      <trkpt lat="46.1965" lon="6.81329">
        <ele>1981</ele>
        <time>2000-01-01T04:49:04.000Z</time>
      </trkpt>
      <trkpt lat="46.19651" lon="6.8132">
        <ele>1981.2</ele>
        <time>2000-01-01T04:49:14.000Z</time>
      </trkpt>
      <trkpt lat="46.19655" lon="6.81309">
        <ele>1982.5</ele>
        <time>2000-01-01T04:49:24.000Z</time>
      </trkpt>
      <trkpt lat="46.19665" lon="6.813">
        <ele>1981</ele>
        <time>2000-01-01T04:49:34.000Z</time>
      </trkpt>
      <trkpt lat="46.19666" lon="6.81294">
        <ele>1982.3</ele>
        <time>2000-01-01T04:49:44.000Z</time>
      </trkpt>
      <trkpt lat="46.19701" lon="6.8129">
        <ele>1975</ele>
        <time>2000-01-01T04:49:54.000Z</time>
      </trkpt>
      <trkpt lat="46.19727" lon="6.81292">
        <ele>1974</ele>
        <time>2000-01-01T04:50:04.000Z</time>
      </trkpt>
      <trkpt lat="46.19751" lon="6.81285">
        <ele>1971</ele>
        <time>2000-01-01T04:50:14.000Z</time>
      </trkpt>
      <trkpt lat="46.19768" lon="6.81259">
        <ele>1968</ele>
        <time>2000-01-01T04:50:24.000Z</time>
      </trkpt>
      <trkpt lat="46.19787" lon="6.81229">
        <ele>1967</ele>
        <time>2000-01-01T04:50:34.000Z</time>
      </trkpt>
      <trkpt lat="46.19815" lon="6.81176">
        <ele>1967</ele>
        <time>2000-01-01T04:50:44.000Z</time>
      </trkpt>
      <trkpt lat="46.19816" lon="6.81166">
        <ele>1964.4</ele>
        <time>2000-01-01T04:50:54.000Z</time>
      </trkpt>
      <trkpt lat="46.19811" lon="6.81156">
        <ele>1964.7</ele>
        <time>2000-01-01T04:51:04.000Z</time>
      </trkpt>
      <trkpt lat="46.198" lon="6.81135">
        <ele>1968</ele>
        <time>2000-01-01T04:51:14.000Z</time>
      </trkpt>
      <trkpt lat="46.19788" lon="6.81123">
        <ele>1964.5</ele>
        <time>2000-01-01T04:51:24.000Z</time>
      </trkpt>
      <trkpt lat="46.19785" lon="6.81115">
        <ele>1970</ele>
        <time>2000-01-01T04:51:34.000Z</time>
      </trkpt>
      <trkpt lat="46.19782" lon="6.81095">
        <ele>1966.2</ele>
        <time>2000-01-01T04:51:44.000Z</time>
      </trkpt>
      <trkpt lat="46.19771" lon="6.81082">
        <ele>1971</ele>
        <time>2000-01-01T04:51:54.000Z</time>
      </trkpt>
      <trkpt lat="46.19769" lon="6.81074">
        <ele>1967.1</ele>
        <time>2000-01-01T04:52:04.000Z</time>
      </trkpt>
      <trkpt lat="46.19778" lon="6.81031">
        <ele>1971</ele>
        <time>2000-01-01T04:52:14.000Z</time>
      </trkpt>
      <trkpt lat="46.198" lon="6.81008">
        <ele>1971</ele>
        <time>2000-01-01T04:52:24.000Z</time>
      </trkpt>
      <trkpt lat="46.19802" lon="6.8099">
        <ele>1965.6</ele>
        <time>2000-01-01T04:52:34.000Z</time>
      </trkpt>
      <trkpt lat="46.19796" lon="6.80967">
        <ele>1971</ele>
        <time>2000-01-01T04:52:44.000Z</time>
      </trkpt>
      <trkpt lat="46.19782" lon="6.80952">
        <ele>1967.3</ele>
        <time>2000-01-01T04:52:54.000Z</time>
      </trkpt>
      <trkpt lat="46.19783" lon="6.80926">
        <ele>1973</ele>
        <time>2000-01-01T04:53:04.000Z</time>
      </trkpt>
      <trkpt lat="46.19773" lon="6.80905">
        <ele>1974</ele>
        <time>2000-01-01T04:53:14.000Z</time>
      </trkpt>
      <trkpt lat="46.19783" lon="6.80894">
        <ele>1969.9</ele>
        <time>2000-01-01T04:53:24.000Z</time>
      </trkpt>
      <trkpt lat="46.19786" lon="6.80885">
        <ele>1974</ele>
        <time>2000-01-01T04:53:34.000Z</time>
      </trkpt>
      <trkpt lat="46.19783" lon="6.80855">
        <ele>1976</ele>
        <time>2000-01-01T04:53:44.000Z</time>
      </trkpt>
      <trkpt lat="46.19775" lon="6.80846">
        <ele>1972.8</ele>
        <time>2000-01-01T04:53:54.000Z</time>
      </trkpt>
      <trkpt lat="46.19757" lon="6.80836">
        <ele>1978</ele>
        <time>2000-01-01T04:54:04.000Z</time>
      </trkpt>
      <trkpt lat="46.19756" lon="6.80794">
        <ele>1981</ele>
        <time>2000-01-01T04:54:14.000Z</time>
      </trkpt>
      <trkpt lat="46.19743" lon="6.80771">
        <ele>1982</ele>
        <time>2000-01-01T04:54:24.000Z</time>
      </trkpt>
      <trkpt lat="46.19724" lon="6.8072">
        <ele>1984</ele>
        <time>2000-01-01T04:54:34.000Z</time>
      </trkpt>
      <trkpt lat="46.197" lon="6.80697">
        <ele>1986</ele>
        <time>2000-01-01T04:54:44.000Z</time>
      </trkpt>
      <trkpt lat="46.19696" lon="6.80653">
        <ele>1990</ele>
        <time>2000-01-01T04:54:54.000Z</time>
      </trkpt>
      <trkpt lat="46.19692" lon="6.80615">
        <ele>1993</ele>
        <time>2000-01-01T04:55:04.000Z</time>
      </trkpt>
      <trkpt lat="46.19687" lon="6.80567">
        <ele>1993</ele>
        <time>2000-01-01T04:55:14.000Z</time>
      </trkpt>
      <trkpt lat="46.19691" lon="6.80533">
        <ele>1993</ele>
        <time>2000-01-01T04:55:24.000Z</time>
      </trkpt>
      <trkpt lat="46.19696" lon="6.80499">
        <ele>1992</ele>
        <time>2000-01-01T04:55:34.000Z</time>
      </trkpt>
      <trkpt lat="46.19709" lon="6.80459">
        <ele>1991</ele>
        <time>2000-01-01T04:55:44.000Z</time>
      </trkpt>
      <trkpt lat="46.19723" lon="6.80429">
        <ele>1986</ele>
        <time>2000-01-01T04:55:54.000Z</time>
      </trkpt>
      <trkpt lat="46.19739" lon="6.80395">
        <ele>1982</ele>
        <time>2000-01-01T04:56:04.000Z</time>
      </trkpt>
      <trkpt lat="46.19745" lon="6.80351">
        <ele>1980</ele>
        <time>2000-01-01T04:56:14.000Z</time>
      </trkpt>
      <trkpt lat="46.19758" lon="6.80322">
        <ele>1977</ele>
        <time>2000-01-01T04:56:24.000Z</time>
      </trkpt>
      <trkpt lat="46.1977" lon="6.80293">
        <ele>1975</ele>
        <time>2000-01-01T04:56:34.000Z</time>
      </trkpt>
      <trkpt lat="46.1977" lon="6.80282">
        <ele>1973.8</ele>
        <time>2000-01-01T04:56:44.000Z</time>
      </trkpt>
      <trkpt lat="46.19773" lon="6.80274">
        <ele>1973</ele>
        <time>2000-01-01T04:56:54.000Z</time>
      </trkpt>
      <trkpt lat="46.19787" lon="6.80241">
        <ele>1967</ele>
        <time>2000-01-01T04:57:04.000Z</time>
      </trkpt>
      <trkpt lat="46.19788" lon="6.80192">
        <ele>1961</ele>
        <time>2000-01-01T04:57:14.000Z</time>
      </trkpt>
      <trkpt lat="46.19792" lon="6.80187">
        <ele>1964.5</ele>
        <time>2000-01-01T04:57:24.000Z</time>
      </trkpt>
      <trkpt lat="46.19793" lon="6.8018">
        <ele>1964.3</ele>
        <time>2000-01-01T04:57:34.000Z</time>
      </trkpt>
      <trkpt lat="46.19791" lon="6.80165">
        <ele>1961</ele>
        <time>2000-01-01T04:57:44.000Z</time>
      </trkpt>
      <trkpt lat="46.19801" lon="6.80132">
        <ele>1960</ele>
        <time>2000-01-01T04:57:54.000Z</time>
      </trkpt>
      <trkpt lat="46.19797" lon="6.80102">
        <ele>1957</ele>
        <time>2000-01-01T04:58:04.000Z</time>
      </trkpt>
      <trkpt lat="46.19802" lon="6.8006">
        <ele>1957</ele>
        <time>2000-01-01T04:58:14.000Z</time>
      </trkpt>
      <trkpt lat="46.19818" lon="6.8004">
        <ele>1956</ele>
        <time>2000-01-01T04:58:24.000Z</time>
      </trkpt>
      <trkpt lat="46.19827" lon="6.80015">
        <ele>1953</ele>
        <time>2000-01-01T04:58:34.000Z</time>
      </trkpt>
      <trkpt lat="46.19833" lon="6.79988">
        <ele>1949</ele>
        <time>2000-01-01T04:58:44.000Z</time>
      </trkpt>
      <trkpt lat="46.19845" lon="6.79955">
        <ele>1947</ele>
        <time>2000-01-01T04:58:54.000Z</time>
      </trkpt>
      <trkpt lat="46.19859" lon="6.79913">
        <ele>1943</ele>
        <time>2000-01-01T04:59:04.000Z</time>
      </trkpt>
      <trkpt lat="46.19873" lon="6.79861">
        <ele>1938</ele>
        <time>2000-01-01T04:59:14.000Z</time>
      </trkpt>
      <trkpt lat="46.19892" lon="6.7982">
        <ele>1936</ele>
        <time>2000-01-01T04:59:24.000Z</time>
      </trkpt>
      <trkpt lat="46.19899" lon="6.79806">
        <ele>1935.2</ele>
        <time>2000-01-01T04:59:34.000Z</time>
      </trkpt>
      <trkpt lat="46.1991" lon="6.79795">
        <ele>1936</ele>
        <time>2000-01-01T04:59:44.000Z</time>
      </trkpt>
      <trkpt lat="46.19934" lon="6.7978">
        <ele>1932</ele>
        <time>2000-01-01T04:59:54.000Z</time>
      </trkpt>
      <trkpt lat="46.19965" lon="6.79762">
        <ele>1930</ele>
        <time>2000-01-01T05:00:04.000Z</time>
      </trkpt>
      <trkpt lat="46.19988" lon="6.79741">
        <ele>1924</ele>
        <time>2000-01-01T05:00:14.000Z</time>
      </trkpt>
      <trkpt lat="46.19996" lon="6.79722">
        <ele>1921.1</ele>
        <time>2000-01-01T05:00:24.000Z</time>
      </trkpt>
      <trkpt lat="46.20005" lon="6.79709">
        <ele>1916</ele>
        <time>2000-01-01T05:00:34.000Z</time>
      </trkpt>
      <trkpt lat="46.20017" lon="6.79678">
        <ele>1911</ele>
        <time>2000-01-01T05:00:44.000Z</time>
      </trkpt>
      <trkpt lat="46.20028" lon="6.79645">
        <ele>1907</ele>
        <time>2000-01-01T05:00:54.000Z</time>
      </trkpt>
      <trkpt lat="46.20043" lon="6.79644">
        <ele>1907.2</ele>
        <time>2000-01-01T05:01:04.000Z</time>
      </trkpt>
      <trkpt lat="46.2006" lon="6.7965">
        <ele>1905</ele>
        <time>2000-01-01T05:01:14.000Z</time>
      </trkpt>
      <trkpt lat="46.20078" lon="6.7964">
        <ele>1899</ele>
        <time>2000-01-01T05:01:24.000Z</time>
      </trkpt>
      <trkpt lat="46.20086" lon="6.79628">
        <ele>1898.1</ele>
        <time>2000-01-01T05:01:34.000Z</time>
      </trkpt>
      <trkpt lat="46.20097" lon="6.79629">
        <ele>1896</ele>
        <time>2000-01-01T05:01:44.000Z</time>
      </trkpt>
      <trkpt lat="46.20103" lon="6.79616">
        <ele>1895.8</ele>
        <time>2000-01-01T05:01:54.000Z</time>
      </trkpt>
      <trkpt lat="46.20111" lon="6.79606">
        <ele>1891</ele>
        <time>2000-01-01T05:02:04.000Z</time>
      </trkpt>
      <trkpt lat="46.20124" lon="6.79601">
        <ele>1892.9</ele>
        <time>2000-01-01T05:02:14.000Z</time>
      </trkpt>
      <trkpt lat="46.20134" lon="6.7959">
        <ele>1888</ele>
        <time>2000-01-01T05:02:24.000Z</time>
      </trkpt>
      <trkpt lat="46.20138" lon="6.79577">
        <ele>1889.5</ele>
        <time>2000-01-01T05:02:34.000Z</time>
      </trkpt>
      <trkpt lat="46.20147" lon="6.79562">
        <ele>1885</ele>
        <time>2000-01-01T05:02:44.000Z</time>
      </trkpt>
      <trkpt lat="46.20153" lon="6.79535">
        <ele>1879</ele>
        <time>2000-01-01T05:02:54.000Z</time>
      </trkpt>
      <trkpt lat="46.20165" lon="6.79512">
        <ele>1877</ele>
        <time>2000-01-01T05:03:04.000Z</time>
      </trkpt>
      <trkpt lat="46.2018" lon="6.79496">
        <ele>1880.1</ele>
        <time>2000-01-01T05:03:14.000Z</time>
      </trkpt>
      <trkpt lat="46.20195" lon="6.79461">
        <ele>1872</ele>
        <time>2000-01-01T05:03:24.000Z</time>
      </trkpt>
      <trkpt lat="46.2021" lon="6.79446">
        <ele>1873.4</ele>
        <time>2000-01-01T05:03:34.000Z</time>
      </trkpt>
      <trkpt lat="46.20221" lon="6.7943">
        <ele>1871</ele>
        <time>2000-01-01T05:03:44.000Z</time>
      </trkpt>
      <trkpt lat="46.20229" lon="6.79413">
        <ele>1868</ele>
        <time>2000-01-01T05:03:54.000Z</time>
      </trkpt>
      <trkpt lat="46.20255" lon="6.79366">
        <ele>1857</ele>
        <time>2000-01-01T05:04:04.000Z</time>
      </trkpt>
      <trkpt lat="46.20277" lon="6.79333">
        <ele>1856</ele>
        <time>2000-01-01T05:04:14.000Z</time>
      </trkpt>
      <trkpt lat="46.20311" lon="6.79294">
        <ele>1856</ele>
        <time>2000-01-01T05:04:24.000Z</time>
      </trkpt>
      <trkpt lat="46.20314" lon="6.79287">
        <ele>1856.7</ele>
        <time>2000-01-01T05:04:34.000Z</time>
      </trkpt>
      <trkpt lat="46.20323" lon="6.7928">
        <ele>1857.9</ele>
        <time>2000-01-01T05:04:44.000Z</time>
      </trkpt>
      <trkpt lat="46.20341" lon="6.79252">
        <ele>1856</ele>
        <time>2000-01-01T05:04:54.000Z</time>
      </trkpt>
      <trkpt lat="46.20349" lon="6.79248">
        <ele>1856.3</ele>
        <time>2000-01-01T05:05:04.000Z</time>
      </trkpt>
      <trkpt lat="46.20362" lon="6.79254">
        <ele>1856</ele>
        <time>2000-01-01T05:05:14.000Z</time>
      </trkpt>
      <trkpt lat="46.20377" lon="6.79243">
        <ele>1857.3</ele>
        <time>2000-01-01T05:05:24.000Z</time>
      </trkpt>
      <trkpt lat="46.20399" lon="6.79241">
        <ele>1856</ele>
        <time>2000-01-01T05:05:34.000Z</time>
      </trkpt>
      <trkpt lat="46.20414" lon="6.79226">
        <ele>1852</ele>
        <time>2000-01-01T05:05:44.000Z</time>
      </trkpt>
      <trkpt lat="46.20449" lon="6.79216">
        <ele>1846</ele>
        <time>2000-01-01T05:05:54.000Z</time>
      </trkpt>
      <trkpt lat="46.20458" lon="6.79203">
        <ele>1845.3</ele>
        <time>2000-01-01T05:06:04.000Z</time>
      </trkpt>
      <trkpt lat="46.20487" lon="6.79191">
        <ele>1841</ele>
        <time>2000-01-01T05:06:14.000Z</time>
      </trkpt>
      <trkpt lat="46.20524" lon="6.79165">
        <ele>1836</ele>
        <time>2000-01-01T05:06:24.000Z</time>
      </trkpt>
      <trkpt lat="46.20534" lon="6.79152">
        <ele>1837.3</ele>
        <time>2000-01-01T05:06:34.000Z</time>
      </trkpt>
      <trkpt lat="46.20572" lon="6.79121">
        <ele>1834</ele>
        <time>2000-01-01T05:06:44.000Z</time>
      </trkpt>
      <trkpt lat="46.20589" lon="6.79088">
        <ele>1831</ele>
        <time>2000-01-01T05:06:54.000Z</time>
      </trkpt>
      <trkpt lat="46.20614" lon="6.79037">
        <ele>1825</ele>
        <time>2000-01-01T05:07:04.000Z</time>
      </trkpt>
      <trkpt lat="46.20644" lon="6.79013">
        <ele>1821</ele>
        <time>2000-01-01T05:07:14.000Z</time>
      </trkpt>
      <trkpt lat="46.20659" lon="6.78993">
        <ele>1817</ele>
        <time>2000-01-01T05:07:24.000Z</time>
      </trkpt>
      <trkpt lat="46.20672" lon="6.78982">
        <ele>1817</ele>
        <time>2000-01-01T05:07:34.000Z</time>
      </trkpt>
      <trkpt lat="46.2068" lon="6.78969">
        <ele>1812</ele>
        <time>2000-01-01T05:07:44.000Z</time>
      </trkpt>
      <trkpt lat="46.20687" lon="6.78965">
        <ele>1814.6</ele>
        <time>2000-01-01T05:07:54.000Z</time>
      </trkpt>
      <trkpt lat="46.20698" lon="6.78938">
        <ele>1808</ele>
        <time>2000-01-01T05:08:04.000Z</time>
      </trkpt>
      <trkpt lat="46.20711" lon="6.78899">
        <ele>1808</ele>
        <time>2000-01-01T05:08:14.000Z</time>
      </trkpt>
      <trkpt lat="46.20731" lon="6.78854">
        <ele>1806</ele>
        <time>2000-01-01T05:08:24.000Z</time>
      </trkpt>
      <trkpt lat="46.20741" lon="6.78847">
        <ele>1808.2</ele>
        <time>2000-01-01T05:08:34.000Z</time>
      </trkpt>
      <trkpt lat="46.2074" lon="6.78835">
        <ele>1804</ele>
        <time>2000-01-01T05:08:44.000Z</time>
      </trkpt>
      <trkpt lat="46.2075" lon="6.78795">
        <ele>1803</ele>
        <time>2000-01-01T05:08:54.000Z</time>
      </trkpt>
      <trkpt lat="46.20749" lon="6.78786">
        <ele>1802.6</ele>
        <time>2000-01-01T05:09:04.000Z</time>
      </trkpt>
      <trkpt lat="46.20751" lon="6.78779">
        <ele>1802.1</ele>
        <time>2000-01-01T05:09:14.000Z</time>
      </trkpt>
      <trkpt lat="46.20778" lon="6.78761">
        <ele>1798</ele>
        <time>2000-01-01T05:09:24.000Z</time>
      </trkpt>
      <trkpt lat="46.20808" lon="6.78747">
        <ele>1791</ele>
        <time>2000-01-01T05:09:34.000Z</time>
      </trkpt>
      <trkpt lat="46.20838" lon="6.78732">
        <ele>1788</ele>
        <time>2000-01-01T05:09:44.000Z</time>
      </trkpt>
      <trkpt lat="46.20872" lon="6.78716">
        <ele>1779</ele>
        <time>2000-01-01T05:09:54.000Z</time>
      </trkpt>
      <trkpt lat="46.20902" lon="6.78691">
        <ele>1773</ele>
        <time>2000-01-01T05:10:04.000Z</time>
      </trkpt>
      <trkpt lat="46.20921" lon="6.7868">
        <ele>1773</ele>
        <time>2000-01-01T05:10:14.000Z</time>
      </trkpt>
      <trkpt lat="46.20935" lon="6.78683">
        <ele>1774.2</ele>
        <time>2000-01-01T05:10:24.000Z</time>
      </trkpt>
      <trkpt lat="46.2094" lon="6.7868">
        <ele>1773</ele>
        <time>2000-01-01T05:10:34.000Z</time>
      </trkpt>
      <trkpt lat="46.20936" lon="6.78648">
        <ele>1761</ele>
        <time>2000-01-01T05:10:44.000Z</time>
      </trkpt>
      <trkpt lat="46.2094" lon="6.7863">
        <ele>1761.3</ele>
        <time>2000-01-01T05:10:54.000Z</time>
      </trkpt>
      <trkpt lat="46.20948" lon="6.78609">
        <ele>1752</ele>
        <time>2000-01-01T05:11:04.000Z</time>
      </trkpt>
      <trkpt lat="46.20963" lon="6.78589">
        <ele>1748</ele>
        <time>2000-01-01T05:11:14.000Z</time>
      </trkpt>
      <trkpt lat="46.2097" lon="6.78584">
        <ele>1751.8</ele>
        <time>2000-01-01T05:11:24.000Z</time>
      </trkpt>
      <trkpt lat="46.21" lon="6.78578">
        <ele>1748</ele>
        <time>2000-01-01T05:11:34.000Z</time>
      </trkpt>
      <trkpt lat="46.21016" lon="6.78571">
        <ele>1751.9</ele>
        <time>2000-01-01T05:11:44.000Z</time>
      </trkpt>
      <trkpt lat="46.2103" lon="6.78551">
        <ele>1742</ele>
        <time>2000-01-01T05:11:54.000Z</time>
      </trkpt>
      <trkpt lat="46.21044" lon="6.78516">
        <ele>1735</ele>
        <time>2000-01-01T05:12:04.000Z</time>
      </trkpt>
      <trkpt lat="46.21064" lon="6.78465">
        <ele>1734</ele>
        <time>2000-01-01T05:12:14.000Z</time>
      </trkpt>
      <trkpt lat="46.2107" lon="6.78441">
        <ele>1735.5</ele>
        <time>2000-01-01T05:12:24.000Z</time>
      </trkpt>
      <trkpt lat="46.21073" lon="6.78407">
        <ele>1726</ele>
        <time>2000-01-01T05:12:34.000Z</time>
      </trkpt>
      <trkpt lat="46.21087" lon="6.78353">
        <ele>1722</ele>
        <time>2000-01-01T05:12:44.000Z</time>
      </trkpt>
      <trkpt lat="46.21089" lon="6.78303">
        <ele>1718</ele>
        <time>2000-01-01T05:12:54.000Z</time>
      </trkpt>
      <trkpt lat="46.21101" lon="6.78274">
        <ele>1715</ele>
        <time>2000-01-01T05:13:04.000Z</time>
      </trkpt>
      <trkpt lat="46.21113" lon="6.78243">
        <ele>1710</ele>
        <time>2000-01-01T05:13:14.000Z</time>
      </trkpt>
      <trkpt lat="46.21117" lon="6.78215">
        <ele>1702</ele>
        <time>2000-01-01T05:13:24.000Z</time>
      </trkpt>
      <trkpt lat="46.2112" lon="6.78164">
        <ele>1698</ele>
        <time>2000-01-01T05:13:34.000Z</time>
      </trkpt>
      <trkpt lat="46.21136" lon="6.78106">
        <ele>1684</ele>
        <time>2000-01-01T05:13:44.000Z</time>
      </trkpt>
      <trkpt lat="46.21133" lon="6.78097">
        <ele>1685</ele>
        <time>2000-01-01T05:13:54.000Z</time>
      </trkpt>
      <trkpt lat="46.21133" lon="6.78083">
        <ele>1680.9</ele>
        <time>2000-01-01T05:14:04.000Z</time>
      </trkpt>
      <trkpt lat="46.21144" lon="6.78051">
        <ele>1675</ele>
        <time>2000-01-01T05:14:14.000Z</time>
      </trkpt>
      <trkpt lat="46.2116" lon="6.77992">
        <ele>1660</ele>
        <time>2000-01-01T05:14:24.000Z</time>
      </trkpt>
      <trkpt lat="46.21174" lon="6.77928">
        <ele>1648</ele>
        <time>2000-01-01T05:14:34.000Z</time>
      </trkpt>
      <trkpt lat="46.21192" lon="6.77889">
        <ele>1643</ele>
        <time>2000-01-01T05:14:44.000Z</time>
      </trkpt>
      <trkpt lat="46.21213" lon="6.77859">
        <ele>1638</ele>
        <time>2000-01-01T05:14:54.000Z</time>
      </trkpt>
      <trkpt lat="46.21229" lon="6.77832">
        <ele>1635</ele>
        <time>2000-01-01T05:15:04.000Z</time>
      </trkpt>
      <trkpt lat="46.21246" lon="6.77808">
        <ele>1633</ele>
        <time>2000-01-01T05:15:14.000Z</time>
      </trkpt>
      <trkpt lat="46.21263" lon="6.77785">
        <ele>1631</ele>
        <time>2000-01-01T05:15:24.000Z</time>
      </trkpt>
      <trkpt lat="46.21266" lon="6.77774">
        <ele>1632.2</ele>
        <time>2000-01-01T05:15:34.000Z</time>
      </trkpt>
      <trkpt lat="46.21266" lon="6.77764">
        <ele>1629.7</ele>
        <time>2000-01-01T05:15:44.000Z</time>
      </trkpt>
      <trkpt lat="46.2126" lon="6.77749">
        <ele>1618</ele>
        <time>2000-01-01T05:15:54.000Z</time>
      </trkpt>
      <trkpt lat="46.21243" lon="6.77749">
        <ele>1619.3</ele>
        <time>2000-01-01T05:16:04.000Z</time>
      </trkpt>
      <trkpt lat="46.21156" lon="6.7779">
        <ele>1606</ele>
        <time>2000-01-01T05:16:14.000Z</time>
      </trkpt>
      <trkpt lat="46.21133" lon="6.7781">
        <ele>1603</ele>
        <time>2000-01-01T05:16:24.000Z</time>
      </trkpt>
      <trkpt lat="46.21101" lon="6.77836">
        <ele>1600</ele>
        <time>2000-01-01T05:16:34.000Z</time>
      </trkpt>
      <trkpt lat="46.21084" lon="6.77849">
        <ele>1596</ele>
        <time>2000-01-01T05:16:44.000Z</time>
      </trkpt>
      <trkpt lat="46.2105" lon="6.77863">
        <ele>1589</ele>
        <time>2000-01-01T05:16:54.000Z</time>
      </trkpt>
      <trkpt lat="46.21039" lon="6.7787">
        <ele>1590</ele>
        <time>2000-01-01T05:17:04.000Z</time>
      </trkpt>
      <trkpt lat="46.21012" lon="6.77904">
        <ele>1585</ele>
        <time>2000-01-01T05:17:14.000Z</time>
      </trkpt>
      <trkpt lat="46.20993" lon="6.77932">
        <ele>1579</ele>
        <time>2000-01-01T05:17:24.000Z</time>
      </trkpt>
      <trkpt lat="46.20969" lon="6.77969">
        <ele>1571</ele>
        <time>2000-01-01T05:17:34.000Z</time>
      </trkpt>
      <trkpt lat="46.2095" lon="6.77988">
        <ele>1567</ele>
        <time>2000-01-01T05:17:44.000Z</time>
      </trkpt>
      <trkpt lat="46.20929" lon="6.78007">
        <ele>1563</ele>
        <time>2000-01-01T05:17:54.000Z</time>
      </trkpt>
      <trkpt lat="46.209" lon="6.78024">
        <ele>1559</ele>
        <time>2000-01-01T05:18:04.000Z</time>
      </trkpt>
      <trkpt lat="46.20871" lon="6.78041">
        <ele>1553</ele>
        <time>2000-01-01T05:18:14.000Z</time>
      </trkpt>
      <trkpt lat="46.20841" lon="6.78059">
        <ele>1545</ele>
        <time>2000-01-01T05:18:24.000Z</time>
      </trkpt>
      <trkpt lat="46.20825" lon="6.78063">
        <ele>1544.3</ele>
        <time>2000-01-01T05:18:34.000Z</time>
      </trkpt>
      <trkpt lat="46.20794" lon="6.78049">
        <ele>1535</ele>
        <time>2000-01-01T05:18:44.000Z</time>
      </trkpt>
      <trkpt lat="46.20776" lon="6.78048">
        <ele>1533.3</ele>
        <time>2000-01-01T05:18:54.000Z</time>
      </trkpt>
      <trkpt lat="46.20758" lon="6.78052">
        <ele>1529</ele>
        <time>2000-01-01T05:19:04.000Z</time>
      </trkpt>
      <trkpt lat="46.20719" lon="6.78071">
        <ele>1525</ele>
        <time>2000-01-01T05:19:14.000Z</time>
      </trkpt>
      <trkpt lat="46.20709" lon="6.78066">
        <ele>1525.5</ele>
        <time>2000-01-01T05:19:24.000Z</time>
      </trkpt>
      <trkpt lat="46.20705" lon="6.78051">
        <ele>1523</ele>
        <time>2000-01-01T05:19:34.000Z</time>
      </trkpt>
      <trkpt lat="46.20723" lon="6.78005">
        <ele>1516</ele>
        <time>2000-01-01T05:19:44.000Z</time>
      </trkpt>
      <trkpt lat="46.20733" lon="6.77969">
        <ele>1511</ele>
        <time>2000-01-01T05:19:54.000Z</time>
      </trkpt>
      <trkpt lat="46.20748" lon="6.77919">
        <ele>1506</ele>
        <time>2000-01-01T05:20:04.000Z</time>
      </trkpt>
      <trkpt lat="46.20746" lon="6.77903">
        <ele>1506.3</ele>
        <time>2000-01-01T05:20:14.000Z</time>
      </trkpt>
      <trkpt lat="46.20753" lon="6.77894">
        <ele>1505</ele>
        <time>2000-01-01T05:20:24.000Z</time>
      </trkpt>
      <trkpt lat="46.20762" lon="6.77838">
        <ele>1501</ele>
        <time>2000-01-01T05:20:34.000Z</time>
      </trkpt>
      <trkpt lat="46.2077" lon="6.77805">
        <ele>1500</ele>
        <time>2000-01-01T05:20:44.000Z</time>
      </trkpt>
      <trkpt lat="46.20787" lon="6.77758">
        <ele>1497</ele>
        <time>2000-01-01T05:20:54.000Z</time>
      </trkpt>
      <trkpt lat="46.20803" lon="6.77711">
        <ele>1497</ele>
        <time>2000-01-01T05:21:04.000Z</time>
      </trkpt>
      <trkpt lat="46.20819" lon="6.77665">
        <ele>1495</ele>
        <time>2000-01-01T05:21:14.000Z</time>
      </trkpt>
      <trkpt lat="46.2083" lon="6.77632">
        <ele>1494</ele>
        <time>2000-01-01T05:21:24.000Z</time>
      </trkpt>
      <trkpt lat="46.20843" lon="6.77595">
        <ele>1494</ele>
        <time>2000-01-01T05:21:34.000Z</time>
      </trkpt>
      <trkpt lat="46.20859" lon="6.77553">
        <ele>1495</ele>
        <time>2000-01-01T05:21:44.000Z</time>
      </trkpt>
      <trkpt lat="46.20888" lon="6.77546">
        <ele>1495</ele>
        <time>2000-01-01T05:21:54.000Z</time>
      </trkpt>
      <trkpt lat="46.20902" lon="6.77535">
        <ele>1499.4</ele>
        <time>2000-01-01T05:22:04.000Z</time>
      </trkpt>
      <trkpt lat="46.20909" lon="6.77519">
        <ele>1491</ele>
        <time>2000-01-01T05:22:14.000Z</time>
      </trkpt>
      <trkpt lat="46.20908" lon="6.77499">
        <ele>1490.1</ele>
        <time>2000-01-01T05:22:24.000Z</time>
      </trkpt>
      <trkpt lat="46.20911" lon="6.77488">
        <ele>1488</ele>
        <time>2000-01-01T05:22:34.000Z</time>
      </trkpt>
      <trkpt lat="46.20933" lon="6.77472">
        <ele>1485</ele>
        <time>2000-01-01T05:22:44.000Z</time>
      </trkpt>
      <trkpt lat="46.20948" lon="6.7744">
        <ele>1480</ele>
        <time>2000-01-01T05:22:54.000Z</time>
      </trkpt>
      <trkpt lat="46.20954" lon="6.77435">
        <ele>1479.6</ele>
        <time>2000-01-01T05:23:04.000Z</time>
      </trkpt>
      <trkpt lat="46.20958" lon="6.77435">
        <ele>1479.8</ele>
        <time>2000-01-01T05:23:14.000Z</time>
      </trkpt>
      <trkpt lat="46.20981" lon="6.77444">
        <ele>1480</ele>
        <time>2000-01-01T05:23:24.000Z</time>
      </trkpt>
      <trkpt lat="46.20994" lon="6.77446">
        <ele>1479.6</ele>
        <time>2000-01-01T05:23:34.000Z</time>
      </trkpt>
      <trkpt lat="46.21022" lon="6.77442">
        <ele>1476</ele>
        <time>2000-01-01T05:23:44.000Z</time>
      </trkpt>
      <trkpt lat="46.21037" lon="6.77436">
        <ele>1476.4</ele>
        <time>2000-01-01T05:23:54.000Z</time>
      </trkpt>
      <trkpt lat="46.21064" lon="6.77422">
        <ele>1473</ele>
        <time>2000-01-01T05:24:04.000Z</time>
      </trkpt>
      <trkpt lat="46.21089" lon="6.774">
        <ele>1471</ele>
        <time>2000-01-01T05:24:14.000Z</time>
      </trkpt>
      <trkpt lat="46.21096" lon="6.77389">
        <ele>1471</ele>
        <time>2000-01-01T05:24:24.000Z</time>
      </trkpt>
      <trkpt lat="46.21098" lon="6.77379">
        <ele>1470.3</ele>
        <time>2000-01-01T05:24:34.000Z</time>
      </trkpt>
      <trkpt lat="46.21094" lon="6.77362">
        <ele>1468</ele>
        <time>2000-01-01T05:24:44.000Z</time>
      </trkpt>
      <trkpt lat="46.21088" lon="6.77356">
        <ele>1466.8</ele>
        <time>2000-01-01T05:24:54.000Z</time>
      </trkpt>
      <trkpt lat="46.21067" lon="6.77355">
        <ele>1465</ele>
        <time>2000-01-01T05:25:04.000Z</time>
      </trkpt>
      <trkpt lat="46.21042" lon="6.77357">
        <ele>1463</ele>
        <time>2000-01-01T05:25:14.000Z</time>
      </trkpt>
      <trkpt lat="46.21029" lon="6.77354">
        <ele>1463</ele>
        <time>2000-01-01T05:25:24.000Z</time>
      </trkpt>
      <trkpt lat="46.21012" lon="6.77336">
        <ele>1459</ele>
        <time>2000-01-01T05:25:34.000Z</time>
      </trkpt>
      <trkpt lat="46.2101" lon="6.77331">
        <ele>1458.9</ele>
        <time>2000-01-01T05:25:44.000Z</time>
      </trkpt>
      <trkpt lat="46.21011" lon="6.77321">
        <ele>1457</ele>
        <time>2000-01-01T05:25:54.000Z</time>
      </trkpt>
      <trkpt lat="46.21037" lon="6.77301">
        <ele>1456</ele>
        <time>2000-01-01T05:26:04.000Z</time>
      </trkpt>
      <trkpt lat="46.21053" lon="6.77296">
        <ele>1452.6</ele>
        <time>2000-01-01T05:26:14.000Z</time>
      </trkpt>
      <trkpt lat="46.21064" lon="6.77297">
        <ele>1453</ele>
        <time>2000-01-01T05:26:24.000Z</time>
      </trkpt>
      <trkpt lat="46.21085" lon="6.77304">
        <ele>1451</ele>
        <time>2000-01-01T05:26:34.000Z</time>
      </trkpt>
      <trkpt lat="46.21094" lon="6.77301">
        <ele>1453</ele>
        <time>2000-01-01T05:26:44.000Z</time>
      </trkpt>
      <trkpt lat="46.2118" lon="6.77195">
        <ele>1429</ele>
        <time>2000-01-01T05:26:54.000Z</time>
      </trkpt>
      <trkpt lat="46.21193" lon="6.77183">
        <ele>1432.9</ele>
        <time>2000-01-01T05:27:04.000Z</time>
      </trkpt>
      <trkpt lat="46.21218" lon="6.77169">
        <ele>1428</ele>
        <time>2000-01-01T05:27:14.000Z</time>
      </trkpt>
      <trkpt lat="46.2123" lon="6.77164">
        <ele>1428.3</ele>
        <time>2000-01-01T05:27:24.000Z</time>
      </trkpt>
      <trkpt lat="46.21251" lon="6.77162">
        <ele>1427</ele>
        <time>2000-01-01T05:27:34.000Z</time>
      </trkpt>
      <trkpt lat="46.21288" lon="6.77164">
        <ele>1425</ele>
        <time>2000-01-01T05:27:44.000Z</time>
      </trkpt>
      <trkpt lat="46.21318" lon="6.77158">
        <ele>1419</ele>
        <time>2000-01-01T05:27:54.000Z</time>
      </trkpt>
      <trkpt lat="46.21356" lon="6.77147">
        <ele>1417</ele>
        <time>2000-01-01T05:28:04.000Z</time>
      </trkpt>
      <trkpt lat="46.21364" lon="6.77142">
        <ele>1419</ele>
        <time>2000-01-01T05:28:14.000Z</time>
      </trkpt>
      <trkpt lat="46.21387" lon="6.77099">
        <ele>1413</ele>
        <time>2000-01-01T05:28:24.000Z</time>
      </trkpt>
      <trkpt lat="46.2141" lon="6.77093">
        <ele>1410</ele>
        <time>2000-01-01T05:28:34.000Z</time>
      </trkpt>
      <trkpt lat="46.21448" lon="6.77067">
        <ele>1406</ele>
        <time>2000-01-01T05:28:44.000Z</time>
      </trkpt>
      <trkpt lat="46.21451" lon="6.77058">
        <ele>1407.4</ele>
        <time>2000-01-01T05:28:54.000Z</time>
      </trkpt>
      <trkpt lat="46.21449" lon="6.77048">
        <ele>1404.1</ele>
        <time>2000-01-01T05:29:04.000Z</time>
      </trkpt>
      <trkpt lat="46.21442" lon="6.77045">
        <ele>1401</ele>
        <time>2000-01-01T05:29:14.000Z</time>
      </trkpt>
      <trkpt lat="46.21417" lon="6.77063">
        <ele>1399</ele>
        <time>2000-01-01T05:29:24.000Z</time>
      </trkpt>
      <trkpt lat="46.21407" lon="6.77067">
        <ele>1401.1</ele>
        <time>2000-01-01T05:29:34.000Z</time>
      </trkpt>
      <trkpt lat="46.21364" lon="6.77071">
        <ele>1392</ele>
        <time>2000-01-01T05:29:44.000Z</time>
      </trkpt>
      <trkpt lat="46.21341" lon="6.77106">
        <ele>1392</ele>
        <time>2000-01-01T05:29:54.000Z</time>
      </trkpt>
      <trkpt lat="46.21335" lon="6.77105">
        <ele>1395.7</ele>
        <time>2000-01-01T05:30:04.000Z</time>
      </trkpt>
      <trkpt lat="46.21333" lon="6.77096">
        <ele>1392.6</ele>
        <time>2000-01-01T05:30:14.000Z</time>
      </trkpt>
      <trkpt lat="46.21335" lon="6.77086">
        <ele>1387</ele>
        <time>2000-01-01T05:30:24.000Z</time>
      </trkpt>
      <trkpt lat="46.21353" lon="6.77057">
        <ele>1383</ele>
        <time>2000-01-01T05:30:34.000Z</time>
      </trkpt>
      <trkpt lat="46.21366" lon="6.77046">
        <ele>1384.4</ele>
        <time>2000-01-01T05:30:44.000Z</time>
      </trkpt>
      <trkpt lat="46.21395" lon="6.77028">
        <ele>1379</ele>
        <time>2000-01-01T05:30:54.000Z</time>
      </trkpt>
      <trkpt lat="46.21406" lon="6.7701">
        <ele>1379.7</ele>
        <time>2000-01-01T05:31:04.000Z</time>
      </trkpt>
      <trkpt lat="46.21413" lon="6.76972">
        <ele>1375</ele>
        <time>2000-01-01T05:31:14.000Z</time>
      </trkpt>
      <trkpt lat="46.21421" lon="6.76949">
        <ele>1374.8</ele>
        <time>2000-01-01T05:31:24.000Z</time>
      </trkpt>
      <trkpt lat="46.21438" lon="6.76919">
        <ele>1368</ele>
        <time>2000-01-01T05:31:34.000Z</time>
      </trkpt>
      <trkpt lat="46.21463" lon="6.76895">
        <ele>1368</ele>
        <time>2000-01-01T05:31:44.000Z</time>
      </trkpt>
      <trkpt lat="46.21465" lon="6.76887">
        <ele>1367.9</ele>
        <time>2000-01-01T05:31:54.000Z</time>
      </trkpt>
      <trkpt lat="46.21463" lon="6.7688">
        <ele>1366.3</ele>
        <time>2000-01-01T05:32:04.000Z</time>
      </trkpt>
      <trkpt lat="46.21456" lon="6.76878">
        <ele>1365.1</ele>
        <time>2000-01-01T05:32:14.000Z</time>
      </trkpt>
      <trkpt lat="46.21447" lon="6.76883">
        <ele>1364</ele>
        <time>2000-01-01T05:32:24.000Z</time>
      </trkpt>
      <trkpt lat="46.21423" lon="6.769">
        <ele>1362</ele>
        <time>2000-01-01T05:32:34.000Z</time>
      </trkpt>
      <trkpt lat="46.21391" lon="6.76923">
        <ele>1359</ele>
        <time>2000-01-01T05:32:44.000Z</time>
      </trkpt>
      <trkpt lat="46.21374" lon="6.76942">
        <ele>1356</ele>
        <time>2000-01-01T05:32:54.000Z</time>
      </trkpt>
      <trkpt lat="46.21366" lon="6.76942">
        <ele>1357.1</ele>
        <time>2000-01-01T05:33:04.000Z</time>
      </trkpt>
      <trkpt lat="46.21363" lon="6.76937">
        <ele>1355.7</ele>
        <time>2000-01-01T05:33:14.000Z</time>
      </trkpt>
      <trkpt lat="46.21364" lon="6.76924">
        <ele>1352</ele>
        <time>2000-01-01T05:33:24.000Z</time>
      </trkpt>
      <trkpt lat="46.21381" lon="6.76898">
        <ele>1349</ele>
        <time>2000-01-01T05:33:34.000Z</time>
      </trkpt>
      <trkpt lat="46.21394" lon="6.76867">
        <ele>1347</ele>
        <time>2000-01-01T05:33:44.000Z</time>
      </trkpt>
      <trkpt lat="46.2141" lon="6.76831">
        <ele>1344</ele>
        <time>2000-01-01T05:33:54.000Z</time>
      </trkpt>
      <trkpt lat="46.21423" lon="6.76803">
        <ele>1343</ele>
        <time>2000-01-01T05:34:04.000Z</time>
      </trkpt>
      <trkpt lat="46.21437" lon="6.76774">
        <ele>1339</ele>
        <time>2000-01-01T05:34:14.000Z</time>
      </trkpt>
      <trkpt lat="46.21452" lon="6.76756">
        <ele>1338</ele>
        <time>2000-01-01T05:34:24.000Z</time>
      </trkpt>
      <trkpt lat="46.2149" lon="6.7673">
        <ele>1333</ele>
        <time>2000-01-01T05:34:34.000Z</time>
      </trkpt>
      <trkpt lat="46.21491" lon="6.7672">
        <ele>1335.3</ele>
        <time>2000-01-01T05:34:44.000Z</time>
      </trkpt>
      <trkpt lat="46.21489" lon="6.76713">
        <ele>1333.7</ele>
        <time>2000-01-01T05:34:54.000Z</time>
      </trkpt>
      <trkpt lat="46.21473" lon="6.76704">
        <ele>1330</ele>
        <time>2000-01-01T05:35:04.000Z</time>
      </trkpt>
      <trkpt lat="46.21451" lon="6.76679">
        <ele>1329</ele>
        <time>2000-01-01T05:35:14.000Z</time>
      </trkpt>
      <trkpt lat="46.21449" lon="6.7667">
        <ele>1327.8</ele>
        <time>2000-01-01T05:35:24.000Z</time>
      </trkpt>
      <trkpt lat="46.2145" lon="6.76652">
        <ele>1328</ele>
        <time>2000-01-01T05:35:34.000Z</time>
      </trkpt>
      <trkpt lat="46.21471" lon="6.76622">
        <ele>1322</ele>
        <time>2000-01-01T05:35:44.000Z</time>
      </trkpt>
      <trkpt lat="46.21476" lon="6.766">
        <ele>1319.8</ele>
        <time>2000-01-01T05:35:54.000Z</time>
      </trkpt>
      <trkpt lat="46.21473" lon="6.76586">
        <ele>1318</ele>
        <time>2000-01-01T05:36:04.000Z</time>
      </trkpt>
      <trkpt lat="46.21462" lon="6.76569">
        <ele>1317</ele>
        <time>2000-01-01T05:36:14.000Z</time>
      </trkpt>
      <trkpt lat="46.21464" lon="6.76557">
        <ele>1316</ele>
        <time>2000-01-01T05:36:24.000Z</time>
      </trkpt>
      <trkpt lat="46.21467" lon="6.76554">
        <ele>1313.5</ele>
        <time>2000-01-01T05:36:34.000Z</time>
      </trkpt>
      <trkpt lat="46.21474" lon="6.76555">
        <ele>1314.4</ele>
        <time>2000-01-01T05:36:44.000Z</time>
      </trkpt>
      <trkpt lat="46.21491" lon="6.7659">
        <ele>1312</ele>
        <time>2000-01-01T05:36:54.000Z</time>
      </trkpt>
      <trkpt lat="46.21498" lon="6.76596">
        <ele>1313.4</ele>
        <time>2000-01-01T05:37:04.000Z</time>
      </trkpt>
      <trkpt lat="46.21505" lon="6.76592">
        <ele>1313.5</ele>
        <time>2000-01-01T05:37:14.000Z</time>
      </trkpt>
      <trkpt lat="46.21508" lon="6.76581">
        <ele>1309</ele>
        <time>2000-01-01T05:37:24.000Z</time>
      </trkpt>
      <trkpt lat="46.21505" lon="6.7657">
        <ele>1309.6</ele>
        <time>2000-01-01T05:37:34.000Z</time>
      </trkpt>
      <trkpt lat="46.21497" lon="6.76558">
        <ele>1305</ele>
        <time>2000-01-01T05:37:44.000Z</time>
      </trkpt>
      <trkpt lat="46.21499" lon="6.7654">
        <ele>1305.1</ele>
        <time>2000-01-01T05:37:54.000Z</time>
      </trkpt>
      <trkpt lat="46.21507" lon="6.76525">
        <ele>1302</ele>
        <time>2000-01-01T05:38:04.000Z</time>
      </trkpt>
      <trkpt lat="46.21519" lon="6.76525">
        <ele>1301.2</ele>
        <time>2000-01-01T05:38:14.000Z</time>
      </trkpt>
      <trkpt lat="46.21529" lon="6.76514">
        <ele>1297</ele>
        <time>2000-01-01T05:38:24.000Z</time>
      </trkpt>
      <trkpt lat="46.21543" lon="6.76472">
        <ele>1292</ele>
        <time>2000-01-01T05:38:34.000Z</time>
      </trkpt>
      <trkpt lat="46.21557" lon="6.7643">
        <ele>1286</ele>
        <time>2000-01-01T05:38:44.000Z</time>
      </trkpt>
      <trkpt lat="46.21576" lon="6.76376">
        <ele>1283</ele>
        <time>2000-01-01T05:38:54.000Z</time>
      </trkpt>
      <trkpt lat="46.21577" lon="6.76361">
        <ele>1284.9</ele>
        <time>2000-01-01T05:39:04.000Z</time>
      </trkpt>
      <trkpt lat="46.2157" lon="6.76356">
        <ele>1281.3</ele>
        <time>2000-01-01T05:39:14.000Z</time>
      </trkpt>
      <trkpt lat="46.21566" lon="6.76361">
        <ele>1281</ele>
        <time>2000-01-01T05:39:24.000Z</time>
      </trkpt>
      <trkpt lat="46.21545" lon="6.76408">
        <ele>1272</ele>
        <time>2000-01-01T05:39:34.000Z</time>
      </trkpt>
      <trkpt lat="46.21517" lon="6.76448">
        <ele>1271</ele>
        <time>2000-01-01T05:39:44.000Z</time>
      </trkpt>
      <trkpt lat="46.21495" lon="6.76462">
        <ele>1270</ele>
        <time>2000-01-01T05:39:54.000Z</time>
      </trkpt>
      <trkpt lat="46.21471" lon="6.76477">
        <ele>1266</ele>
        <time>2000-01-01T05:40:04.000Z</time>
      </trkpt>
      <trkpt lat="46.21445" lon="6.765">
        <ele>1259</ele>
        <time>2000-01-01T05:40:14.000Z</time>
      </trkpt>
      <trkpt lat="46.21424" lon="6.76519">
        <ele>1258</ele>
        <time>2000-01-01T05:40:24.000Z</time>
      </trkpt>
      <trkpt lat="46.21401" lon="6.7654">
        <ele>1257</ele>
        <time>2000-01-01T05:40:34.000Z</time>
      </trkpt>
      <trkpt lat="46.21366" lon="6.76581">
        <ele>1255</ele>
        <time>2000-01-01T05:40:44.000Z</time>
      </trkpt>
      <trkpt lat="46.21358" lon="6.76581">
        <ele>1255.5</ele>
        <time>2000-01-01T05:40:54.000Z</time>
      </trkpt>
      <trkpt lat="46.21355" lon="6.76569">
        <ele>1254</ele>
        <time>2000-01-01T05:41:04.000Z</time>
      </trkpt>
      <trkpt lat="46.2136" lon="6.7656">
        <ele>1253</ele>
        <time>2000-01-01T05:41:14.000Z</time>
      </trkpt>
      <trkpt lat="46.21382" lon="6.76537">
        <ele>1248</ele>
        <time>2000-01-01T05:41:24.000Z</time>
      </trkpt>
      <trkpt lat="46.21405" lon="6.76502">
        <ele>1247</ele>
        <time>2000-01-01T05:41:34.000Z</time>
      </trkpt>
      <trkpt lat="46.21427" lon="6.76467">
        <ele>1239</ele>
        <time>2000-01-01T05:41:44.000Z</time>
      </trkpt>
      <trkpt lat="46.21458" lon="6.7642">
        <ele>1238</ele>
        <time>2000-01-01T05:41:54.000Z</time>
      </trkpt>
      <trkpt lat="46.21477" lon="6.7637">
        <ele>1238</ele>
        <time>2000-01-01T05:42:04.000Z</time>
      </trkpt>
      <trkpt lat="46.21494" lon="6.76346">
        <ele>1235</ele>
        <time>2000-01-01T05:42:14.000Z</time>
      </trkpt>
      <trkpt lat="46.21504" lon="6.76324">
        <ele>1236.5</ele>
        <time>2000-01-01T05:42:24.000Z</time>
      </trkpt>
      <trkpt lat="46.21517" lon="6.76287">
        <ele>1229</ele>
        <time>2000-01-01T05:42:34.000Z</time>
      </trkpt>
      <trkpt lat="46.21524" lon="6.76236">
        <ele>1229</ele>
        <time>2000-01-01T05:42:44.000Z</time>
      </trkpt>
      <trkpt lat="46.21532" lon="6.76201">
        <ele>1227</ele>
        <time>2000-01-01T05:42:54.000Z</time>
      </trkpt>
      <trkpt lat="46.21544" lon="6.76169">
        <ele>1221</ele>
        <time>2000-01-01T05:43:04.000Z</time>
      </trkpt>
      <trkpt lat="46.21558" lon="6.7613">
        <ele>1218</ele>
        <time>2000-01-01T05:43:14.000Z</time>
      </trkpt>
      <trkpt lat="46.21559" lon="6.76116">
        <ele>1221.6</ele>
        <time>2000-01-01T05:43:24.000Z</time>
      </trkpt>
      <trkpt lat="46.21554" lon="6.7608">
        <ele>1217</ele>
        <time>2000-01-01T05:43:34.000Z</time>
      </trkpt>
      <trkpt lat="46.21574" lon="6.76027">
        <ele>1212</ele>
        <time>2000-01-01T05:43:44.000Z</time>
      </trkpt>
      <trkpt lat="46.21578" lon="6.75991">
        <ele>1209</ele>
        <time>2000-01-01T05:43:54.000Z</time>
      </trkpt>
      <trkpt lat="46.21582" lon="6.75948">
        <ele>1208</ele>
        <time>2000-01-01T05:44:04.000Z</time>
      </trkpt>
      <trkpt lat="46.2158" lon="6.75928">
        <ele>1208.4</ele>
        <time>2000-01-01T05:44:14.000Z</time>
      </trkpt>
      <trkpt lat="46.21568" lon="6.75882">
        <ele>1203</ele>
        <time>2000-01-01T05:44:24.000Z</time>
      </trkpt>
      <trkpt lat="46.21556" lon="6.75841">
        <ele>1200</ele>
        <time>2000-01-01T05:44:34.000Z</time>
      </trkpt>
      <trkpt lat="46.21546" lon="6.75807">
        <ele>1197</ele>
        <time>2000-01-01T05:44:44.000Z</time>
      </trkpt>
      <trkpt lat="46.21533" lon="6.75765">
        <ele>1195</ele>
        <time>2000-01-01T05:44:54.000Z</time>
      </trkpt>
      <trkpt lat="46.21517" lon="6.75725">
        <ele>1192</ele>
        <time>2000-01-01T05:45:04.000Z</time>
      </trkpt>
      <trkpt lat="46.21508" lon="6.75687">
        <ele>1192</ele>
        <time>2000-01-01T05:45:14.000Z</time>
      </trkpt>
      <trkpt lat="46.21494" lon="6.75633">
        <ele>1192</ele>
        <time>2000-01-01T05:45:24.000Z</time>
      </trkpt>
      <trkpt lat="46.21491" lon="6.75607">
        <ele>1191</ele>
        <time>2000-01-01T05:45:34.000Z</time>
      </trkpt>
      <trkpt lat="46.2149" lon="6.75569">
        <ele>1191</ele>
        <time>2000-01-01T05:45:44.000Z</time>
      </trkpt>
      <trkpt lat="46.21495" lon="6.75526">
        <ele>1190</ele>
        <time>2000-01-01T05:45:54.000Z</time>
      </trkpt>
      <trkpt lat="46.21487" lon="6.75498">
        <ele>1183</ele>
        <time>2000-01-01T05:46:04.000Z</time>
      </trkpt>
      <trkpt lat="46.21482" lon="6.75494">
        <ele>1178.4</ele>
        <time>2000-01-01T05:46:14.000Z</time>
      </trkpt>
      <trkpt lat="46.21479" lon="6.75495">
        <ele>1177.6</ele>
        <time>2000-01-01T05:46:24.000Z</time>
      </trkpt>
      <trkpt lat="46.21457" lon="6.75515">
        <ele>1181</ele>
        <time>2000-01-01T05:46:34.000Z</time>
      </trkpt>
      <trkpt lat="46.21453" lon="6.75515">
        <ele>1175.2</ele>
        <time>2000-01-01T05:46:44.000Z</time>
      </trkpt>
      <trkpt lat="46.21433" lon="6.75512">
        <ele>1179</ele>
        <time>2000-01-01T05:46:54.000Z</time>
      </trkpt>
      <trkpt lat="46.21432" lon="6.75475">
        <ele>1173</ele>
        <time>2000-01-01T05:47:04.000Z</time>
      </trkpt>
      <trkpt lat="46.21422" lon="6.75451">
        <ele>1170</ele>
        <time>2000-01-01T05:47:14.000Z</time>
      </trkpt>
      <trkpt lat="46.21408" lon="6.75439">
        <ele>1164.7</ele>
        <time>2000-01-01T05:47:24.000Z</time>
      </trkpt>
      <trkpt lat="46.21388" lon="6.75432">
        <ele>1167</ele>
        <time>2000-01-01T05:47:34.000Z</time>
      </trkpt>
      <trkpt lat="46.21363" lon="6.75433">
        <ele>1162</ele>
        <time>2000-01-01T05:47:44.000Z</time>
      </trkpt>
      <trkpt lat="46.21335" lon="6.75435">
        <ele>1153</ele>
        <time>2000-01-01T05:47:54.000Z</time>
      </trkpt>
      <trkpt lat="46.21305" lon="6.75422">
        <ele>1147</ele>
        <time>2000-01-01T05:48:04.000Z</time>
      </trkpt>
      <trkpt lat="46.21285" lon="6.75403">
        <ele>1140</ele>
        <time>2000-01-01T05:48:14.000Z</time>
      </trkpt>
      <trkpt lat="46.21266" lon="6.75384">
        <ele>1138</ele>
        <time>2000-01-01T05:48:24.000Z</time>
      </trkpt>
      <trkpt lat="46.21256" lon="6.7535">
        <ele>1132</ele>
        <time>2000-01-01T05:48:34.000Z</time>
      </trkpt>
      <trkpt lat="46.21244" lon="6.75343">
        <ele>1132</ele>
        <time>2000-01-01T05:48:44.000Z</time>
      </trkpt>
      <trkpt lat="46.21227" lon="6.75317">
        <ele>1126</ele>
        <time>2000-01-01T05:48:54.000Z</time>
      </trkpt>
      <trkpt lat="46.21216" lon="6.75288">
        <ele>1124</ele>
        <time>2000-01-01T05:49:04.000Z</time>
      </trkpt>
      <trkpt lat="46.21207" lon="6.75251">
        <ele>1124</ele>
        <time>2000-01-01T05:49:14.000Z</time>
      </trkpt>
      <trkpt lat="46.21205" lon="6.75213">
        <ele>1121</ele>
        <time>2000-01-01T05:49:24.000Z</time>
      </trkpt>
      <trkpt lat="46.21203" lon="6.75162">
        <ele>1118</ele>
        <time>2000-01-01T05:49:34.000Z</time>
      </trkpt>
      <trkpt lat="46.21186" lon="6.75107">
        <ele>1115</ele>
        <time>2000-01-01T05:49:44.000Z</time>
      </trkpt>
      <trkpt lat="46.21153" lon="6.75069">
        <ele>1114</ele>
        <time>2000-01-01T05:49:54.000Z</time>
      </trkpt>
      <trkpt lat="46.21127" lon="6.75023">
        <ele>1114</ele>
        <time>2000-01-01T05:50:04.000Z</time>
      </trkpt>
      <trkpt lat="46.21114" lon="6.74971">
        <ele>1108</ele>
        <time>2000-01-01T05:50:14.000Z</time>
      </trkpt>
      <trkpt lat="46.211" lon="6.74918">
        <ele>1106</ele>
        <time>2000-01-01T05:50:24.000Z</time>
      </trkpt>
      <trkpt lat="46.21086" lon="6.74866">
        <ele>1105</ele>
        <time>2000-01-01T05:50:34.000Z</time>
      </trkpt>
      <trkpt lat="46.21073" lon="6.74813">
        <ele>1105</ele>
        <time>2000-01-01T05:50:44.000Z</time>
      </trkpt>
      <trkpt lat="46.21062" lon="6.74774">
        <ele>1106</ele>
        <time>2000-01-01T05:50:54.000Z</time>
      </trkpt>
      <trkpt lat="46.21054" lon="6.74742">
        <ele>1106</ele>
        <time>2000-01-01T05:51:04.000Z</time>
      </trkpt>
      <trkpt lat="46.21046" lon="6.74709">
        <ele>1105</ele>
        <time>2000-01-01T05:51:14.000Z</time>
      </trkpt>
      <trkpt lat="46.21041" lon="6.74684">
        <ele>1106.9</ele>
        <time>2000-01-01T05:51:24.000Z</time>
      </trkpt>
      <trkpt lat="46.21033" lon="6.74582">
        <ele>1105</ele>
        <time>2000-01-01T05:51:34.000Z</time>
      </trkpt>
      <trkpt lat="46.21032" lon="6.7454">
        <ele>1105</ele>
        <time>2000-01-01T05:51:44.000Z</time>
      </trkpt>
      <trkpt lat="46.21039" lon="6.74505">
        <ele>1106</ele>
        <time>2000-01-01T05:51:54.000Z</time>
      </trkpt>
      <trkpt lat="46.21047" lon="6.74465">
        <ele>1103</ele>
        <time>2000-01-01T05:52:04.000Z</time>
      </trkpt>
      <trkpt lat="46.21052" lon="6.74456">
        <ele>1104.3</ele>
        <time>2000-01-01T05:52:14.000Z</time>
      </trkpt>
      <trkpt lat="46.21058" lon="6.74449">
        <ele>1103.4</ele>
        <time>2000-01-01T05:52:24.000Z</time>
      </trkpt>
      <trkpt lat="46.21104" lon="6.74445">
        <ele>1100</ele>
        <time>2000-01-01T05:52:34.000Z</time>
      </trkpt>
      <trkpt lat="46.21094" lon="6.7441">
        <ele>1100</ele>
        <time>2000-01-01T05:52:44.000Z</time>
      </trkpt>
      <trkpt lat="46.21081" lon="6.74367">
        <ele>1100</ele>
        <time>2000-01-01T05:52:54.000Z</time>
      </trkpt>
      <trkpt lat="46.21073" lon="6.74335">
        <ele>1100</ele>
        <time>2000-01-01T05:53:04.000Z</time>
      </trkpt>
      <trkpt lat="46.21064" lon="6.74301">
        <ele>1100</ele>
        <time>2000-01-01T05:53:14.000Z</time>
      </trkpt>
      <trkpt lat="46.21058" lon="6.74251">
        <ele>1100</ele>
        <time>2000-01-01T05:53:24.000Z</time>
      </trkpt>
      <trkpt lat="46.21051" lon="6.742">
        <ele>1097</ele>
        <time>2000-01-01T05:53:34.000Z</time>
      </trkpt>
      <trkpt lat="46.21044" lon="6.7415">
        <ele>1093</ele>
        <time>2000-01-01T05:53:44.000Z</time>
      </trkpt>
      <trkpt lat="46.21036" lon="6.74089">
        <ele>1090</ele>
        <time>2000-01-01T05:53:54.000Z</time>
      </trkpt>
      <trkpt lat="46.21027" lon="6.7404">
        <ele>1087</ele>
        <time>2000-01-01T05:54:04.000Z</time>
      </trkpt>
      <trkpt lat="46.2103" lon="6.74005">
        <ele>1084</ele>
        <time>2000-01-01T05:54:14.000Z</time>
      </trkpt>
      <trkpt lat="46.21027" lon="6.73983">
        <ele>1082.7</ele>
        <time>2000-01-01T05:54:24.000Z</time>
      </trkpt>
      <trkpt lat="46.21017" lon="6.7395">
        <ele>1079</ele>
        <time>2000-01-01T05:54:34.000Z</time>
      </trkpt>
      <trkpt lat="46.21003" lon="6.73916">
        <ele>1077</ele>
        <time>2000-01-01T05:54:44.000Z</time>
      </trkpt>
      <trkpt lat="46.20983" lon="6.73867">
        <ele>1074</ele>
        <time>2000-01-01T05:54:54.000Z</time>
      </trkpt>
      <trkpt lat="46.2098" lon="6.73842">
        <ele>1074.6</ele>
        <time>2000-01-01T05:55:04.000Z</time>
      </trkpt>
      <trkpt lat="46.20976" lon="6.73795">
        <ele>1072</ele>
        <time>2000-01-01T05:55:14.000Z</time>
      </trkpt>
      <trkpt lat="46.20968" lon="6.73739">
        <ele>1069</ele>
        <time>2000-01-01T05:55:24.000Z</time>
      </trkpt>
      <trkpt lat="46.20968" lon="6.73711">
        <ele>1066</ele>
        <time>2000-01-01T05:55:34.000Z</time>
      </trkpt>
      <trkpt lat="46.20972" lon="6.73702">
        <ele>1066.6</ele>
        <time>2000-01-01T05:55:44.000Z</time>
      </trkpt>
      <trkpt lat="46.20959" lon="6.73702">
        <ele>1066</ele>
        <time>2000-01-01T05:55:54.000Z</time>
      </trkpt>
      <trkpt lat="46.20944" lon="6.73702">
        <ele>1068.1</ele>
        <time>2000-01-01T05:56:04.000Z</time>
      </trkpt>
      <trkpt lat="46.20932" lon="6.73695">
        <ele>1067</ele>
        <time>2000-01-01T05:56:14.000Z</time>
      </trkpt>
      <trkpt lat="46.20911" lon="6.73676">
        <ele>1068</ele>
        <time>2000-01-01T05:56:24.000Z</time>
      </trkpt>
      <trkpt lat="46.20888" lon="6.73655">
        <ele>1068</ele>
        <time>2000-01-01T05:56:34.000Z</time>
      </trkpt>
      <trkpt lat="46.20873" lon="6.73628">
        <ele>1068</ele>
        <time>2000-01-01T05:56:44.000Z</time>
      </trkpt>
      <trkpt lat="46.20861" lon="6.73594">
        <ele>1067</ele>
        <time>2000-01-01T05:56:54.000Z</time>
      </trkpt>
      <trkpt lat="46.20843" lon="6.7355">
        <ele>1067</ele>
        <time>2000-01-01T05:57:04.000Z</time>
      </trkpt>
      <trkpt lat="46.20831" lon="6.73511">
        <ele>1067</ele>
        <time>2000-01-01T05:57:14.000Z</time>
      </trkpt>
      <trkpt lat="46.20822" lon="6.73479">
        <ele>1068</ele>
        <time>2000-01-01T05:57:24.000Z</time>
      </trkpt>
      <trkpt lat="46.20811" lon="6.73444">
        <ele>1068</ele>
        <time>2000-01-01T05:57:34.000Z</time>
      </trkpt>
      <trkpt lat="46.20811" lon="6.73414">
        <ele>1069</ele>
        <time>2000-01-01T05:57:44.000Z</time>
      </trkpt>
      <trkpt lat="46.20822" lon="6.73351">
        <ele>1069</ele>
        <time>2000-01-01T05:57:54.000Z</time>
      </trkpt>
      <trkpt lat="46.20823" lon="6.73336">
        <ele>1069.9</ele>
        <time>2000-01-01T05:58:04.000Z</time>
      </trkpt>
      <trkpt lat="46.2082" lon="6.73314">
        <ele>1069</ele>
        <time>2000-01-01T05:58:14.000Z</time>
      </trkpt>
      <trkpt lat="46.20808" lon="6.73262">
        <ele>1071</ele>
        <time>2000-01-01T05:58:24.000Z</time>
      </trkpt>
      <trkpt lat="46.208" lon="6.73245">
        <ele>1070.6</ele>
        <time>2000-01-01T05:58:34.000Z</time>
      </trkpt>
      <trkpt lat="46.20756" lon="6.73181">
        <ele>1074</ele>
        <time>2000-01-01T05:58:44.000Z</time>
      </trkpt>
      <trkpt lat="46.20751" lon="6.73162">
        <ele>1072.5</ele>
        <time>2000-01-01T05:58:54.000Z</time>
      </trkpt>
      <trkpt lat="46.2075" lon="6.73143">
        <ele>1074</ele>
        <time>2000-01-01T05:59:04.000Z</time>
      </trkpt>
      <trkpt lat="46.20754" lon="6.73102">
        <ele>1074</ele>
        <time>2000-01-01T05:59:14.000Z</time>
      </trkpt>
      <trkpt lat="46.20759" lon="6.73042">
        <ele>1075</ele>
        <time>2000-01-01T05:59:24.000Z</time>
      </trkpt>
      <trkpt lat="46.20757" lon="6.72998">
        <ele>1074</ele>
        <time>2000-01-01T05:59:34.000Z</time>
      </trkpt>
      <trkpt lat="46.20755" lon="6.72961">
        <ele>1074</ele>
        <time>2000-01-01T05:59:44.000Z</time>
      </trkpt>
      <trkpt lat="46.20753" lon="6.72915">
        <ele>1075</ele>
        <time>2000-01-01T05:59:54.000Z</time>
      </trkpt>
      <trkpt lat="46.20748" lon="6.72859">
        <ele>1076</ele>
        <time>2000-01-01T06:00:04.000Z</time>
      </trkpt>
      <trkpt lat="46.20749" lon="6.7283">
        <ele>1076</ele>
        <time>2000-01-01T06:00:14.000Z</time>
      </trkpt>
      <trkpt lat="46.20749" lon="6.72787">
        <ele>1075</ele>
        <time>2000-01-01T06:00:24.000Z</time>
      </trkpt>
      <trkpt lat="46.20748" lon="6.72752">
        <ele>1075</ele>
        <time>2000-01-01T06:00:34.000Z</time>
      </trkpt>
      <trkpt lat="46.20748" lon="6.72713">
        <ele>1072</ele>
        <time>2000-01-01T06:00:44.000Z</time>
      </trkpt>
      <trkpt lat="46.20745" lon="6.72691">
        <ele>1070.6</ele>
        <time>2000-01-01T06:00:54.000Z</time>
      </trkpt>
      <trkpt lat="46.20734" lon="6.72649">
        <ele>1072</ele>
        <time>2000-01-01T06:01:04.000Z</time>
      </trkpt>
      <trkpt lat="46.20732" lon="6.72628">
        <ele>1074.1</ele>
        <time>2000-01-01T06:01:14.000Z</time>
      </trkpt>
      <trkpt lat="46.20734" lon="6.72529">
        <ele>1072</ele>
        <time>2000-01-01T06:01:24.000Z</time>
      </trkpt>
      <trkpt lat="46.20745" lon="6.72492">
        <ele>1070</ele>
        <time>2000-01-01T06:01:34.000Z</time>
      </trkpt>
      <trkpt lat="46.20762" lon="6.72438">
        <ele>1070</ele>
        <time>2000-01-01T06:01:44.000Z</time>
      </trkpt>
      <trkpt lat="46.20765" lon="6.72405">
        <ele>1070</ele>
        <time>2000-01-01T06:01:54.000Z</time>
      </trkpt>
      <trkpt lat="46.20765" lon="6.72372">
        <ele>1070</ele>
        <time>2000-01-01T06:02:04.000Z</time>
      </trkpt>
      <trkpt lat="46.20763" lon="6.72355">
        <ele>1070.1</ele>
        <time>2000-01-01T06:02:14.000Z</time>
      </trkpt>
      <trkpt lat="46.20748" lon="6.72285">
        <ele>1069</ele>
        <time>2000-01-01T06:02:24.000Z</time>
      </trkpt>
      <trkpt lat="46.20749" lon="6.7225">
        <ele>1067</ele>
        <time>2000-01-01T06:02:34.000Z</time>
      </trkpt>
      <trkpt lat="46.2075" lon="6.7221">
        <ele>1066</ele>
        <time>2000-01-01T06:02:44.000Z</time>
      </trkpt>
      <trkpt lat="46.20743" lon="6.72173">
        <ele>1065</ele>
        <time>2000-01-01T06:02:54.000Z</time>
      </trkpt>
      <trkpt lat="46.20741" lon="6.72144">
        <ele>1065</ele>
        <time>2000-01-01T06:03:04.000Z</time>
      </trkpt>
      <trkpt lat="46.20745" lon="6.7208">
        <ele>1066</ele>
        <time>2000-01-01T06:03:14.000Z</time>
      </trkpt>
      <trkpt lat="46.20748" lon="6.7207">
        <ele>1066.9</ele>
        <time>2000-01-01T06:03:24.000Z</time>
      </trkpt>
      <trkpt lat="46.20756" lon="6.72066">
        <ele>1066.5</ele>
        <time>2000-01-01T06:03:34.000Z</time>
      </trkpt>
      <trkpt lat="46.20813" lon="6.72054">
        <ele>1066</ele>
        <time>2000-01-01T06:03:44.000Z</time>
      </trkpt>
      <trkpt lat="46.20821" lon="6.72048">
        <ele>1066.3</ele>
        <time>2000-01-01T06:03:54.000Z</time>
      </trkpt>
      <trkpt lat="46.20837" lon="6.72027">
        <ele>1066</ele>
        <time>2000-01-01T06:04:04.000Z</time>
      </trkpt>
      <trkpt lat="46.20866" lon="6.71997">
        <ele>1066</ele>
        <time>2000-01-01T06:04:14.000Z</time>
      </trkpt>
      <trkpt lat="46.20874" lon="6.71962">
        <ele>1066</ele>
        <time>2000-01-01T06:04:24.000Z</time>
      </trkpt>
      <trkpt lat="46.20876" lon="6.71956">
        <ele>1067.4</ele>
        <time>2000-01-01T06:04:34.000Z</time>
      </trkpt>
      <trkpt lat="46.20886" lon="6.71948">
        <ele>1067.8</ele>
        <time>2000-01-01T06:04:44.000Z</time>
      </trkpt>
      <trkpt lat="46.20873" lon="6.71836">
        <ele>1064</ele>
        <time>2000-01-01T06:04:54.000Z</time>
      </trkpt>
      <trkpt lat="46.20866" lon="6.71811">
        <ele>1064</ele>
        <time>2000-01-01T06:05:04.000Z</time>
      </trkpt>
      <trkpt lat="46.20855" lon="6.71794">
        <ele>1065.7</ele>
        <time>2000-01-01T06:05:14.000Z</time>
      </trkpt>
      <trkpt lat="46.20856" lon="6.71775">
        <ele>1061</ele>
        <time>2000-01-01T06:05:24.000Z</time>
      </trkpt>
      <trkpt lat="46.20852" lon="6.71736">
        <ele>1060</ele>
        <time>2000-01-01T06:05:34.000Z</time>
      </trkpt>
      <trkpt lat="46.20845" lon="6.71678">
        <ele>1055</ele>
        <time>2000-01-01T06:05:44.000Z</time>
      </trkpt>
      <trkpt lat="46.20828" lon="6.71657">
        <ele>1049</ele>
        <time>2000-01-01T06:05:54.000Z</time>
      </trkpt>
      <trkpt lat="46.20808" lon="6.71635">
        <ele>1043</ele>
        <time>2000-01-01T06:06:04.000Z</time>
      </trkpt>
      <trkpt lat="46.20784" lon="6.71609">
        <ele>1042</ele>
        <time>2000-01-01T06:06:14.000Z</time>
      </trkpt>
      <trkpt lat="46.20752" lon="6.71581">
        <ele>1039</ele>
        <time>2000-01-01T06:06:24.000Z</time>
      </trkpt>
      <trkpt lat="46.20733" lon="6.71581">
        <ele>1032</ele>
        <time>2000-01-01T06:06:34.000Z</time>
      </trkpt>
      <trkpt lat="46.20716" lon="6.71561">
        <ele>1026</ele>
        <time>2000-01-01T06:06:44.000Z</time>
      </trkpt>
      <trkpt lat="46.2071" lon="6.71526">
        <ele>1022</ele>
        <time>2000-01-01T06:06:54.000Z</time>
      </trkpt>
      <trkpt lat="46.20703" lon="6.71485">
        <ele>1021</ele>
        <time>2000-01-01T06:07:04.000Z</time>
      </trkpt>
      <trkpt lat="46.20691" lon="6.71455">
        <ele>1017</ele>
        <time>2000-01-01T06:07:14.000Z</time>
      </trkpt>
      <trkpt lat="46.20679" lon="6.71425">
        <ele>1013</ele>
        <time>2000-01-01T06:07:24.000Z</time>
      </trkpt>
      <trkpt lat="46.2068" lon="6.71379">
        <ele>1012</ele>
        <time>2000-01-01T06:07:34.000Z</time>
      </trkpt>
      <trkpt lat="46.2068" lon="6.71334">
        <ele>1011</ele>
        <time>2000-01-01T06:07:44.000Z</time>
      </trkpt>
      <trkpt lat="46.20681" lon="6.71288">
        <ele>1005</ele>
        <time>2000-01-01T06:07:54.000Z</time>
      </trkpt>
      <trkpt lat="46.20688" lon="6.71255">
        <ele>1003</ele>
        <time>2000-01-01T06:08:04.000Z</time>
      </trkpt>
      <trkpt lat="46.2069" lon="6.71204">
        <ele>999</ele>
        <time>2000-01-01T06:08:14.000Z</time>
      </trkpt>
      <trkpt lat="46.20673" lon="6.71158">
        <ele>996</ele>
        <time>2000-01-01T06:08:24.000Z</time>
      </trkpt>
      <trkpt lat="46.20663" lon="6.71099">
        <ele>993</ele>
        <time>2000-01-01T06:08:34.000Z</time>
      </trkpt>
      <trkpt lat="46.20644" lon="6.71103">
        <ele>990</ele>
        <time>2000-01-01T06:08:44.000Z</time>
      </trkpt>
      <trkpt lat="46.2062" lon="6.71098">
        <ele>989</ele>
        <time>2000-01-01T06:08:54.000Z</time>
      </trkpt>
      <trkpt lat="46.20615" lon="6.71094">
        <ele>988.9</ele>
        <time>2000-01-01T06:09:04.000Z</time>
      </trkpt>
      <trkpt lat="46.20569" lon="6.71043">
        <ele>983</ele>
        <time>2000-01-01T06:09:14.000Z</time>
      </trkpt>
      <trkpt lat="46.20554" lon="6.71015">
        <ele>982</ele>
        <time>2000-01-01T06:09:24.000Z</time>
      </trkpt>
      <trkpt lat="46.20536" lon="6.70982">
        <ele>979</ele>
        <time>2000-01-01T06:09:34.000Z</time>
      </trkpt>
      <trkpt lat="46.20526" lon="6.70947">
        <ele>977</ele>
        <time>2000-01-01T06:09:44.000Z</time>
      </trkpt>
      <trkpt lat="46.20512" lon="6.70903">
        <ele>976</ele>
        <time>2000-01-01T06:09:54.000Z</time>
      </trkpt>
      <trkpt lat="46.20493" lon="6.70866">
        <ele>974</ele>
        <time>2000-01-01T06:10:04.000Z</time>
      </trkpt>
      <trkpt lat="46.20474" lon="6.70829">
        <ele>973</ele>
        <time>2000-01-01T06:10:14.000Z</time>
      </trkpt>
      <trkpt lat="46.20451" lon="6.70785">
        <ele>970</ele>
        <time>2000-01-01T06:10:24.000Z</time>
      </trkpt>
      <trkpt lat="46.20439" lon="6.70735">
        <ele>964</ele>
        <time>2000-01-01T06:10:34.000Z</time>
      </trkpt>
      <trkpt lat="46.20419" lon="6.70694">
        <ele>961</ele>
        <time>2000-01-01T06:10:44.000Z</time>
      </trkpt>
      <trkpt lat="46.20415" lon="6.7066">
        <ele>958</ele>
        <time>2000-01-01T06:10:54.000Z</time>
      </trkpt>
      <trkpt lat="46.20411" lon="6.70627">
        <ele>955</ele>
        <time>2000-01-01T06:11:04.000Z</time>
      </trkpt>
      <trkpt lat="46.20395" lon="6.70573">
        <ele>952</ele>
        <time>2000-01-01T06:11:14.000Z</time>
      </trkpt>
      <trkpt lat="46.20394" lon="6.70518">
        <ele>947</ele>
        <time>2000-01-01T06:11:24.000Z</time>
      </trkpt>
      <trkpt lat="46.20378" lon="6.70463">
        <ele>944</ele>
        <time>2000-01-01T06:11:34.000Z</time>
      </trkpt>
      <trkpt lat="46.20355" lon="6.70429">
        <ele>943</ele>
        <time>2000-01-01T06:11:44.000Z</time>
      </trkpt>
      <trkpt lat="46.20337" lon="6.70368">
        <ele>941</ele>
        <time>2000-01-01T06:11:54.000Z</time>
      </trkpt>
      <trkpt lat="46.20336" lon="6.70345">
        <ele>940.1</ele>
        <time>2000-01-01T06:12:04.000Z</time>
      </trkpt>
      <trkpt lat="46.20319" lon="6.70279">
        <ele>937</ele>
        <time>2000-01-01T06:12:14.000Z</time>
      </trkpt>
      <trkpt lat="46.2032" lon="6.70268">
        <ele>938.5</ele>
        <time>2000-01-01T06:12:24.000Z</time>
      </trkpt>
      <trkpt lat="46.20328" lon="6.70236">
        <ele>936</ele>
        <time>2000-01-01T06:12:34.000Z</time>
      </trkpt>
      <trkpt lat="46.20329" lon="6.70213">
        <ele>938.2</ele>
        <time>2000-01-01T06:12:44.000Z</time>
      </trkpt>
      <trkpt lat="46.20316" lon="6.7017">
        <ele>932</ele>
        <time>2000-01-01T06:12:54.000Z</time>
      </trkpt>
      <trkpt lat="46.20314" lon="6.70156">
        <ele>933.8</ele>
        <time>2000-01-01T06:13:04.000Z</time>
      </trkpt>
      <trkpt lat="46.20307" lon="6.70141">
        <ele>931</ele>
        <time>2000-01-01T06:13:14.000Z</time>
      </trkpt>
      <trkpt lat="46.20294" lon="6.70108">
        <ele>931</ele>
        <time>2000-01-01T06:13:24.000Z</time>
      </trkpt>
      <trkpt lat="46.20276" lon="6.70064">
        <ele>929</ele>
        <time>2000-01-01T06:13:34.000Z</time>
      </trkpt>
      <trkpt lat="46.20272" lon="6.69997">
        <ele>928</ele>
        <time>2000-01-01T06:13:44.000Z</time>
      </trkpt>
      <trkpt lat="46.20262" lon="6.69971">
        <ele>927</ele>
        <time>2000-01-01T06:13:54.000Z</time>
      </trkpt>
      <trkpt lat="46.20253" lon="6.69937">
        <ele>926</ele>
        <time>2000-01-01T06:14:04.000Z</time>
      </trkpt>
      <trkpt lat="46.20242" lon="6.69897">
        <ele>924</ele>
        <time>2000-01-01T06:14:14.000Z</time>
      </trkpt>
      <trkpt lat="46.20226" lon="6.69858">
        <ele>922</ele>
        <time>2000-01-01T06:14:24.000Z</time>
      </trkpt>
      <trkpt lat="46.20224" lon="6.6984">
        <ele>923.3</ele>
        <time>2000-01-01T06:14:34.000Z</time>
      </trkpt>
      <trkpt lat="46.20229" lon="6.69773">
        <ele>920</ele>
        <time>2000-01-01T06:14:44.000Z</time>
      </trkpt>
      <trkpt lat="46.20229" lon="6.69755">
        <ele>921.8</ele>
        <time>2000-01-01T06:14:54.000Z</time>
      </trkpt>
      <trkpt lat="46.202" lon="6.69658">
        <ele>915</ele>
        <time>2000-01-01T06:15:04.000Z</time>
      </trkpt>
      <trkpt lat="46.20195" lon="6.69635">
        <ele>916.3</ele>
        <time>2000-01-01T06:15:14.000Z</time>
      </trkpt>
      <trkpt lat="46.20178" lon="6.69583">
        <ele>912</ele>
        <time>2000-01-01T06:15:24.000Z</time>
      </trkpt>
      <trkpt lat="46.20176" lon="6.69541">
        <ele>912</ele>
        <time>2000-01-01T06:15:34.000Z</time>
      </trkpt>
      <trkpt lat="46.20173" lon="6.69505">
        <ele>912</ele>
        <time>2000-01-01T06:15:44.000Z</time>
      </trkpt>
      <trkpt lat="46.20171" lon="6.69467">
        <ele>912</ele>
        <time>2000-01-01T06:15:54.000Z</time>
      </trkpt>
      <trkpt lat="46.20166" lon="6.69439">
        <ele>909</ele>
        <time>2000-01-01T06:16:04.000Z</time>
      </trkpt>
      <trkpt lat="46.20158" lon="6.69422">
        <ele>915.5</ele>
        <time>2000-01-01T06:16:14.000Z</time>
      </trkpt>
      <trkpt lat="46.2011" lon="6.69384">
        <ele>907</ele>
        <time>2000-01-01T06:16:24.000Z</time>
      </trkpt>
      <trkpt lat="46.20101" lon="6.69376">
        <ele>907.7</ele>
        <time>2000-01-01T06:16:34.000Z</time>
      </trkpt>
      <trkpt lat="46.20093" lon="6.69363">
        <ele>906</ele>
        <time>2000-01-01T06:16:44.000Z</time>
      </trkpt>
      <trkpt lat="46.20081" lon="6.69333">
        <ele>906</ele>
        <time>2000-01-01T06:16:54.000Z</time>
      </trkpt>
      <trkpt lat="46.20069" lon="6.69301">
        <ele>906</ele>
        <time>2000-01-01T06:17:04.000Z</time>
      </trkpt>
      <trkpt lat="46.20056" lon="6.69258">
        <ele>905</ele>
        <time>2000-01-01T06:17:14.000Z</time>
      </trkpt>
      <trkpt lat="46.2005" lon="6.69214">
        <ele>904</ele>
        <time>2000-01-01T06:17:24.000Z</time>
      </trkpt>
      <trkpt lat="46.20044" lon="6.6917">
        <ele>901</ele>
        <time>2000-01-01T06:17:34.000Z</time>
      </trkpt>
      <trkpt lat="46.20038" lon="6.69125">
        <ele>900</ele>
        <time>2000-01-01T06:17:44.000Z</time>
      </trkpt>
      <trkpt lat="46.20029" lon="6.6908">
        <ele>898</ele>
        <time>2000-01-01T06:17:54.000Z</time>
      </trkpt>
      <trkpt lat="46.2002" lon="6.69035">
        <ele>897</ele>
        <time>2000-01-01T06:18:04.000Z</time>
      </trkpt>
      <trkpt lat="46.20008" lon="6.68978">
        <ele>897</ele>
        <time>2000-01-01T06:18:14.000Z</time>
      </trkpt>
      <trkpt lat="46.20007" lon="6.68956">
        <ele>896.6</ele>
        <time>2000-01-01T06:18:24.000Z</time>
      </trkpt>
      <trkpt lat="46.20017" lon="6.68951">
        <ele>897</ele>
        <time>2000-01-01T06:18:34.000Z</time>
      </trkpt>
      <trkpt lat="46.20024" lon="6.68942">
        <ele>895.9</ele>
        <time>2000-01-01T06:18:44.000Z</time>
      </trkpt>
      <trkpt lat="46.20027" lon="6.68932">
        <ele>895.5</ele>
        <time>2000-01-01T06:18:54.000Z</time>
      </trkpt>
      <trkpt lat="46.2003" lon="6.68893">
        <ele>893</ele>
        <time>2000-01-01T06:19:04.000Z</time>
      </trkpt>
      <trkpt lat="46.20023" lon="6.6889">
        <ele>894</ele>
        <time>2000-01-01T06:19:14.000Z</time>
      </trkpt>
      <trkpt lat="46.20017" lon="6.68915">
        <ele>893</ele>
        <time>2000-01-01T06:19:24.000Z</time>
      </trkpt>
      <trkpt lat="46.20023" lon="6.6889">
        <ele>894</ele>
        <time>2000-01-01T06:19:34.000Z</time>
      </trkpt>
      <trkpt lat="46.20006" lon="6.68887">
        <ele>894</ele>
        <time>2000-01-01T06:19:44.000Z</time>
      </trkpt>
      <trkpt lat="46.19993" lon="6.68885">
        <ele>894</ele>
        <time>2000-01-01T06:19:54.000Z</time>
      </trkpt>
      <trkpt lat="46.19974" lon="6.68891">
        <ele>894</ele>
        <time>2000-01-01T06:20:04.000Z</time>
      </trkpt>
      <trkpt lat="46.19937" lon="6.68918">
        <ele>894</ele>
        <time>2000-01-01T06:20:14.000Z</time>
      </trkpt>
      <trkpt lat="46.19917" lon="6.68868">
        <ele>893</ele>
        <time>2000-01-01T06:20:24.000Z</time>
      </trkpt>
      <trkpt lat="46.19907" lon="6.68835">
        <ele>893</ele>
        <time>2000-01-01T06:20:34.000Z</time>
      </trkpt>
      <trkpt lat="46.19929" lon="6.68806">
        <ele>893</ele>
        <time>2000-01-01T06:20:44.000Z</time>
      </trkpt>
      <trkpt lat="46.19911" lon="6.68773">
        <ele>893</ele>
        <time>2000-01-01T06:20:54.000Z</time>
      </trkpt>
      <trkpt lat="46.19895" lon="6.68745">
        <ele>893</ele>
        <time>2000-01-01T06:21:04.000Z</time>
      </trkpt>
      <trkpt lat="46.19878" lon="6.68713">
        <ele>891</ele>
        <time>2000-01-01T06:21:14.000Z</time>
      </trkpt>
      <trkpt lat="46.19857" lon="6.68745">
        <ele>890</ele>
        <time>2000-01-01T06:21:24.000Z</time>
      </trkpt>
      <trkpt lat="46.19839" lon="6.68772">
        <ele>890</ele>
        <time>2000-01-01T06:21:34.000Z</time>
      </trkpt>
      <trkpt lat="46.19818" lon="6.68804">
        <ele>891</ele>
        <time>2000-01-01T06:21:44.000Z</time>
      </trkpt>
      <trkpt lat="46.1978" lon="6.68832">
        <ele>891</ele>
        <time>2000-01-01T06:21:54.000Z</time>
      </trkpt>
      <trkpt lat="46.19763" lon="6.68857">
        <ele>892</ele>
        <time>2000-01-01T06:22:04.000Z</time>
      </trkpt>
      <trkpt lat="46.19744" lon="6.68879">
        <ele>893</ele>
        <time>2000-01-01T06:22:14.000Z</time>
      </trkpt>
      <trkpt lat="46.19723" lon="6.68902">
        <ele>893</ele>
        <time>2000-01-01T06:22:24.000Z</time>
      </trkpt>
      <trkpt lat="46.19693" lon="6.68926">
        <ele>894</ele>
        <time>2000-01-01T06:22:34.000Z</time>
      </trkpt>
      <trkpt lat="46.19663" lon="6.68949">
        <ele>894</ele>
        <time>2000-01-01T06:22:44.000Z</time>
      </trkpt>
      <trkpt lat="46.1964" lon="6.68967">
        <ele>894</ele>
        <time>2000-01-01T06:22:54.000Z</time>
      </trkpt>
      <trkpt lat="46.1961" lon="6.6899">
        <ele>897</ele>
        <time>2000-01-01T06:23:04.000Z</time>
      </trkpt>
      <trkpt lat="46.196" lon="6.69027">
        <ele>897</ele>
        <time>2000-01-01T06:23:14.000Z</time>
      </trkpt>
      <trkpt lat="46.19576" lon="6.69056">
        <ele>897</ele>
        <time>2000-01-01T06:23:24.000Z</time>
      </trkpt>
      <trkpt lat="46.19546" lon="6.6907">
        <ele>898</ele>
        <time>2000-01-01T06:23:34.000Z</time>
      </trkpt>
      <trkpt lat="46.19527" lon="6.6909">
        <ele>901</ele>
        <time>2000-01-01T06:23:44.000Z</time>
      </trkpt>
      <trkpt lat="46.19515" lon="6.69133">
        <ele>901</ele>
        <time>2000-01-01T06:23:54.000Z</time>
      </trkpt>
      <trkpt lat="46.19497" lon="6.69168">
        <ele>900</ele>
        <time>2000-01-01T06:24:04.000Z</time>
      </trkpt>
      <trkpt lat="46.19483" lon="6.69198">
        <ele>900</ele>
        <time>2000-01-01T06:24:14.000Z</time>
      </trkpt>
      <trkpt lat="46.19466" lon="6.69231">
        <ele>902</ele>
        <time>2000-01-01T06:24:24.000Z</time>
      </trkpt>
      <trkpt lat="46.19441" lon="6.69262">
        <ele>903</ele>
        <time>2000-01-01T06:24:34.000Z</time>
      </trkpt>
      <trkpt lat="46.1942" lon="6.69278">
        <ele>903</ele>
        <time>2000-01-01T06:24:44.000Z</time>
      </trkpt>
      <trkpt lat="46.19399" lon="6.69295">
        <ele>904</ele>
        <time>2000-01-01T06:24:54.000Z</time>
      </trkpt>
      <trkpt lat="46.19376" lon="6.69318">
        <ele>904</ele>
        <time>2000-01-01T06:25:04.000Z</time>
      </trkpt>
      <trkpt lat="46.19355" lon="6.69372">
        <ele>904</ele>
        <time>2000-01-01T06:25:14.000Z</time>
      </trkpt>
      <trkpt lat="46.19352" lon="6.69412">
        <ele>906</ele>
        <time>2000-01-01T06:25:24.000Z</time>
      </trkpt>
      <trkpt lat="46.19333" lon="6.69454">
        <ele>907</ele>
        <time>2000-01-01T06:25:34.000Z</time>
      </trkpt>
      <trkpt lat="46.19325" lon="6.69464">
        <ele>907.5</ele>
        <time>2000-01-01T06:25:44.000Z</time>
      </trkpt>
      <trkpt lat="46.19298" lon="6.69505">
        <ele>907</ele>
        <time>2000-01-01T06:25:54.000Z</time>
      </trkpt>
      <trkpt lat="46.19274" lon="6.69518">
        <ele>907</ele>
        <time>2000-01-01T06:26:04.000Z</time>
      </trkpt>
      <trkpt lat="46.19248" lon="6.69556">
        <ele>909</ele>
        <time>2000-01-01T06:26:14.000Z</time>
      </trkpt>
      <trkpt lat="46.19218" lon="6.69568">
        <ele>910</ele>
        <time>2000-01-01T06:26:24.000Z</time>
      </trkpt>
      <trkpt lat="46.1918" lon="6.69588">
        <ele>910</ele>
        <time>2000-01-01T06:26:34.000Z</time>
      </trkpt>
      <trkpt lat="46.19159" lon="6.69596">
        <ele>910</ele>
        <time>2000-01-01T06:26:44.000Z</time>
      </trkpt>
      <trkpt lat="46.19149" lon="6.69627">
        <ele>911</ele>
        <time>2000-01-01T06:26:54.000Z</time>
      </trkpt>
      <trkpt lat="46.19133" lon="6.69638">
        <ele>912.9</ele>
        <time>2000-01-01T06:27:04.000Z</time>
      </trkpt>
      <trkpt lat="46.1912" lon="6.69661">
        <ele>913</ele>
        <time>2000-01-01T06:27:14.000Z</time>
      </trkpt>
      <trkpt lat="46.19093" lon="6.6968">
        <ele>913</ele>
        <time>2000-01-01T06:27:24.000Z</time>
      </trkpt>
      <trkpt lat="46.1907" lon="6.69696">
        <ele>914</ele>
        <time>2000-01-01T06:27:34.000Z</time>
      </trkpt>
      <trkpt lat="46.19044" lon="6.69715">
        <ele>914</ele>
        <time>2000-01-01T06:27:44.000Z</time>
      </trkpt>
      <trkpt lat="46.19013" lon="6.69721">
        <ele>915</ele>
        <time>2000-01-01T06:27:54.000Z</time>
      </trkpt>
      <trkpt lat="46.18977" lon="6.69723">
        <ele>915</ele>
        <time>2000-01-01T06:28:04.000Z</time>
      </trkpt>
      <trkpt lat="46.18956" lon="6.69736">
        <ele>916</ele>
        <time>2000-01-01T06:28:14.000Z</time>
      </trkpt>
      <trkpt lat="46.18937" lon="6.69754">
        <ele>916</ele>
        <time>2000-01-01T06:28:24.000Z</time>
      </trkpt>
      <trkpt lat="46.18921" lon="6.69769">
        <ele>917</ele>
        <time>2000-01-01T06:28:34.000Z</time>
      </trkpt>
      <trkpt lat="46.18906" lon="6.69779">
        <ele>918.7</ele>
        <time>2000-01-01T06:28:44.000Z</time>
      </trkpt>
      <trkpt lat="46.1881" lon="6.69819">
        <ele>919</ele>
        <time>2000-01-01T06:28:54.000Z</time>
      </trkpt>
      <trkpt lat="46.18786" lon="6.6984">
        <ele>921</ele>
        <time>2000-01-01T06:29:04.000Z</time>
      </trkpt>
      <trkpt lat="46.18751" lon="6.69873">
        <ele>922</ele>
        <time>2000-01-01T06:29:14.000Z</time>
      </trkpt>
      <trkpt lat="46.18742" lon="6.69889">
        <ele>922.7</ele>
        <time>2000-01-01T06:29:24.000Z</time>
      </trkpt>
      <trkpt lat="46.18741" lon="6.69901">
        <ele>923</ele>
        <time>2000-01-01T06:29:34.000Z</time>
      </trkpt>
      <trkpt lat="46.18748" lon="6.69957">
        <ele>924</ele>
        <time>2000-01-01T06:29:44.000Z</time>
      </trkpt>
      <trkpt lat="46.18747" lon="6.69968">
        <ele>924.7</ele>
        <time>2000-01-01T06:29:54.000Z</time>
      </trkpt>
      <trkpt lat="46.18739" lon="6.69988">
        <ele>925</ele>
        <time>2000-01-01T06:30:04.000Z</time>
      </trkpt>
      <trkpt lat="46.18735" lon="6.70003">
        <ele>926.2</ele>
        <time>2000-01-01T06:30:14.000Z</time>
      </trkpt>
      <trkpt lat="46.18728" lon="6.70022">
        <ele>926</ele>
        <time>2000-01-01T06:30:24.000Z</time>
      </trkpt>
      <trkpt lat="46.18713" lon="6.70052">
        <ele>926</ele>
        <time>2000-01-01T06:30:34.000Z</time>
      </trkpt>
      <trkpt lat="46.18694" lon="6.7009">
        <ele>926</ele>
        <time>2000-01-01T06:30:44.000Z</time>
      </trkpt>
      <trkpt lat="46.18674" lon="6.70138">
        <ele>928</ele>
        <time>2000-01-01T06:30:54.000Z</time>
      </trkpt>
      <trkpt lat="46.18648" lon="6.70176">
        <ele>929</ele>
        <time>2000-01-01T06:31:04.000Z</time>
      </trkpt>
      <trkpt lat="46.18636" lon="6.70186">
        <ele>929.7</ele>
        <time>2000-01-01T06:31:14.000Z</time>
      </trkpt>
      <trkpt lat="46.18591" lon="6.70205">
        <ele>930</ele>
        <time>2000-01-01T06:31:24.000Z</time>
      </trkpt>
      <trkpt lat="46.18571" lon="6.70227">
        <ele>931</ele>
        <time>2000-01-01T06:31:34.000Z</time>
      </trkpt>
      <trkpt lat="46.18551" lon="6.7025">
        <ele>932</ele>
        <time>2000-01-01T06:31:44.000Z</time>
      </trkpt>
      <trkpt lat="46.1853" lon="6.70268">
        <ele>932</ele>
        <time>2000-01-01T06:31:54.000Z</time>
      </trkpt>
      <trkpt lat="46.1851" lon="6.70297">
        <ele>933</ele>
        <time>2000-01-01T06:32:04.000Z</time>
      </trkpt>
      <trkpt lat="46.18482" lon="6.7034">
        <ele>933</ele>
        <time>2000-01-01T06:32:14.000Z</time>
      </trkpt>
      <trkpt lat="46.18449" lon="6.70384">
        <ele>933</ele>
        <time>2000-01-01T06:32:24.000Z</time>
      </trkpt>
      <trkpt lat="46.18423" lon="6.70414">
        <ele>937</ele>
        <time>2000-01-01T06:32:34.000Z</time>
      </trkpt>
      <trkpt lat="46.18415" lon="6.70431">
        <ele>937.5</ele>
        <time>2000-01-01T06:32:44.000Z</time>
      </trkpt>
      <trkpt lat="46.18412" lon="6.70428">
        <ele>937</ele>
        <time>2000-01-01T06:32:54.000Z</time>
      </trkpt>
      <trkpt lat="46.18407" lon="6.70429">
        <ele>937.4</ele>
        <time>2000-01-01T06:33:04.000Z</time>
      </trkpt>
      <trkpt lat="46.1838" lon="6.70462">
        <ele>939</ele>
        <time>2000-01-01T06:33:14.000Z</time>
      </trkpt>
      <trkpt lat="46.18369" lon="6.70477">
        <ele>939.2</ele>
        <time>2000-01-01T06:33:24.000Z</time>
      </trkpt>
      <trkpt lat="46.18361" lon="6.70497">
        <ele>940</ele>
        <time>2000-01-01T06:33:34.000Z</time>
      </trkpt>
      <trkpt lat="46.18354" lon="6.7052">
        <ele>940.4</ele>
        <time>2000-01-01T06:33:44.000Z</time>
      </trkpt>
      <trkpt lat="46.18318" lon="6.70562">
        <ele>940</ele>
        <time>2000-01-01T06:33:54.000Z</time>
      </trkpt>
      <trkpt lat="46.1829" lon="6.7059">
        <ele>940</ele>
        <time>2000-01-01T06:34:04.000Z</time>
      </trkpt>
      <trkpt lat="46.18269" lon="6.70606">
        <ele>941</ele>
        <time>2000-01-01T06:34:14.000Z</time>
      </trkpt>
      <trkpt lat="46.18246" lon="6.70624">
        <ele>943</ele>
        <time>2000-01-01T06:34:24.000Z</time>
      </trkpt>
      <trkpt lat="46.18218" lon="6.70637">
        <ele>945</ele>
        <time>2000-01-01T06:34:34.000Z</time>
      </trkpt>
      <trkpt lat="46.18205" lon="6.70647">
        <ele>946.2</ele>
        <time>2000-01-01T06:34:44.000Z</time>
      </trkpt>
      <trkpt lat="46.18153" lon="6.70693">
        <ele>947</ele>
        <time>2000-01-01T06:34:54.000Z</time>
      </trkpt>
      <trkpt lat="46.1814" lon="6.70716">
        <ele>946</ele>
        <time>2000-01-01T06:35:04.000Z</time>
      </trkpt>
      <trkpt lat="46.18106" lon="6.70749">
        <ele>948</ele>
        <time>2000-01-01T06:35:14.000Z</time>
      </trkpt>
      <trkpt lat="46.18073" lon="6.70771">
        <ele>950</ele>
        <time>2000-01-01T06:35:24.000Z</time>
      </trkpt>
      <trkpt lat="46.18039" lon="6.70792">
        <ele>950</ele>
        <time>2000-01-01T06:35:34.000Z</time>
      </trkpt>
      <trkpt lat="46.18019" lon="6.70809">
        <ele>950</ele>
        <time>2000-01-01T06:35:44.000Z</time>
      </trkpt>
      <trkpt lat="46.17999" lon="6.70827">
        <ele>951</ele>
        <time>2000-01-01T06:35:54.000Z</time>
      </trkpt>
      <trkpt lat="46.17981" lon="6.70847">
        <ele>953</ele>
        <time>2000-01-01T06:36:04.000Z</time>
      </trkpt>
      <trkpt lat="46.17974" lon="6.70855">
        <ele>955.5</ele>
        <time>2000-01-01T06:36:14.000Z</time>
      </trkpt>
      <trkpt lat="46.17973" lon="6.70863">
        <ele>956.3</ele>
        <time>2000-01-01T06:36:24.000Z</time>
      </trkpt>
      <trkpt lat="46.17895" lon="6.70873">
        <ele>958</ele>
        <time>2000-01-01T06:36:34.000Z</time>
      </trkpt>
      <trkpt lat="46.17888" lon="6.70879">
        <ele>958.6</ele>
        <time>2000-01-01T06:36:44.000Z</time>
      </trkpt>
      <trkpt lat="46.17886" lon="6.70885">
        <ele>958.9</ele>
        <time>2000-01-01T06:36:54.000Z</time>
      </trkpt>
      <trkpt lat="46.17867" lon="6.70897">
        <ele>959</ele>
        <time>2000-01-01T06:37:04.000Z</time>
      </trkpt>
      <trkpt lat="46.17858" lon="6.70864">
        <ele>959</ele>
        <time>2000-01-01T06:37:14.000Z</time>
      </trkpt>
      <trkpt lat="46.17854" lon="6.70847">
        <ele>959.9</ele>
        <time>2000-01-01T06:37:24.000Z</time>
      </trkpt>
      <trkpt lat="46.17855" lon="6.70836">
        <ele>961</ele>
        <time>2000-01-01T06:37:34.000Z</time>
      </trkpt>
      <trkpt lat="46.17864" lon="6.70823">
        <ele>964</ele>
        <time>2000-01-01T06:37:44.000Z</time>
      </trkpt>
      <trkpt lat="46.17878" lon="6.70816">
        <ele>967</ele>
        <time>2000-01-01T06:37:54.000Z</time>
      </trkpt>
      <trkpt lat="46.17885" lon="6.70801">
        <ele>964.2</ele>
        <time>2000-01-01T06:38:04.000Z</time>
      </trkpt>
      <trkpt lat="46.17888" lon="6.70781">
        <ele>971</ele>
        <time>2000-01-01T06:38:14.000Z</time>
      </trkpt>
      <trkpt lat="46.17887" lon="6.70762">
        <ele>968.6</ele>
        <time>2000-01-01T06:38:24.000Z</time>
      </trkpt>
      <trkpt lat="46.17889" lon="6.70737">
        <ele>974</ele>
        <time>2000-01-01T06:38:34.000Z</time>
      </trkpt>
      <trkpt lat="46.17898" lon="6.70704">
        <ele>978</ele>
        <time>2000-01-01T06:38:44.000Z</time>
      </trkpt>
      <trkpt lat="46.17908" lon="6.7067">
        <ele>980</ele>
        <time>2000-01-01T06:38:54.000Z</time>
      </trkpt>
      <trkpt lat="46.1791" lon="6.70655">
        <ele>974.6</ele>
        <time>2000-01-01T06:39:04.000Z</time>
      </trkpt>
      <trkpt lat="46.17908" lon="6.70642">
        <ele>980</ele>
        <time>2000-01-01T06:39:14.000Z</time>
      </trkpt>
      <trkpt lat="46.17895" lon="6.7061">
        <ele>980</ele>
        <time>2000-01-01T06:39:24.000Z</time>
      </trkpt>
      <trkpt lat="46.17905" lon="6.70578">
        <ele>979</ele>
        <time>2000-01-01T06:39:34.000Z</time>
      </trkpt>
      <trkpt lat="46.17927" lon="6.7057">
        <ele>979</ele>
        <time>2000-01-01T06:39:44.000Z</time>
      </trkpt>
      <trkpt lat="46.17953" lon="6.70554">
        <ele>979</ele>
        <time>2000-01-01T06:39:54.000Z</time>
      </trkpt>
      <trkpt lat="46.1799" lon="6.70551">
        <ele>977</ele>
        <time>2000-01-01T06:40:04.000Z</time>
      </trkpt>
      <trkpt lat="46.18007" lon="6.70543">
        <ele>976.7</ele>
        <time>2000-01-01T06:40:14.000Z</time>
      </trkpt>
      <trkpt lat="46.1804" lon="6.70525">
        <ele>976</ele>
        <time>2000-01-01T06:40:24.000Z</time>
      </trkpt>
      <trkpt lat="46.18067" lon="6.70517">
        <ele>975</ele>
        <time>2000-01-01T06:40:34.000Z</time>
      </trkpt>
      <trkpt lat="46.18103" lon="6.70506">
        <ele>974</ele>
        <time>2000-01-01T06:40:44.000Z</time>
      </trkpt>
      <trkpt lat="46.18108" lon="6.70519">
        <ele>972.8</ele>
        <time>2000-01-01T06:40:54.000Z</time>
      </trkpt>
      <trkpt lat="46.18115" lon="6.70504">
        <ele>974</ele>
        <time>2000-01-01T06:41:04.000Z</time>
      </trkpt>
      <trkpt lat="46.18124" lon="6.70484">
        <ele>974</ele>
        <time>2000-01-01T06:41:14.000Z</time>
      </trkpt>
      <trkpt lat="46.18135" lon="6.70446">
        <ele>973</ele>
        <time>2000-01-01T06:41:24.000Z</time>
      </trkpt>
    </trkseg>
  </trk>
</gpx>